[[{"header":{"parameterUnit":"m.s-1","parameterCategory":1,"la1":31.0,"la2":29.5877,"lo1":-88.7671,"lo2":-86.6584,"dy":0.0162,"dx":0.0185,"nx":115,"ny":88,"refTime":"2024-07-11T12:00:00:Z","depth":0,"parameterNumber":2,"parameterNumberName":"U-component_of_WINDS"},"data":[0.0,0.0,0.0,0.0,0.0,0.0,0.0,0.0,0.0,0.0,0.0,0.0,0.0,0.0,0.0,0.0,0.0,0.0,0.0,0.0,0.0,0.0,0.0,0.0,0.0,0.0,0.0,0.0,0.0,0.0,0.0,0.0,0.0,0.0,0.0,0.0,0.0,0.0,0.0,0.0,0.0,0.0,0.0,0.0,0.0,0.0,0.0,0.0,0.0,0.0,0.0,0.0,0.0,0.0,0.0,0.0,0.0,0.0,0.0,0.0,0.0,0.0,0.0,0.0,0.0,0.0,0.0,0.0,0.0,0.0,0.0,0.0,0.0,0.0,0.0,0.0,0.0,0.0,0.0,0.0,0.0,0.0,0.0,0.0,0.0,0.0,0.0,0.0,0.0,0.0,0.0,0.0,0.0,0.0,0.0,0.0,0.0,0.0,0.0,0.0,0.0,0.0,0.0,0.0,0.0,0.0,0.0,0.0,0.0,0.0,0.0,0.0,0.0,0.0,0.0,0.0,0.0,0.0,0.0,0.0,0.0,0.0,0.0,0.0,0.0,0.0,0.0,0.0,0.0,0.0,0.0,0.0,0.0,0.0,0.0,0.0,0.0,0.0,0.0,0.0,0.0,0.0,0.0,0.0,0.0,0.0,0.0,0.0,0.0,0.0,0.0,0.0,0.0,0.0,0.0,0.0,0.0,0.0,0.0,0.0,0.0,0.0,0.0,0.0,0.0,0.0,0.0,0.0,0.0,0.0,0.0,0.0,0.0,0.0,0.0,0.0,0.0,0.0,0.0,0.0,0.0,0.0,0.0,0.0,0.0,0.0,0.0,0.0,0.0,0.0,0.0,0.0,0.0,0.0,0.0,0.0,0.0,0.0,0.0,0.0,0.0,0.0,0.0,0.0,0.0,0.0,0.0,0.0,0.0,0.0,0.0,0.0,0.0,0.0,0.0,0.0,0.0,0.0,0.0,0.0,0.0,0.0,0.0,0.0,0.0,0.0,0.0,0.0,0.0,0.0,0.0,0.0,0.0,0.0,0.0,0.0,0.0,0.0,0.0,0.0,0.0,0.0,0.0,0.0,0.0,0.0,0.0,0.0,0.0,0.0,0.0,0.0,0.0,0.0,0.0,0.0,0.0,0.0,0.0,0.0,0.0,0.0,0.0,0.0,0.0,0.0,0.0,0.0,0.0,0.0,0.0,0.0,0.0,0.0,0.0,0.0,0.0,0.0,0.0,0.0,0.0,0.0,0.0,0.0,0.0,0.0,0.0,0.0,0.0,0.0,0.0,0.0,0.0,0.0,0.0,0.0,0.0,0.0,0.0,0.0,0.0,0.0,0.0,0.0,0.0,0.0,0.0,0.0,0.0,0.0,0.0,0.0,0.0,0.0,0.0,0.0,0.0,0.0,0.0,0.0,0.0,0.0,0.0,0.0,0.0,0.0,0.0,0.0,0.0,0.0,0.0,0.0,0.0,0.0,0.0,0.0,0.0,0.0,0.0,0.0,0.0,0.0,0.0,0.0,0.0,0.0,0.0,0.0,0.0,0.0,0.0,0.0,0.0,0.0,0.0,0.0,0.0,0.0,0.0,0.0,0.0,0.0,0.0,0.0,0.0,0.0,0.0,0.0,0.0,0.0,0.0,0.0,0.0,0.0,0.0,0.0,0.0,0.0,0.0,0.0,0.0,0.0,0.0,0.0,0.0,0.0,0.0,0.0,0.0,0.0,0.0,0.0,0.0,0.0,0.0,0.0,0.0,0.0,0.0,0.0,0.0,0.0,0.0,0.0,0.0,0.0,0.0,0.0,0.0,0.0,0.0,0.0,0.0,0.0,0.0,0.0,0.0,0.0,0.0,0.0,0.0,0.0,0.0,0.0,0.0,0.0,0.0,0.0,0.0,0.0,0.0,0.0,0.0,0.0,0.0,0.0,0.0,0.0,0.0,0.0,0.0,0.0,0.0,0.0,0.0,0.0,0.0,0.0,0.0,0.0,0.0,0.0,0.0,0.0,0.0,0.0,0.0,0.0,0.0,0.0,0.0,0.0,0.0,0.0,0.0,0.0,0.0,0.0,0.0,0.0,0.0,0.0,0.0,0.0,0.0,0.0,0.0,0.0,0.0,0.0,0.0,0.0,0.0,0.0,0.0,0.0,0.0,0.0,0.0,0.0,0.0,0.0,0.0,0.0,0.0,0.0,0.0,0.0,0.0,0.0,0.0,0.0,0.0,0.0,0.0,0.0,0.0,0.0,0.0,0.0,0.0,0.0,0.0,0.0,0.0,0.0,0.0,0.0,0.0,0.0,0.0,0.0,0.0,0.0,0.0,0.0,0.0,0.0,0.0,0.0,0.0,0.0,0.0,0.0,0.0,0.0,0.0,0.0,0.0,0.0,0.0,0.0,0.0,0.0,0.0,0.0,0.0,0.0,0.0,0.0,0.0,0.0,0.0,0.0,0.0,0.0,0.0,0.0,0.0,0.0,0.0,0.0,0.0,0.0,0.0,0.0,0.0,0.0,0.0,0.0,0.0,0.0,0.0,0.0,0.0,0.0,0.0,0.0,0.0,0.0,0.0,0.0,0.0,0.0,0.0,0.0,0.0,0.0,0.0,0.0,0.0,0.0,0.0,0.0,0.0,0.0,0.0,0.0,0.0,0.0,0.0,0.0,0.0,0.0,0.0,0.0,0.0,0.0,0.0,0.0,0.0,0.0,0.0,0.0,0.0,0.0,0.0,0.0,0.0,0.0,0.0,0.0,0.0,0.0,0.0,0.0,0.0,0.0,0.0,0.0,0.0,0.0,0.0,0.0,0.0,0.0,0.0,0.0,0.0,0.0,0.0,0.0,0.0,0.0,0.0,0.0,0.0,0.0,0.0,0.0,0.0,0.0,0.0,0.0,0.0,0.0,0.0,0.0,0.0,0.0,0.0,0.0,0.0,0.0,0.0,0.0,0.0,0.0,0.0,0.0,0.0,0.0,0.0,0.0,0.0,0.0,0.0,0.0,0.0,0.0,0.0,0.0,0.0,0.0,0.0,0.0,0.0,0.0,0.0,0.0,0.0,0.0,0.0,0.0,0.0,0.0,0.0,0.0,0.0,0.0,0.0,0.0,0.0,0.0,0.0,0.0,0.0,0.0,0.0,0.0,0.0,0.0,0.0,0.0,0.0,0.0,0.0,0.0,0.0,0.0,0.0,0.0,0.0,0.0,0.0,0.0,0.0,0.0,0.0,0.0,0.0,0.0,0.0,0.0,0.0,0.0,0.0,0.0,0.0,0.0,0.0,0.0,0.0,0.0,0.0,0.0,0.0,0.0,0.0,0.0,0.0,0.0,0.0,0.0,0.0,0.0,0.0,0.0,0.0,0.0,0.0,0.0,0.0,0.0,0.0,0.0,0.0,0.0,0.0,0.0,0.0,0.0,0.0,0.0,0.0,0.0,0.0,0.0,0.0,0.0,0.0,0.0,0.0,0.0,0.0,0.0,0.0,0.0,0.0,0.0,0.0,0.0,0.0,0.0,0.0,0.0,0.0,0.0,0.0,0.0,0.0,0.0,0.0,0.0,0.0,0.0,0.0,0.0,0.0,0.0,0.0,0.0,0.0,0.0,0.0,0.0,0.0,0.0,0.0,0.0,0.0,0.0,0.0,0.0,0.0,0.0,0.0,0.0,0.0,0.0,0.0,0.0,0.0,0.0,0.0,0.0,0.0,0.0,0.0,0.0,0.0,0.0,0.0,0.0,0.0,0.0,0.0,0.0,0.0,0.0,0.0,0.0,0.0,0.0,0.0,0.0,0.0,0.0,0.0,0.0,0.0,0.0,0.0,0.0,0.0,0.0,0.0,0.0,0.0,0.0,0.0,0.0,0.0,0.0,0.0,0.0,0.0,0.0,0.0,0.0,0.0,0.0,0.0,0.0,0.0,0.0,0.0,0.0,0.0,0.0,0.0,0.0,0.0,0.0,0.0,0.0,0.0,0.0,0.0,0.0,0.0,0.0,0.0,0.0,0.0,0.0,0.0,0.0,0.0,0.0,0.0,0.0,0.0,0.0,0.0,0.0,0.0,0.0,0.0,0.0,0.0,0.0,0.0,0.0,0.0,0.0,0.0,0.0,0.0,0.0,0.0,0.0,0.0,0.0,0.0,0.0,0.0,0.0,0.0,0.0,0.0,0.0,0.0,0.0,0.0,0.0,0.0,0.0,0.0,0.0,0.0,0.0,0.0,0.0,0.0,0.0,0.0,0.0,0.0,0.0,0.0,0.0,0.0,0.0,0.0,0.0,-1.0016,0.0,0.0,0.0,0.0,0.0,0.0,0.0,0.0,0.0,0.0,0.0,0.0,0.0,0.0,0.0,0.0,0.0,0.0,0.0,0.0,0.0,0.0,0.0,0.0,0.0,0.0,0.0,0.0,0.0,0.0,0.0,0.0,0.0,0.0,0.0,0.0,0.0,0.0,0.0,0.0,0.0,0.0,0.0,0.0,0.0,0.0,0.0,0.0,0.0,0.0,0.0,0.0,0.0,0.0,0.0,0.0,0.0,0.0,0.0,0.0,0.0,0.0,0.0,0.0,0.0,0.0,0.0,0.0,0.0,0.0,0.0,0.0,0.0,0.0,0.0,0.0,0.0,0.0,0.0,0.0,0.0,0.0,0.0,0.0,0.0,0.0,0.0,0.0,0.0,0.0,0.0,0.0,0.0,0.0,0.0,0.0,0.0,0.0,0.0,0.0,0.0,0.0,0.0,0.0,0.0,0.0,0.0,0.0,0.0,0.0,-1.1733,-1.1722,-1.1381,-1.0733,-0.9837,0.0,0.0,0.0,0.0,0.0,0.0,0.0,0.0,0.0,0.0,0.0,0.0,0.0,0.0,0.0,0.0,0.0,0.0,0.0,0.0,0.0,0.0,0.0,0.0,0.0,0.0,0.0,0.0,0.0,0.0,0.0,0.0,0.0,0.0,0.0,0.0,0.0,0.0,0.0,0.0,0.0,0.0,0.0,0.0,0.0,0.0,0.0,0.0,0.0,0.0,0.0,0.0,0.0,0.0,0.0,0.0,0.0,0.0,0.0,0.0,0.0,0.0,0.0,0.0,0.0,0.0,0.0,0.0,0.0,0.0,0.0,0.0,0.0,0.0,0.0,0.0,0.0,0.0,0.0,0.0,0.0,0.0,0.0,0.0,0.0,0.0,0.0,0.0,0.0,0.0,0.0,0.0,0.0,0.0,0.0,0.0,0.0,0.0,0.0,0.0,0.0,0.0,0.0,0.0,0.0,0.0,0.0,0.0,0.0,0.0,0.0,0.0,-1.1423,-1.0861,-1.0272,0.0,0.0,0.0,0.0,0.0,0.0,0.0,0.0,0.0,0.0,0.0,0.0,0.0,0.0,0.0,0.0,0.0,0.0,0.0,0.0,0.0,0.0,0.0,0.0,0.0,0.0,0.0,0.0,0.0,0.0,0.0,0.0,0.0,0.0,0.0,0.0,0.0,0.0,0.0,0.0,0.0,0.0,0.0,0.0,0.0,0.0,0.0,0.0,0.0,0.0,0.0,0.0,0.0,0.0,0.0,0.0,0.0,0.0,0.0,0.0,0.0,0.0,0.0,0.0,0.0,0.0,0.0,0.0,0.0,0.0,0.0,0.0,0.0,0.0,0.0,0.0,0.0,0.0,0.0,0.0,0.0,0.0,0.0,0.0,0.0,0.0,0.0,0.0,0.0,0.0,0.0,0.0,0.0,0.0,0.0,0.0,0.0,0.0,0.0,0.0,0.0,0.0,0.0,0.0,0.0,0.0,0.0,0.0,0.0,0.0,-1.2042,-1.3203,-1.3147,0.0,-1.218,0.0,0.0,0.0,0.0,0.0,0.0,0.0,0.0,0.0,0.0,0.0,0.0,0.0,0.0,0.0,0.0,0.0,0.0,0.0,0.0,0.0,0.0,0.0,0.0,0.0,0.0,0.0,0.0,0.0,0.0,0.0,0.0,0.0,0.0,0.0,0.0,0.0,0.0,0.0,0.0,0.0,0.0,0.0,0.0,0.0,0.0,0.0,0.0,0.0,0.0,0.0,0.0,0.0,0.0,0.0,0.0,0.0,0.0,0.0,0.0,0.0,0.0,0.0,0.0,0.0,0.0,0.0,0.0,0.0,0.0,0.0,0.0,0.0,0.0,0.0,0.0,0.0,0.0,0.0,0.0,0.0,0.0,0.0,0.0,0.0,0.0,0.0,0.0,0.0,0.0,0.0,0.0,0.0,0.0,0.0,0.0,0.0,0.0,0.0,0.0,0.0,0.0,0.0,0.0,0.0,0.0,0.0,0.0,0.0,0.0,0.0,-1.3393,-1.2652,-1.1957,0.0,0.0,0.0,0.0,0.0,0.0,0.0,0.0,0.0,0.0,0.0,0.0,0.0,0.0,0.0,0.0,0.0,0.0,0.0,0.0,0.0,0.0,0.0,0.0,0.0,0.0,0.0,0.0,0.0,0.0,0.0,0.0,0.0,0.0,0.0,0.0,0.0,0.0,0.0,0.0,0.0,0.0,0.0,0.0,0.0,0.0,0.0,0.0,0.0,0.0,0.0,0.0,0.0,0.0,0.0,0.0,0.0,0.0,0.0,0.0,0.0,0.0,0.0,0.0,0.0,0.0,0.0,0.0,0.0,0.0,0.0,0.0,0.0,0.0,0.0,0.0,0.0,0.0,0.0,0.0,0.0,0.0,0.0,0.0,0.0,0.0,0.0,0.0,0.0,0.0,0.0,0.0,0.0,0.0,0.0,0.0,0.0,0.0,0.0,0.0,0.0,0.0,0.0,0.0,0.0,0.0,0.0,0.0,0.0,0.0,-1.211,0.0,-1.3541,-1.2742,-1.1713,-1.0546,0.0,0.0,0.0,0.0,0.0,0.0,0.0,0.0,0.0,0.0,0.0,0.0,0.0,0.0,0.0,0.0,0.0,0.0,0.0,0.0,0.0,0.0,0.0,0.0,0.0,0.0,0.0,0.0,0.0,0.0,0.0,0.0,0.0,0.0,0.0,0.0,0.0,0.0,0.0,0.0,0.0,0.0,0.0,0.0,0.0,0.0,0.0,0.0,0.0,0.0,0.0,0.0,0.0,0.0,0.0,0.0,0.0,0.0,0.0,0.0,0.0,0.0,0.0,0.0,0.0,0.0,0.0,0.0,0.0,0.0,0.0,0.0,0.0,0.0,0.0,0.0,0.0,0.0,0.0,0.0,0.0,0.0,0.0,0.0,0.0,0.0,0.0,0.0,0.0,0.0,0.0,0.0,0.0,0.0,0.0,0.0,0.0,0.0,0.0,0.0,0.0,0.0,0.0,0.0,0.0,0.0,0.0,0.0,0.0,-1.2978,-1.3021,-1.4239,-1.421,-1.3021,0.0,0.0,0.0,0.0,0.0,0.0,0.0,0.0,0.0,0.0,0.0,0.0,0.0,0.0,0.0,0.0,0.0,0.0,0.0,0.0,0.0,0.0,0.0,0.0,0.0,0.0,0.0,0.0,0.0,0.0,0.0,0.0,0.0,0.0,0.0,0.0,0.0,0.0,0.0,0.0,0.0,0.0,0.0,0.0,0.0,0.0,0.0,0.0,0.0,0.0,0.0,0.0,0.0,0.0,0.0,0.0,0.0,0.0,0.0,0.0,0.0,0.0,0.0,0.0,0.0,0.0,0.0,0.0,0.0,0.0,0.0,0.0,0.0,0.0,0.0,0.0,0.0,0.0,0.0,0.0,0.0,0.0,0.0,0.0,0.0,0.0,0.0,0.0,0.0,0.0,0.0,0.0,0.0,0.0,0.0,0.0,0.0,0.0,0.0,0.0,0.0,0.0,0.0,0.0,0.0,0.0,0.0,0.0,0.0,-1.1202,-1.2422,-1.398,0.0,-1.3721,-1.239,0.0,0.0,0.0,0.0,0.0,0.0,0.0,0.0,0.0,0.0,0.0,0.0,0.0,0.0,0.0,0.0,0.0,0.0,0.0,0.0,0.0,0.0,0.0,0.0,0.0,0.0,0.0,0.0,0.0,0.0,0.0,0.0,0.0,0.0,0.0,0.0,0.0,0.0,0.0,0.0,0.0,0.0,0.0,0.0,0.0,0.0,0.0,0.0,0.0,0.0,0.0,0.0,0.0,0.0,0.0,0.0,0.0,0.0,0.0,0.0,0.0,0.0,0.0,0.0,0.0,0.0,0.0,0.0,0.0,0.0,0.0,0.0,0.0,0.0,0.0,0.0,0.0,0.0,0.0,0.0,0.0,0.0,0.0,0.0,0.0,0.0,0.0,0.0,0.0,0.0,0.0,0.0,0.0,0.0,0.0,0.0,0.0,0.0,0.0,0.0,0.0,0.0,0.0,0.0,0.0,0.0,0.0,0.0,0.0,-1.1075,0.0,-1.4743,0.0,-1.3369,-1.1813,0.0,0.0,0.0,0.0,0.0,0.0,0.0,0.0,0.0,0.0,0.0,0.0,0.0,0.0,0.0,0.0,0.0,0.0,0.0,0.0,0.0,0.0,0.0,0.0,0.0,0.0,0.0,0.0,0.0,0.0,0.0,0.0,0.0,0.0,0.0,0.0,0.0,0.0,0.0,0.0,0.0,0.0,0.0,0.0,0.0,0.0,0.0,0.0,0.0,0.0,0.0,0.0,0.0,0.0,0.0,0.0,0.0,0.0,0.0,0.0,0.0,0.0,0.0,0.0,0.0,0.0,0.0,0.0,0.0,0.0,0.0,0.0,0.0,0.0,0.0,0.0,0.0,0.0,0.0,0.0,0.0,0.0,0.0,0.0,0.0,0.0,0.0,0.0,0.0,0.0,0.0,0.0,0.0,0.0,0.0,0.0,0.0,0.0,0.0,0.0,0.0,0.0,0.0,0.0,0.0,0.0,0.0,0.0,-1.0469,-1.4051,-1.5057,-1.5183,-1.4356,-1.3277,-1.143,0.0,0.0,0.0,0.0,0.0,0.0,0.0,0.0,0.0,0.0,0.0,0.0,0.0,0.0,0.0,0.0,0.0,0.0,0.0,0.0,0.0,0.0,0.0,0.0,0.0,0.0,0.0,0.0,0.0,0.0,0.0,0.0,0.0,0.0,0.0,0.0,0.0,0.0,0.0,0.0,0.0,0.0,0.0,0.0,0.0,0.0,0.0,0.0,0.0,0.0,0.0,0.0,0.0,0.0,0.0,0.0,0.0,0.0,0.0,0.0,0.0,0.0,0.0,0.0,0.0,0.0,0.0,0.0,0.0,0.0,0.0,0.0,0.0,0.0,0.0,0.0,0.0,0.0,0.0,0.0,0.0,0.0,0.0,0.0,0.0,0.0,0.0,0.0,0.0,0.0,0.0,0.0,0.0,0.0,0.0,0.0,0.0,0.0,0.0,0.0,0.0,0.0,0.0,0.0,0.0,0.0,0.0,0.0,0.0,-1.2602,-1.4426,-1.5497,-1.567,-1.3625,-1.229,0.0,0.0,0.0,0.0,0.0,0.0,0.0,0.0,0.0,0.0,0.0,0.0,0.0,0.0,0.0,0.0,0.0,0.0,0.0,0.0,0.0,0.0,0.0,0.0,0.0,0.0,0.0,0.0,0.0,0.0,0.0,0.0,0.0,0.0,0.0,0.0,0.0,0.0,0.0,0.0,0.0,0.0,0.0,0.0,0.0,0.0,0.0,0.0,0.0,0.0,0.0,0.0,0.0,0.0,0.0,0.0,0.0,0.0,0.0,0.0,0.0,0.0,0.0,0.0,0.0,0.0,0.0,0.0,0.0,0.0,0.0,0.0,0.0,0.0,0.0,0.0,0.0,0.0,0.0,0.0,0.0,0.0,0.0,0.0,0.0,0.0,0.0,0.0,0.0,0.0,0.0,0.0,0.0,0.0,0.0,0.0,0.0,0.0,0.0,0.0,0.0,0.0,0.0,0.0,0.0,0.0,0.0,0.0,0.0,-1.3494,-1.5301,-1.6368,-1.6506,-1.4314,-1.2993,-1.2686,0.0,0.0,0.0,0.0,0.0,0.0,0.0,0.0,0.0,0.0,0.0,0.0,0.0,0.0,0.0,0.0,0.0,0.0,0.0,0.0,0.0,0.0,0.0,0.0,0.0,0.0,0.0,0.0,0.0,0.0,0.0,0.0,0.0,0.0,0.0,0.0,0.0,0.0,0.0,0.0,0.0,0.0,0.0,0.0,0.0,0.0,0.0,0.0,0.0,0.0,0.0,0.0,0.0,0.0,0.0,0.0,0.0,0.0,0.0,0.0,0.0,0.0,0.0,0.0,0.0,0.0,0.0,0.0,0.0,0.0,0.0,0.0,0.0,0.0,0.0,0.0,0.0,0.0,0.0,0.0,0.0,0.0,0.0,0.0,0.0,0.0,0.0,0.0,0.0,0.0,0.0,0.0,0.0,0.0,0.0,0.0,0.0,0.0,0.0,0.0,0.0,0.0,0.0,0.0,0.0,0.0,0.0,0.0,-1.6137,-1.7411,-1.7633,-1.6797,-1.5227,-1.3608,0.0,0.0,0.0,0.0,0.0,0.0,0.0,0.0,0.0,0.0,0.0,0.0,0.0,0.0,0.0,0.0,0.0,0.0,0.0,0.0,0.0,0.0,0.0,0.0,0.0,0.0,0.0,0.0,0.0,0.0,0.0,0.0,0.0,0.0,0.0,0.0,0.0,0.0,0.0,0.0,0.0,0.0,0.0,0.0,0.0,0.0,0.0,0.0,0.0,0.0,0.0,0.0,0.0,0.0,0.0,0.0,0.0,0.0,0.0,0.0,0.0,0.0,0.0,0.0,0.0,0.0,0.0,0.0,0.0,0.0,0.0,0.0,0.0,0.0,0.0,0.0,0.0,0.0,0.0,0.0,0.0,0.0,0.0,0.0,0.0,0.0,0.0,0.0,0.0,0.0,0.0,0.0,0.0,0.0,0.0,0.0,0.0,0.0,0.0,0.0,0.0,0.0,0.0,0.0,0.0,0.0,0.0,0.0,0.0,-1.6677,-1.803,-1.8443,-1.7808,-1.6304,-1.4825,0.0,0.0,0.0,0.0,0.0,0.0,0.0,0.0,0.0,0.0,0.0,0.0,0.0,0.0,0.0,0.0,0.0,0.0,0.0,0.0,0.0,0.0,0.0,0.0,0.0,0.0,0.0,0.0,0.0,0.0,0.0,0.0,0.0,0.0,0.0,0.0,0.0,0.0,0.0,0.0,0.0,0.0,0.0,0.0,0.0,0.0,0.0,0.0,0.0,0.0,0.0,0.0,0.0,0.0,0.0,0.0,0.0,0.0,0.0,0.0,0.0,0.0,0.0,0.0,0.0,0.0,0.0,0.0,0.0,0.0,0.0,0.0,0.0,0.0,0.0,0.0,0.0,0.0,0.0,0.0,0.0,0.0,0.0,0.0,0.0,0.0,0.0,0.0,0.0,0.0,0.0,0.0,0.0,0.0,0.0,0.0,0.0,0.0,0.0,0.0,0.0,0.0,0.0,0.0,0.0,0.0,0.0,0.0,-1.5623,-1.733,-1.8545,-1.8983,-1.8531,-1.7479,-1.5873,0.0,0.0,0.0,0.0,0.0,0.0,0.0,0.0,0.0,0.0,0.0,0.0,0.0,0.0,0.0,0.0,0.0,0.0,0.0,0.0,0.0,0.0,0.0,0.0,0.0,0.0,0.0,0.0,0.0,0.0,0.0,0.0,0.0,0.0,0.0,0.0,0.0,0.0,0.0,0.0,0.0,0.0,0.0,0.0,0.0,0.0,0.0,0.0,0.0,0.0,0.0,0.0,0.0,0.0,0.0,0.0,0.0,0.0,0.0,0.0,0.0,0.0,0.0,0.0,0.0,0.0,0.0,0.0,0.0,0.0,0.0,0.0,0.0,0.0,0.0,0.0,0.0,0.0,0.0,0.0,0.0,0.0,0.0,0.0,0.0,0.0,0.0,0.0,0.0,0.0,0.0,0.0,0.0,0.0,0.0,0.0,0.0,0.0,0.0,0.0,0.0,0.0,0.0,0.0,0.0,0.0,0.0,0.0,-1.6234,-1.7888,-1.8919,-1.9291,-1.8995,-1.8442,-1.6764,0.0,0.0,0.0,0.0,0.0,0.0,0.0,0.0,0.0,0.0,0.0,0.0,0.0,0.0,0.0,0.0,0.0,0.0,0.0,0.0,0.0,0.0,0.0,0.0,0.0,0.0,0.0,0.0,0.0,0.0,0.0,0.0,0.0,0.0,0.0,0.0,0.0,0.0,0.0,0.0,0.0,0.0,0.0,0.0,0.0,0.0,0.0,0.0,0.0,0.0,0.0,0.0,0.0,0.0,0.0,0.0,0.0,0.0,0.0,0.0,0.0,0.0,0.0,0.0,0.0,0.0,0.0,0.0,0.0,0.0,0.0,0.0,0.0,0.0,0.0,0.0,0.0,0.0,0.0,0.0,0.0,0.0,0.0,0.0,0.0,0.0,0.0,0.0,0.0,0.0,0.0,0.0,0.0,0.0,0.0,0.0,0.0,0.0,0.0,0.0,0.0,0.0,0.0,0.0,0.0,0.0,0.0,0.0,-1.656,-1.7366,-1.8896,-1.9483,-1.902,-1.8055,-1.676,0.0,0.0,0.0,0.0,0.0,0.0,0.0,0.0,0.0,0.0,0.0,0.0,0.0,0.0,0.0,0.0,0.0,0.0,0.0,0.0,0.0,0.0,0.0,0.0,0.0,0.0,0.0,0.0,0.0,0.0,0.0,0.0,0.0,0.0,0.0,0.0,0.0,0.0,0.0,0.0,0.0,0.0,0.0,0.0,0.0,0.0,0.0,0.0,-1.0666,0.0,0.0,0.0,0.0,0.0,0.0,0.0,0.0,0.0,0.0,0.0,0.0,0.0,0.0,0.0,0.0,0.0,0.0,0.0,0.0,0.0,0.0,0.0,0.0,0.0,0.0,0.0,0.0,0.0,0.0,0.0,0.0,0.0,0.0,0.0,0.0,0.0,0.0,0.0,0.0,0.0,0.0,0.0,0.0,0.0,0.0,0.0,0.0,0.0,0.0,0.0,0.0,0.0,0.0,0.0,0.0,0.0,0.0,0.0,-1.7167,-1.7951,-1.9096,-1.9596,-1.9346,-1.8342,-1.6948,0.0,0.0,0.0,0.0,0.0,0.0,0.0,0.0,0.0,0.0,0.0,0.0,0.0,0.0,0.0,0.0,0.0,0.0,0.0,0.0,0.0,0.0,0.0,0.0,0.0,0.0,0.0,0.0,0.0,0.0,0.0,0.0,0.0,0.0,0.0,0.0,0.0,0.0,0.0,0.0,0.0,0.0,0.0,0.0,0.0,0.0,0.0,0.0,0.0,0.0,0.0,0.0,0.0,0.0,0.0,0.0,0.0,0.0,0.0,0.0,0.0,0.0,0.0,0.0,0.0,0.0,0.0,0.0,0.0,0.0,0.0,0.0,0.0,0.0,0.0,0.0,0.0,0.0,0.0,0.0,0.0,0.0,0.0,0.0,0.0,0.0,0.0,0.0,0.0,0.0,0.0,0.0,0.0,0.0,0.0,0.0,0.0,0.0,0.0,0.0,0.0,0.0,0.0,0.0,0.0,0.0,0.0,-1.5844,-1.7581,-1.8672,-1.9294,-1.9668,-1.9786,-1.8756,-1.7212,-1.5097,0.0,0.0,0.0,0.0,0.0,0.0,0.0,0.0,0.0,0.0,0.0,0.0,0.0,0.0,0.0,0.0,0.0,0.0,0.0,0.0,0.0,0.0,0.0,0.0,0.0,0.0,0.0,0.0,0.0,0.0,0.0,0.0,0.0,0.0,0.0,0.0,0.0,0.0,-0.9104,-1.0897,0.0,0.0,0.0,0.0,0.0,0.0,0.0,0.0,-1.2005,0.0,0.0,0.0,0.0,0.0,0.0,0.0,0.0,0.0,0.0,0.0,0.0,0.0,0.0,0.0,0.0,0.0,0.0,0.0,0.0,0.0,0.0,0.0,0.0,0.0,0.0,0.0,0.0,0.0,0.0,0.0,0.0,0.0,0.0,0.0,0.0,0.0,0.0,0.0,0.0,0.0,0.0,0.0,0.0,0.0,0.0,0.0,0.0,0.0,0.0,0.0,0.0,0.0,0.0,0.0,0.0,-1.4424,-1.5664,-1.694,-1.8269,-1.9158,-1.9656,-1.9747,-1.8756,-1.7375,-1.5605,0.0,0.0,0.0,0.0,0.0,0.0,0.0,0.0,0.0,0.0,0.0,0.0,0.0,0.0,0.0,0.0,0.0,0.0,0.0,0.0,0.0,0.0,0.0,0.0,0.0,0.0,0.0,0.0,0.0,0.0,0.0,0.0,0.0,0.0,0.0,0.0,0.0,0.0,0.0,-1.2456,-1.3433,0.0,0.0,0.0,0.0,0.0,0.0,0.0,0.0,-1.221,0.0,0.0,0.0,0.0,0.0,0.0,0.0,0.0,0.0,0.0,0.0,0.0,0.0,0.0,0.0,0.0,0.0,0.0,0.0,0.0,0.0,0.0,0.0,0.0,0.0,0.0,0.0,0.0,0.0,0.0,0.0,0.0,0.0,0.0,0.0,0.0,0.0,0.0,0.0,0.0,0.0,0.0,0.0,0.0,0.0,0.0,0.0,0.0,0.0,0.0,0.0,0.0,0.0,0.0,0.0,-1.4337,-1.6234,-1.7663,-1.8594,-1.9333,-1.9608,-1.9359,-1.803,-1.6685,0.0,0.0,0.0,0.0,0.0,0.0,0.0,0.0,0.0,0.0,0.0,0.0,0.0,0.0,0.0,0.0,0.0,0.0,0.0,0.0,0.0,0.0,0.0,0.0,0.0,0.0,0.0,0.0,0.0,0.0,0.0,0.0,0.0,0.0,0.0,0.0,0.0,0.0,0.0,0.0,-1.2805,-1.3609,-1.388,0.0,0.0,0.0,0.0,0.0,0.0,-1.3395,-1.3011,0.0,0.0,0.0,0.0,0.0,0.0,0.0,0.0,0.0,0.0,0.0,0.0,0.0,0.0,0.0,0.0,0.0,0.0,0.0,0.0,0.0,0.0,0.0,0.0,0.0,0.0,0.0,0.0,0.0,0.0,0.0,0.0,0.0,0.0,0.0,0.0,0.0,0.0,0.0,0.0,0.0,0.0,0.0,0.0,0.0,0.0,0.0,0.0,0.0,0.0,0.0,0.0,0.0,0.0,0.0,-1.3934,-1.6488,-1.8144,-1.882,-1.9421,-1.9509,-1.8995,-1.7591,-1.6183,0.0,0.0,0.0,0.0,0.0,0.0,0.0,0.0,0.0,0.0,0.0,0.0,0.0,0.0,0.0,0.0,0.0,0.0,0.0,0.0,0.0,0.0,0.0,0.0,0.0,0.0,0.0,0.0,0.0,0.0,0.0,0.0,0.0,0.0,0.0,0.0,0.0,0.0,0.0,0.0,0.0,-1.3683,-1.3729,-1.4299,0.0,0.0,0.0,0.0,-1.4827,-1.4339,0.0,0.0,0.0,0.0,0.0,0.0,0.0,0.0,0.0,0.0,0.0,0.0,0.0,0.0,0.0,0.0,0.0,0.0,0.0,0.0,0.0,0.0,0.0,0.0,0.0,0.0,0.0,0.0,0.0,0.0,0.0,0.0,0.0,0.0,0.0,0.0,0.0,0.0,0.0,0.0,0.0,0.0,0.0,0.0,0.0,0.0,0.0,0.0,0.0,0.0,0.0,0.0,0.0,0.0,0.0,0.0,-1.329,-1.5425,-1.7102,-1.8255,-1.917,-1.9432,-1.902,-1.8331,-1.6807,0.0,0.0,0.0,0.0,0.0,0.0,0.0,0.0,0.0,0.0,0.0,0.0,0.0,0.0,0.0,0.0,0.0,0.0,0.0,0.0,0.0,0.0,0.0,0.0,0.0,0.0,0.0,0.0,0.0,0.0,0.0,0.0,0.0,0.0,0.0,0.0,0.0,0.0,0.0,0.0,0.0,-1.4201,-1.423,-1.397,-1.3707,0.0,0.0,-1.4864,-1.4441,-1.4971,0.0,0.0,0.0,0.0,0.0,0.0,0.0,0.0,0.0,0.0,0.0,0.0,0.0,0.0,0.0,0.0,0.0,0.0,0.0,0.0,0.0,0.0,0.0,0.0,0.0,0.0,0.0,0.0,0.0,0.0,0.0,0.0,0.0,0.0,0.0,0.0,0.0,0.0,0.0,0.0,0.0,0.0,0.0,0.0,0.0,0.0,0.0,0.0,0.0,0.0,0.0,0.0,0.0,0.0,0.0,-1.1635,-1.3235,-1.5948,-1.7658,-1.8204,-1.8883,-1.9033,-1.8568,-1.74,-1.5781,0.0,0.0,0.0,0.0,0.0,0.0,0.0,0.0,0.0,0.0,0.0,0.0,0.0,0.0,0.0,0.0,0.0,0.0,0.0,0.0,0.0,0.0,0.0,0.0,0.0,0.0,0.0,0.0,0.0,0.0,0.0,0.0,0.0,0.0,0.0,0.0,0.0,0.0,0.0,0.0,0.0,0.0,-1.3848,-1.4164,0.0,0.0,0.0,-1.5298,-1.5963,0.0,0.0,0.0,0.0,0.0,0.0,0.0,0.0,0.0,0.0,0.0,0.0,0.0,0.0,0.0,0.0,0.0,0.0,0.0,0.0,0.0,0.0,0.0,0.0,0.0,0.0,0.0,0.0,0.0,0.0,0.0,0.0,0.0,0.0,0.0,0.0,0.0,0.0,0.0,0.0,0.0,0.0,0.0,0.0,0.0,0.0,0.0,0.0,0.0,0.0,0.0,0.0,0.0,0.0,0.0,0.0,0.0,-1.3223,-1.6362,-1.799,-1.8028,-1.8506,-1.8531,-1.8003,-1.6773,0.0,0.0,0.0,0.0,0.0,0.0,0.0,0.0,0.0,0.0,0.0,0.0,0.0,0.0,0.0,0.0,0.0,0.0,0.0,0.0,0.0,0.0,0.0,0.0,0.0,0.0,0.0,-0.6466,0.0,0.0,0.0,0.0,0.0,0.0,0.0,0.0,0.0,0.0,0.0,0.0,0.0,0.0,-1.3551,-1.3494,-1.4246,-1.4902,0.0,0.0,-1.549,-1.6443,-1.6105,-1.5648,0.0,0.0,0.0,0.0,0.0,0.0,0.0,0.0,0.0,0.0,0.0,0.0,0.0,0.0,0.0,0.0,0.0,0.0,0.0,0.0,0.0,0.0,0.0,0.0,0.0,0.0,0.0,0.0,0.0,0.0,0.0,0.0,0.0,0.0,0.0,0.0,0.0,0.0,0.0,0.0,0.0,0.0,0.0,0.0,0.0,0.0,0.0,0.0,0.0,0.0,0.0,0.0,0.0,0.0,0.0,-1.3248,-1.6007,-1.7461,-1.7473,-1.7978,-1.8003,-1.7473,-1.7348,-1.6015,0.0,0.0,0.0,0.0,0.0,0.0,0.0,0.0,0.0,0.0,0.0,0.0,0.0,0.0,0.0,0.0,0.0,0.0,0.0,0.0,0.0,0.0,0.0,0.0,0.0,0.0,0.0,0.0,0.0,0.0,0.0,0.0,0.0,0.0,0.0,0.0,0.0,0.0,0.0,0.0,0.0,-1.3523,-1.3506,-1.389,-1.4181,0.0,0.0,-1.5373,-1.456,-1.5175,-1.5397,-1.454,0.0,0.0,0.0,0.0,0.0,0.0,0.0,0.0,0.0,0.0,0.0,0.0,0.0,0.0,0.0,0.0,0.0,0.0,0.0,0.0,0.0,0.0,0.0,0.0,0.0,0.0,0.0,0.0,0.0,0.0,0.0,0.0,0.0,0.0,0.0,0.0,0.0,0.0,0.0,0.0,0.0,0.0,0.0,0.0,0.0,0.0,0.0,0.0,0.0,0.0,0.0,0.0,0.0,-1.2128,-1.321,-1.5969,-1.7398,-1.7388,-1.7589,-1.7589,-1.741,-1.7036,-1.5869,0.0,0.0,0.0,0.0,0.0,0.0,0.0,0.0,0.0,0.0,0.0,0.0,0.0,0.0,0.0,0.0,0.0,0.0,0.0,0.0,0.0,0.0,0.0,0.0,0.0,0.0,0.0,0.0,-0.708,-0.7222,-0.6881,0.0,0.0,0.0,0.0,0.0,0.0,0.0,0.0,0.0,0.0,-1.3691,-1.4219,-1.4434,0.0,0.0,-1.527,-1.5355,-1.5967,-1.5573,-1.5195,-1.5229,-1.4277,0.0,0.0,0.0,0.0,0.0,0.0,0.0,0.0,0.0,0.0,0.0,0.0,0.0,0.0,0.0,0.0,0.0,0.0,0.0,0.0,0.0,0.0,0.0,0.0,0.0,0.0,0.0,0.0,0.0,0.0,0.0,0.0,0.0,0.0,0.0,0.0,0.0,0.0,0.0,0.0,0.0,0.0,0.0,0.0,0.0,0.0,0.0,0.0,0.0,0.0,0.0,0.0,-1.2215,-1.3471,-1.5894,-1.7112,-1.7124,-1.7124,-1.7124,-1.7112,-1.6735,-1.5819,0.0,0.0,0.0,0.0,0.0,0.0,0.0,0.0,0.0,0.0,0.0,0.0,0.0,0.0,0.0,0.0,0.0,0.0,0.0,0.0,0.0,0.0,0.0,0.0,0.0,0.0,0.0,0.0,-0.6907,-0.7025,-0.6822,0.0,0.0,0.0,0.0,0.0,0.0,0.0,0.0,0.0,0.0,-1.4111,-1.4725,-1.4883,-1.5288,-1.611,-1.5521,-1.538,-1.6486,-1.5756,-1.517,-1.5476,0.0,0.0,0.0,0.0,0.0,0.0,0.0,0.0,0.0,0.0,0.0,0.0,0.0,0.0,0.0,0.0,0.0,0.0,0.0,0.0,0.0,0.0,0.0,0.0,0.0,0.0,0.0,0.0,0.0,0.0,-0.7685,0.0,0.0,0.0,0.0,0.0,0.0,0.0,0.0,0.0,0.0,0.0,0.0,0.0,0.0,0.0,0.0,0.0,0.0,0.0,0.0,0.0,0.0,-1.2407,-1.4065,-1.5693,-1.6525,-1.6538,-1.6525,-1.6538,-1.6538,-1.6513,-1.5982,-1.489,0.0,0.0,0.0,0.0,0.0,0.0,0.0,0.0,0.0,0.0,0.0,0.0,0.0,0.0,0.0,0.0,0.0,0.0,0.0,0.0,0.0,0.0,0.0,0.0,0.0,0.0,-0.5679,-0.596,-0.634,0.0,0.0,0.0,0.0,0.0,0.0,0.0,0.0,0.0,0.0,-1.3991,-1.4793,-1.4833,-1.5146,-1.5557,-1.6047,-1.5713,-1.541,-1.5488,-1.5429,-1.5268,0.0,0.0,0.0,0.0,0.0,0.0,0.0,0.0,0.0,0.0,0.0,0.0,0.0,0.0,0.0,0.0,0.0,0.0,0.0,0.0,0.0,0.0,0.0,0.0,0.0,0.0,0.0,-1.2153,-1.1057,0.0,0.0,0.0,0.0,0.0,0.0,0.0,0.0,0.0,0.0,0.0,-1.6953,-1.7998,0.0,0.0,0.0,0.0,0.0,0.0,0.0,0.0,0.0,0.0,0.0,0.0,-1.2784,-1.4097,-1.5701,-1.6513,-1.6513,-1.6513,-1.6513,-1.6513,-1.6513,-1.5831,-1.4412,0.0,0.0,0.0,0.0,0.0,0.0,0.0,0.0,0.0,0.0,0.0,0.0,0.0,0.0,0.0,0.0,0.0,0.0,0.0,0.0,0.0,0.0,0.0,0.0,0.0,-0.6458,0.0,0.0,0.0,0.0,0.0,0.0,0.0,0.0,0.0,0.0,0.0,-1.3175,-1.404,-1.4539,-1.5019,-1.5586,-1.5782,-1.6006,0.0,0.0,0.0,0.0,0.0,0.0,0.0,0.0,0.0,0.0,0.0,0.0,0.0,0.0,-1.5967,-1.4412,-1.3681,-1.3299,-1.332,0.0,0.0,0.0,0.0,0.0,0.0,0.0,0.0,0.0,0.0,0.0,0.0,0.0,0.0,-1.4086,0.0,-1.3011,0.0,0.0,0.0,0.0,0.0,0.0,0.0,0.0,-1.81,-1.9174,-1.9203,-2.0016,-1.9893,0.0,-1.8513,-1.7008,0.0,0.0,0.0,0.0,0.0,0.0,0.0,0.0,-1.3333,-1.4632,-1.5869,-1.6513,-1.6513,-1.6513,-1.6513,-1.6513,-1.6513,-1.5932,-1.4689,-1.3765,-1.2667,0.0,0.0,0.0,0.0,0.0,0.0,0.0,0.0,0.0,0.0,0.0,0.0,0.0,0.0,0.0,0.0,0.0,0.0,0.0,0.0,0.0,0.0,0.0,-0.656,0.0,0.0,0.0,0.0,0.0,0.0,0.0,0.0,0.0,-1.2064,-1.3027,-1.4131,-1.5126,-1.5371,-1.5664,-1.6221,0.0,0.0,0.0,0.0,0.0,0.0,0.0,-1.6143,-1.6279,-1.5997,-1.5703,-1.5644,-1.6006,-1.6393,-1.6658,0.0,0.0,-1.5547,-1.5049,-1.4795,-1.479,-1.4972,-1.4987,-1.4461,-1.4619,-1.4627,0.0,0.0,0.0,0.0,0.0,0.0,0.0,0.0,-1.5906,-1.5683,0.0,-1.5429,0.0,0.0,0.0,0.0,0.0,-1.6416,0.0,0.0,-2.0146,-2.1017,-2.1003,-2.1046,-2.1061,-2.1069,-2.1111,-2.0605,-1.9383,-1.5311,0.0,0.0,0.0,0.0,0.0,0.0,-1.4093,-1.5668,-1.6283,-1.6538,-1.6525,-1.6513,-1.6513,-1.6513,-1.6513,-1.6271,-1.5731,-1.5185,-1.4155,-1.2554,-1.1372,0.0,0.0,0.0,0.0,0.0,0.0,0.0,0.0,0.0,0.0,0.0,0.0,0.0,0.0,0.0,0.0,0.0,0.0,0.0,0.0,-0.6425,0.0,0.0,0.0,0.0,0.0,0.0,0.0,0.0,0.0,0.0,-1.314,-1.4404,-1.5586,-1.6056,0.0,0.0,0.0,0.0,-1.6934,-1.7363,-1.708,-1.695,-1.7393,-1.7432,-1.7275,-1.6843,0.0,0.0,-1.63,-1.6484,-1.6619,-1.6251,-1.6471,-1.6758,-1.7461,-1.7112,-1.6676,-1.6177,-1.6116,-1.6,-1.5614,-1.5786,-1.595,-2.2232,0.0,0.0,0.0,0.0,-2.0287,-2.0387,-2.0547,-2.0263,-1.9435,-1.8278,-1.8101,0.0,0.0,0.0,0.0,0.0,0.0,-1.9377,-1.9624,-2.1046,-2.1699,-2.175,-2.2142,-2.2359,-2.2323,-2.1975,-2.1448,-2.074,-1.8741,-1.6642,-1.4537,0.0,0.0,0.0,0.0,-1.5417,-1.6237,-1.6848,-1.7137,-1.7137,-1.6701,-1.6513,-1.6513,-1.6513,-1.6425,-1.6262,-1.5756,-1.5085,-1.4205,-1.2743,0.0,0.0,0.0,0.0,0.0,0.0,0.0,0.0,0.0,0.0,0.0,0.0,0.0,0.0,0.0,0.0,0.0,0.0,0.0,-0.7246,-0.7091,-0.7397,0.0,0.0,0.0,0.0,0.0,0.0,0.0,0.0,0.0,-1.5498,-1.5762,-1.6075,0.0,0.0,-1.6814,-1.7148,-1.7451,-1.7759,-1.8213,-1.8428,0.0,0.0,-1.8477,-1.8232,-1.8071,-1.7915,-1.7744,-1.749,-1.7559,-1.7598,-1.7461,-1.7525,-1.7637,-1.7754,-1.7076,-1.6521,-1.6482,-1.6457,-1.6409,-1.6348,-1.6471,-1.6512,-2.5203,-2.3243,-2.2693,-2.2724,-2.3135,-2.2991,-2.2982,-2.3023,-2.2728,-2.2073,-2.1248,-2.107,-2.0291,-1.9087,-1.8825,0.0,0.0,0.0,-2.1612,-2.1641,-2.2643,-2.3136,-2.3151,-2.3244,-2.3302,-2.3258,-2.2456,-2.1939,-2.164,-2.0325,-1.8888,-1.731,0.0,0.0,-1.5701,-1.6166,-1.6635,-1.7174,-1.7313,-1.7398,-1.7398,-1.6823,-1.6513,-1.6513,-1.6513,-1.6513,-1.65,-1.6195,-1.5768,-1.5223,-1.3853,-1.2454,0.0,0.0,0.0,0.0,0.0,0.0,0.0,0.0,0.0,0.0,0.0,-0.8525,0.0,0.0,0.0,0.0,-0.7307,-0.7853,-0.8511,-0.8796,0.0,0.0,0.0,0.0,0.0,0.0,0.0,-1.4746,-1.5439,-1.6172,-1.7077,-1.7139,-1.7187,-1.7418,-1.7603,-1.7852,-1.8105,0.0,-1.8603,-1.8857,-1.9121,-1.9277,-1.9277,-1.9072,-1.8802,-1.8627,-1.8393,-1.8184,-1.8027,-1.8008,-1.8008,-1.8008,-1.8008,-1.8008,-1.8008,-1.7402,-1.6965,-1.7171,-1.7171,-1.7106,-1.7204,-1.7204,-1.7213,-2.7257,-2.7125,-2.5871,-2.5254,-2.514,-2.4842,-2.4477,-2.4134,-2.3824,-2.3777,-2.3963,-2.3963,-2.3325,-2.2193,-2.1569,0.0,-2.2265,-2.3441,-2.3934,-2.3992,-2.4534,-2.4839,-2.4888,-2.4278,-2.3963,-2.3949,-2.2856,-2.2348,-2.2273,-2.0725,-1.9908,-1.9858,-1.8357,-1.7813,-1.8154,-1.7739,-1.7765,-1.8254,-1.7777,-1.7486,-1.7385,-1.681,-1.6513,-1.6513,-1.6513,-1.6513,-1.65,-1.645,-1.622,-1.5693,-1.4657,-1.338,-1.1789,0.0,0.0,0.0,0.0,0.0,0.0,0.0,0.0,0.0,0.0,0.0,0.0,0.0,0.0,0.0,-0.9632,0.0,-1.0059,-1.1047,0.0,0.0,0.0,-1.272,-1.3662,-1.4434,-1.5244,-1.6105,0.0,0.0,-1.7974,-1.8412,-1.8705,-1.8705,-1.9053,-1.9277,-1.9277,-1.9287,-1.9336,-1.9336,-1.9412,-1.9394,-1.9463,-1.9394,-1.9219,-1.8851,-1.8646,-1.8451,-1.8154,-1.8018,-1.8018,-1.8008,-1.8008,-1.8008,-1.8008,-1.7935,-1.8008,-1.7969,-1.7978,-1.7978,-1.7949,-1.7939,-1.792,-2.8625,-2.8593,-2.8284,-2.7557,-2.6609,-2.6509,-2.6113,-2.5523,-2.5455,-2.5095,-2.4592,-2.4631,-2.4471,-2.4128,-2.3954,-2.3998,-2.421,-2.4539,-2.4631,-2.4592,-2.4737,-2.4824,-2.4824,-2.4665,-2.4631,-2.4617,-2.3869,-2.3495,-2.3405,-2.1825,-2.1021,-2.0946,-1.9807,-1.8894,-1.8254,-1.8493,-1.8669,-1.8807,-1.8682,-1.8229,-1.741,-1.681,-1.6513,-1.6513,-1.6513,-1.6513,-1.65,-1.612,-1.5831,-1.5668,-1.4676,-1.3702,-1.2852,-1.1175,0.0,0.0,0.0,0.0,0.0,0.0,0.0,0.0,0.0,-1.1387,-0.8647,0.0,-1.1352,0.0,-1.0228,-1.0651,-1.1633,-1.1682,0.0,0.0,-1.3818,-1.426,-1.5761,-1.585,-1.6124,-1.6963,-1.7539,-1.8018,-1.8403,-1.9141,-1.9619,-1.9572,-1.9424,-1.9277,-1.9287,-1.957,-1.9766,-1.9795,-2.0039,-2.0292,-2.0253,-1.9971,-1.9717,-1.9629,-1.9036,-1.8568,-1.8471,-1.8178,-1.8008,-1.8008,-1.8008,-1.8008,-1.8008,-1.8008,-1.8008,-1.8008,-1.8008,-1.8008,-1.8008,-1.8008,-1.8008,-3.003,-3.0014,-2.9714,-2.9153,-2.8442,-2.8142,-2.7564,-2.6859,-2.6859,-2.6404,-2.5676,-2.5415,-2.527,-2.5255,-2.5255,-2.527,-2.5338,-2.5589,-2.572,-2.568,-2.5705,-2.5705,-2.5691,-2.5375,-2.527,-2.5295,-2.4631,-2.4057,-2.3537,-2.2383,-2.1578,-2.1077,-2.022,-1.951,-1.8957,-1.9221,-1.9346,-1.9346,-1.9121,-1.8481,-1.7461,-1.7074,-1.6785,-1.6513,-1.6513,-1.6513,-1.6522,-1.622,-1.5944,-1.5693,-1.4916,-1.4198,-1.3609,-1.2205,-1.1138,0.0,0.0,0.0,0.0,0.0,0.0,0.0,0.0,0.0,0.0,0.0,-1.2399,-1.1131,-1.181,-1.2601,-1.3364,-1.3721,-1.4377,-1.5527,-1.541,-1.5722,-1.6904,-1.6797,-1.7014,-1.7842,-1.811,-1.849,-1.9095,-1.9582,-1.999,-2.0176,-2.0048,-1.9891,-1.9873,-2.0068,-2.0205,-2.0225,-2.0449,-2.0615,-2.0615,-2.0361,-2.0137,-1.9922,-1.9485,-1.9114,-1.8919,-1.8539,-1.8256,-1.8271,-1.8135,-1.8008,-1.8008,-1.8008,-1.8008,-1.8008,-1.8008,-1.8008,-1.8008,-1.8008,-1.8008,-3.1182,-3.1135,-3.0559,-3.0346,-3.0275,-2.9635,-2.8801,-2.7889,-2.7864,-2.7444,-2.675,-2.617,-2.5934,-2.5934,-2.5908,-2.5948,-2.5977,-2.6544,-2.6794,-2.6794,-2.6794,-2.6794,-2.6791,-2.6184,-2.5934,-2.5879,-2.523,-2.4415,-2.3399,-2.2641,-2.1782,-2.0787,-2.0139,-1.9798,-1.9798,-1.9798,-1.9798,-1.9798,-1.9271,-1.8555,-1.7626,-1.7486,-1.7149,-1.666,-1.6538,-1.6513,-1.65,-1.6425,-1.6174,-1.5718,-1.5185,-1.467,-1.4217,-1.317,-1.2563,0.0,-1.2002,0.0,0.0,0.0,0.0,0.0,0.0,0.0,0.0,-1.349,-1.3145,-1.2256,-1.3831,-1.4946,-1.5031,-1.6096,-1.6789,-1.678,-1.6816,-1.695,-1.7402,-1.7461,-1.7764,-1.851,-1.8646,-1.8997,-1.9766,-1.9961,-2.0156,-2.0507,-2.0556,-2.0527,-2.0586,-2.0566,-2.0576,-2.0615,-2.0615,-2.0615,-2.0615,-2.0605,-2.0458,-2.0088,-1.9912,-1.9785,-1.9424,-1.8978,-1.8666,-1.8578,-1.8305,-1.8096,-1.8027,-1.8008,-1.8008,-1.8008,-1.8008,-1.8008,-1.8008,-1.8008,-1.8008,-3.1182,-3.1191,-3.1081,-3.1018,-3.1002,-3.0875,-2.9681,-2.7874,-2.761,-2.7233,-2.6806,-2.6689,-2.6631,-2.6591,-2.6617,-2.6617,-2.6605,-2.6721,-2.6794,-2.6794,-2.6794,-2.6794,-2.6806,-2.6689,-2.6617,-2.6588,-2.5923,-2.526,-2.4544,-2.3036,-2.1935,-2.125,-2.0283,-1.9798,-1.9798,0.0,0.0,0.0,-1.9271,-1.8895,-1.8694,-1.7863,-1.7348,-1.7212,-1.6773,0.0,-1.6488,-1.6074,-1.5827,-1.5693,-1.5166,0.0,0.0,0.0,0.0,0.0,0.0,0.0,0.0,0.0,0.0,0.0,-1.4935,-1.4722,-1.3578,-1.4473,-1.5045,-1.4842,-1.5468,-1.6043,-1.6392,-1.6606,-1.6872,-1.723,-1.7256,-1.7422,-1.7822,-1.7891,-1.8086,-1.8529,-1.8936,-1.9346,-1.9853,-2.0215,-2.0498,-2.0586,-2.0615,-2.0615,-2.0615,-2.0615,-2.0615,-2.0615,-2.0615,-2.0615,-2.0615,-2.0615,-2.0576,-2.0458,-2.0127,-1.9912,-1.9795,-1.9443,-1.9023,-1.8715,-1.8539,-1.8354,-1.8096,-1.8008,-1.8008,-1.8008,-1.8008,-1.8008,-1.8008,-1.8008,-1.8008,-3.225,0.0,-3.1871,-3.1729,0.0,-3.089,-2.991,-2.8875,-2.871,-2.8132,-2.7229,-2.6924,-2.6794,-2.6794,-2.6794,-2.6794,-2.6794,-2.6794,-2.6794,-2.6794,-2.6794,-2.6794,-2.6794,-2.6794,-2.6794,-2.6765,-2.617,-2.5535,-2.4901,-2.3474,-2.243,-2.1818,-2.0761,-2.0251,-2.0239,-1.9949,-1.9798,-1.9798,-1.9547,-1.9259,-1.8995,-1.8493,-1.794,-1.74,0.0,0.0,0.0,0.0,0.0,0.0,0.0,0.0,0.0,0.0,0.0,-1.4833,-1.4531,-1.4356,-1.4293,-1.4509,-1.5028,-1.5894,-1.6314,-1.6209,-1.5425,-1.6037,-1.6543,-1.6784,-1.7168,-1.7599,-1.8014,-1.7934,-1.7923,-1.8144,-1.7886,-1.7793,-1.7988,-1.8193,-1.8442,-1.8916,-1.9326,-1.9756,-2.0176,-2.0439,-2.0595,-2.0615,-2.0615,-2.0615,-2.0615,-2.0615,-2.0615,-2.0615,-2.0615,-2.0615,-2.0615,-2.0615,-2.0615,-2.0576,-2.0381,-2.0254,-2.0234,-1.9883,-1.9521,-1.9241,-1.89,-1.852,-1.8325,-1.813,-1.8008,-1.8008,-1.8008,-1.8008,-1.8008,-1.8008,-1.8008,-3.3293,-3.3261,-3.2703,-3.2481,-3.2382,-3.1067,-3.0411,-3.0251,0.0,0.0,0.0,-2.7171,-2.6922,-2.6794,-2.6794,-2.6794,-2.6794,-2.6794,-2.6794,-2.6794,-2.6794,-2.6794,-2.6794,-2.6794,-2.6794,-2.6779,-2.6286,-2.5688,-2.4952,-2.3897,-2.2987,-2.2254,-2.1232,-2.0629,-2.0515,-2.0037,-1.9798,-1.9798,-1.9798,-1.9572,-1.9158,-1.9058,-1.8569,-1.7689,-1.7511,-1.7162,-1.6685,-1.6538,-1.6287,-1.5869,-1.5844,-1.5844,-1.5844,-1.5844,-1.6045,-1.645,-1.6513,-1.6538,-1.6616,-1.6573,-1.6762,-1.7209,-1.7498,-1.7587,-1.742,-1.7407,-1.7576,-1.7979,-1.8401,-1.8777,-1.9115,-1.8947,-1.8821,-1.8811,-1.8337,-1.7998,-1.8037,-1.8354,-1.8744,-1.9238,-1.9639,-2.0078,-2.0527,-2.0595,-2.0615,-2.0615,-2.0615,-2.0615,-2.0615,-2.0615,-2.0615,-2.0615,-2.0615,-2.0615,-2.0615,-2.0615,-2.0615,-2.0605,-2.0595,-2.0615,-2.0556,-2.0273,-2.0019,-1.9816,-1.9221,-1.8773,-1.8588,-1.8256,-1.8027,-1.8008,-1.8008,-1.8008,-1.8008,-1.8008,-1.8008,-3.3293,-3.3293,-3.3198,-3.3151,-3.3151,-3.2909,-3.2365,-3.1457,-2.9668,-2.8456,-2.7695,-2.7608,-2.7275,-2.6794,-2.6794,-2.6794,-2.6794,-2.6794,-2.6794,0.0,-2.6794,-2.6794,-2.6794,-2.6794,-2.6794,-2.6779,-2.67,-2.6096,-2.5037,-2.4299,-2.3421,-2.2328,-2.1232,-2.0453,-1.9949,-1.9836,-1.9798,-1.9798,-1.9798,-1.9773,-1.9698,-1.9233,-1.8933,-1.8744,-1.7865,-1.736,-1.7285,-1.6773,-1.6463,-1.6409,-1.6387,-1.6375,-1.6375,-1.6375,-1.6434,-1.6488,-1.6513,-1.6691,-1.7053,-1.708,-1.7423,-1.8154,-1.8762,-1.8612,-1.7453,-1.7672,-1.7835,-1.7734,-1.8228,-1.8335,-1.8211,-1.8263,-1.8269,-1.8212,-1.8076,-1.8008,-1.8037,-1.8373,-1.8802,-1.9268,-1.9658,-2.0088,-2.0517,-2.0615,-2.0615,-2.0615,-2.0615,-2.0605,-2.0683,-2.0615,-2.0615,-2.0615,-2.0615,-2.0615,-2.0615,-2.0615,-2.0615,-2.0615,-2.0615,-2.0615,-2.0615,-2.0537,-2.0312,-1.999,-1.9531,-1.9102,-1.8715,-1.8256,-1.8076,-1.8027,-1.8008,-1.8008,-1.8008,-1.8008,-1.8008,-3.3293,-3.3293,-3.3293,-3.3293,-3.3266,-3.2753,-3.2176,-3.1478,-3.0279,-2.9348,-2.8725,-2.8405,-2.7897,-2.7289,-2.7302,-2.7099,-2.6794,-2.6794,-2.6794,-2.6794,-2.6794,-2.6794,-2.6794,-2.6794,-2.6794,-2.6779,-2.6447,-2.6029,-2.5481,-2.4874,-2.4138,-2.3228,-2.184,-2.0855,-2.0314,-1.9962,-1.9798,-1.9798,-1.9798,-1.9798,-1.9798,-1.9572,-1.9321,-1.8995,-1.8242,-1.77,-1.741,-1.6823,-1.6513,-1.6513,-1.6513,-1.6513,-1.6513,-1.6513,-1.6513,-1.6513,-1.681,-1.7077,-1.7305,-1.7775,-1.8105,-1.8321,-1.8906,-1.9141,-1.8688,-1.8931,-1.9137,-1.9242,-1.9715,-2.0098,-2.0214,-1.9616,-1.9164,-1.9154,-1.8462,-1.8105,-1.8359,-1.873,-1.9124,-1.958,-2.001,-2.038,-2.0586,-2.0615,-2.0615,-2.0615,-2.0605,-2.075,-2.1126,-2.0876,-2.0615,-2.0615,-2.0615,-2.0615,-2.0615,-2.0615,-2.0615,-2.0615,-2.0615,-2.0615,-2.0615,-2.0615,-2.0517,-2.0293,-1.9902,-1.9492,-1.9062,-1.8607,-1.832,-1.8037,-1.8008,-1.8008,-1.8008,-1.8008,-1.8008,-3.3293,-3.3293,-3.3293,-3.3293,-3.3214,-3.241,-3.1838,-3.1394,-3.094,-3.0411,-2.9784,-2.9174,-2.8463,-2.7739,-2.771,-2.7347,-2.6837,-2.6794,-2.6794,-2.6794,-2.6794,-2.6794,-2.6794,-2.6794,-2.6794,-2.6753,-2.6313,-2.6029,-2.5866,-2.5425,-2.4755,-2.383,-2.2298,-2.1245,-2.0704,-2.0087,-1.9798,-1.9798,-1.9798,-1.9798,-1.9798,-1.9798,-1.961,-1.9183,-1.8681,-1.8191,-1.7752,-1.7064,-1.6773,-1.6864,-1.6763,-1.6751,-1.6864,-1.6898,-1.6876,-1.6936,-1.7313,-1.7626,-1.779,-1.8534,-1.8882,-1.8565,-1.9115,-1.9575,-1.9815,-2.016,-2.0378,-2.0592,-2.0925,-2.1313,-2.1129,-2.0431,-1.9802,-1.9606,-1.8687,-1.8159,-1.8467,-1.8877,-1.9307,-1.9727,-2.0146,-2.0468,-2.0576,-2.0615,-2.0683,-2.0867,-2.0712,-2.0934,-2.1538,-2.1126,-2.0644,-2.0615,-2.0615,-2.0615,-2.0615,-2.0615,-2.0615,-2.0615,-2.0615,-2.0615,-2.0615,-2.0615,-2.0605,-2.0517,-2.0078,-1.9648,-1.9307,-1.8773,-1.8354,-1.8066,-1.8008,-1.8008,-1.8008,-1.8008,-1.8008,-3.3293,-3.3293,-3.3293,-3.3293,-3.324,-3.2753,-3.2272,-3.1823,-3.1423,-3.097,-3.0453,-2.9813,-2.8841,-2.7811,-2.7753,-2.7405,-2.6837,-2.6794,-2.6794,-2.6794,-2.6794,-2.6794,-2.6794,-2.6794,-2.6794,-2.6794,-2.67,-2.6394,-2.5975,-2.5811,-2.4956,-2.3334,-2.2066,-2.1242,-2.0717,-2.0138,-1.9811,-1.9798,-1.9798,-1.9798,-1.9798,-1.9798,-1.9786,-1.9736,-1.9196,-1.8907,-1.877,-1.7865,-1.7549,-1.7953,-1.7574,-1.7549,-1.7953,-1.8028,-1.8028,-1.8005,-1.8091,-1.8329,-1.882,-1.9384,-1.9608,-1.9527,-1.9934,-2.0185,-2.0046,-2.0884,-2.1105,-2.0694,-2.0861,-2.0715,-1.9497,-1.9309,-1.911,-1.8721,-1.8303,-1.8027,-1.8189,-1.8412,-1.8831,-1.9297,-1.9785,-2.0127,-2.0517,-2.0644,-2.0944,-2.1614,-2.1126,-2.1049,-2.169,-2.1165,-2.0683,-2.0644,-2.0605,-2.0615,-2.0615,-2.0615,-2.0615,-2.0615,-2.0615,-2.0615,-2.0615,-2.0615,-2.0615,-2.0537,-2.001,-1.9531,-1.917,-1.8672,-1.8164,-1.8057,-1.8008,-1.8008,-1.8008,-1.8008,-1.8008,-3.3293,-3.3293,-3.3293,-3.3293,-3.324,-3.2807,-3.2492,-3.2256,-3.1581,-3.1205,-3.0955,-3.044,-2.9682,-2.8826,-2.8812,-2.8275,-2.7347,-2.7318,-2.7128,-2.6808,-2.6794,-2.6794,-2.6794,-2.6794,-2.6794,-2.6794,-2.6794,-2.6674,-2.6326,-2.5743,-2.4982,-2.4181,-2.2737,-2.1857,-2.1609,-2.0765,-2.0339,-2.03,-1.9974,-1.9798,-1.9798,-1.9798,-1.9798,-1.9748,-1.9271,-1.9008,-1.8933,-1.8279,-1.7978,-1.8179,-1.799,-1.7965,-1.8191,-1.8204,-1.8204,-1.8229,-1.8494,-1.8883,-1.932,-1.9647,-1.9708,-1.9512,-2.0073,-2.0449,-2.0499,-2.1163,-2.153,-2.1507,-2.1639,-2.1463,-2.0912,-2.0516,-2.0117,-1.9824,-1.9507,-1.9181,-1.9039,-1.9142,-1.9364,-1.9615,-1.9805,-2.0078,-2.0565,-2.1011,-2.1614,-2.2209,-2.1842,-2.1642,-2.2285,-2.1423,-2.0905,-2.1126,-2.0944,-2.0605,-2.0615,-2.0615,-2.0615,-2.0615,-2.0615,-2.0615,-2.0615,-2.0615,-2.0615,-2.0615,-2.0243,-1.9746,-1.9355,-1.9072,-1.8672,-1.832,-1.8008,-1.8008,-1.8008,-1.8008,-1.8008,-3.3467,-3.3309,-3.3293,-3.3293,-3.3266,-3.2942,-3.2629,-3.2339,-3.1724,-3.1336,-3.1073,-3.0747,-3.0351,-2.99,-2.9711,-2.8899,-2.7811,-2.771,-2.7389,-2.6837,-2.6794,-2.6794,-2.6794,-2.6794,-2.6794,-2.6794,-2.6794,-2.6794,-2.6674,-2.5577,-2.5007,-2.4715,-2.3186,-2.2322,-2.2209,-2.1217,-2.0691,-2.0641,-2.01,-1.9798,-1.9798,-1.9798,-1.9798,-1.9761,-1.9421,-1.9208,-1.9196,-1.8719,-1.8505,-1.8631,-1.8518,-1.8481,-1.8631,-1.8643,-1.8643,-1.8668,-1.9007,-1.9333,-1.9631,-1.9747,-1.9809,-1.9786,-2.0362,-2.0838,-2.1182,-2.1621,-2.1995,-2.2255,-2.234,-2.2247,-2.1862,-2.142,-2.106,-2.0837,-2.0355,-1.9997,-1.9817,-1.9813,-1.9931,-2.0248,-2.0433,-2.0578,-2.1204,-2.1794,-2.2435,-2.3058,-2.2649,-2.2387,-2.2947,-2.2199,-2.1461,-2.1766,-2.128,-2.0905,-2.0683,-2.0615,-2.0615,-2.0615,-2.0615,-2.0615,-2.0615,-2.0615,-2.0615,-2.0605,-2.0527,-2.0194,-1.9453,-1.9189,-1.8896,-1.8291,-1.8008,-1.8008,-1.8008,-1.8008,-1.8008,-3.3878,-3.334,-3.3293,-3.3293,-3.3293,-3.324,-3.2753,-3.202,-3.1879,-3.1422,-3.0747,-3.0642,-3.0583,-3.0481,-2.9929,-2.8913,-2.784,-2.7753,-2.7391,-2.6823,-2.6794,-2.6794,-2.6794,-2.6794,-2.6794,-2.6794,-2.6794,-2.6794,-2.6712,-2.5577,-2.5007,-2.4882,-2.3238,-2.2347,-2.2209,-2.128,-2.0717,-2.0691,-2.0125,-1.9798,-1.9798,-1.9798,-1.9798,-1.9786,-1.9773,-1.9736,-1.9685,-1.9233,-1.9183,-1.9698,-1.9208,-1.9171,-1.9623,-1.9685,-1.966,-1.9685,-1.9723,-1.9761,-1.9786,-1.981,-2.0023,-2.055,-2.0966,-2.1414,-2.1882,-2.2307,-2.2592,-2.2678,-2.2659,-2.2285,-2.1514,-2.1388,-2.1008,-2.0484,-2.0226,-2.0194,-2.0107,-2.014,-2.0499,-2.1144,-2.1385,-2.1783,-2.27,-2.292,-2.3279,-2.3683,-2.3427,-2.3169,-2.3599,-2.3243,-2.2585,-2.2059,-2.1756,-2.1499,-2.0828,-2.0605,-2.0605,-2.0615,-2.0615,-2.0615,-2.0615,-2.0615,-2.0605,-2.0507,-2.0225,-1.9883,-1.9394,-1.8955,-1.852,-1.8139,-1.8037,-1.8008,-1.8008,-1.8008,-1.8008,-3.3514,-3.3293,-3.3293,-3.3293,-3.3293,-3.3293,-3.2931,-3.2339,-3.202,-3.1566,-3.1043,-3.0717,-3.0612,-3.0583,-3.0335,-2.9537,-2.8405,-2.8332,-2.7781,-2.6881,-2.6794,-2.6794,-2.6794,-2.6794,-2.6794,-2.6794,-2.6794,-2.6794,-2.6659,-2.5577,-2.5007,-2.4768,-2.3531,-2.2819,-2.2619,-2.1757,-2.1232,-2.1119,-2.0288,-1.9798,-1.9811,-1.9798,-1.9798,-1.9798,-1.9798,-1.9798,-1.9798,-1.9623,-1.961,-1.9798,-1.9584,-1.9597,-1.9773,-1.9798,-1.9798,-1.9798,-1.9798,-1.9798,-1.9836,-2.015,-2.0465,-2.0717,-2.1462,-2.1914,-2.2155,-2.2526,-2.28,-2.2739,-2.2708,-2.2451,-2.2254,-2.213,-2.1975,-2.1651,-2.1545,-2.1282,-2.0901,-2.0764,-2.0961,-2.1455,-2.1996,-2.279,-2.3453,-2.372,-2.4011,-2.4647,-2.4204,-2.3902,-2.3891,-2.35,-2.2957,-2.266,-2.2547,-2.2472,-2.2247,-2.1165,-2.0605,-2.0605,-2.0615,-2.0615,-2.0615,-2.0566,-2.0546,-2.0234,-1.9971,-1.9609,-1.9141,-1.8623,-1.8188,-1.8135,-1.8008,-1.8008,-1.8008,-1.8008,-1.8008,-3.3293,-3.3293,-3.3293,-3.3293,-3.3293,-3.3293,-3.2958,-3.2367,-3.2048,-3.1595,-3.1073,-3.0717,-3.0612,-3.0612,-3.0612,-3.0016,-2.9015,-2.8768,-2.7998,-2.6878,-2.6794,-2.6794,-2.6794,-2.6794,-2.6794,-2.6794,-2.6794,-2.6727,-2.642,-2.5495,-2.4922,-2.4652,-2.3619,-2.3095,-2.2945,-2.2209,-2.1757,-2.1556,-2.0639,-2.0087,-2.0062,-1.9886,-1.9798,-1.9798,-1.9798,-1.9798,-1.9798,-1.9798,-1.9798,-1.9798,-1.9798,-1.9798,-1.9798,-1.9798,-1.9798,-1.9798,-1.9798,-1.9886,-2.01,-2.0465,-2.0842,-2.1207,-2.1857,-2.2301,-2.2426,-2.2758,-2.2871,-2.2848,-2.283,-2.283,-2.2818,-2.2818,-2.2726,-2.2543,-2.2494,-2.2254,-2.1726,-2.1761,-2.2108,-2.2674,-2.332,-2.3967,-2.4348,-2.4456,-2.4743,-2.5229,-2.4791,-2.4516,-2.4409,-2.4131,-2.361,-2.3427,-2.3353,-2.3169,-2.2872,-2.2059,-2.1385,-2.128,-2.0828,-2.076,-2.0681,-2.0594,-2.0378,-2.0028,-1.9658,-1.9307,-1.8867,-1.833,-1.8105,-1.8027,-1.8008,-1.8008,-1.8008,-1.8008,-1.8008,-3.3293,-3.3293,-3.3293,-3.3293,-3.3293,-3.3293,-3.2738,-3.202,-3.1908,-3.1451,-3.0747,-3.0612,-3.0612,-3.0612,-3.0612,-3.0234,-2.9537,-2.9015,-2.81,-2.6968,-2.6808,-2.6794,-2.6794,-2.6794,-2.6794,-2.6794,-2.6794,-2.65,-2.6029,-2.5356,-2.4738,-2.4147,-2.3514,-2.3095,-2.3095,-2.2518,-2.2272,-2.2033,-2.1179,-2.0691,-2.0616,-2.0137,-1.9861,-1.9811,-1.9798,-1.9798,-1.9798,-1.9798,-1.9798,-1.9798,-1.9798,-1.9798,-1.9798,-1.9798,-1.9798,-1.9798,-1.9798,-2.0087,-2.0566,-2.0717,-2.1245,-2.1945,-2.2309,-2.2556,-2.2902,-2.304,-2.3078,-2.3047,-2.3078,-2.3078,-2.3078,-2.3078,-2.2957,-2.2751,-2.269,-2.2616,-2.2702,-2.3138,-2.3798,-2.4403,-2.4835,-2.5205,-2.5276,-2.5194,-2.5229,-2.5229,-2.5194,-2.5123,-2.5123,-2.4981,-2.4814,-2.4337,-2.412,-2.3975,-2.35,-2.2947,-2.2499,-2.201,-2.1413,-2.1068,-2.0916,-2.0815,-2.0484,-2.0136,-1.9551,-1.9157,-1.8643,-1.8174,-1.8076,-1.8008,-1.8008,-1.8008,-1.8008,-1.8008,-1.8008,-3.3293,-3.3293,-3.3293,-3.3293,-3.3293,-3.3293,-3.2769,-3.1936,-3.1908,-3.1422,-3.0717,-3.0612,-3.0612,-3.0612,-3.0598,-3.0234,-2.9595,-2.9363,-2.8609,-2.7534,-2.7012,-2.6794,-2.6794,-2.6794,-2.6794,-2.6794,-2.6794,-2.67,-2.6353,-2.5495,-2.4879,-2.4567,-2.3619,-2.3125,-2.31,-2.2581,-2.2322,-2.2221,-2.1606,-2.1106,-2.0742,-2.0515,-2.0213,-1.9849,-1.9798,-1.9798,-1.9798,-1.9798,-1.9798,-1.9798,-1.9798,-1.9798,-1.9798,-1.9798,-1.9798,-1.9798,-1.9798,-2.0088,-2.0641,-2.1069,-2.1543,-2.2209,-2.2619,-2.2882,-2.307,-2.3095,-2.3095,-2.3095,-2.3095,-2.3095,-2.3095,-2.3095,-2.3017,-2.2848,-2.2739,-2.2757,-2.2911,-2.3431,-2.4013,-2.4546,-2.5126,-2.5417,-2.5382,-2.537,-2.5418,-2.5312,-2.5312,-2.5312,-2.5312,-2.5312,-2.5276,-2.4981,-2.4898,-2.4743,-2.4348,-2.395,-2.3537,-2.301,-2.2387,-2.1714,-2.148,-2.1024,-2.0684,-2.0185,-1.9583,-1.9067,-1.8478,-1.8213,-1.8173,-1.8042,-1.8042,-1.8042,-1.8008,-1.8008,-1.8008,-3.3293,-3.3293,-3.3293,-3.3293,-3.3293,-3.3293,-3.2753,-3.1964,-3.1908,-3.1378,-3.0717,-3.0612,-3.0612,-3.0612,-3.0612,-3.038,-2.9972,-2.9726,-2.9073,-2.8072,-2.7432,-2.7041,-2.6837,-2.6794,-2.6794,-2.6794,-2.6794,-2.6674,-2.642,-2.5729,-2.5217,-2.4838,-2.3959,-2.3484,-2.3399,-2.293,-2.2594,-2.2518,-2.2071,-2.1518,-2.1069,-2.0792,-2.0427,-1.9899,-1.9798,-1.9798,-1.9798,-1.9798,-1.9798,-1.9798,-1.9798,-1.9798,-1.9798,-1.9798,-1.9798,-1.9836,-2.0049,-2.0415,-2.0968,-2.1506,-2.2033,-2.256,-2.2907,-2.3095,-2.3095,-2.3095,-2.3095,-2.3095,-2.3095,-2.3095,-2.3095,-2.3095,-2.306,-2.2987,-2.3059,-2.3207,-2.3538,-2.4067,-2.4511,-2.4931,-2.5341,-2.5464,-2.5382,-2.5382,-2.5453,-2.5312,-2.5312,-2.5312,-2.5312,-2.5312,-2.5312,-2.5312,-2.5206,-2.5158,-2.5206,-2.4945,-2.46,-2.4047,-2.3463,-2.2807,-2.2333,-2.1573,-2.1034,-2.039,-1.9815,-1.9391,-1.8879,-1.8623,-1.8496,-1.8337,-1.8269,-1.8202,-1.8236,-1.8066,-1.8042,-3.3293,-3.3293,-3.3293,-3.3293,-3.3293,-3.3293,-3.2753,-3.1992,-3.1908,-3.1437,-3.0747,-3.0612,-3.0612,-3.0612,-3.0612,-3.0554,-3.0496,-3.0001,-2.9348,-2.8637,-2.8013,-2.7461,-2.6893,-2.6794,-2.6794,-2.6794,-2.6794,-2.6541,-2.6179,-2.5921,-2.5605,-2.5063,-2.4423,-2.4073,-2.3884,-2.3399,-2.3032,-2.2945,-2.2506,-2.1995,-2.1471,-2.0968,-2.0415,-1.9836,-1.9798,-1.9798,-1.9798,-1.9798,-1.9798,-1.9798,-1.9798,-1.9798,-1.9798,-1.9798,-1.9798,-1.9823,-2.0339,-2.083,-2.1405,-2.1794,-2.2368,-2.2932,-2.3045,-2.3095,-2.3095,-2.3095,-2.3095,-2.3095,-2.3095,-2.3095,-2.3095,-2.3095,-2.3133,-2.3203,-2.3443,-2.3944,-2.4853,-2.5004,-2.5132,-2.5422,-2.5571,-2.5571,-2.5418,-2.5418,-2.5418,-2.5335,-2.5347,-2.5347,-2.5312,-2.5312,-2.5312,-2.5312,-2.5312,-2.5276,-2.5276,-2.5241,-2.4898,-2.4707,-2.4241,-2.3777,-2.3145,-2.233,-2.1228,-2.0554,-2.0227,-1.9791,-1.9408,-1.9187,-1.9088,-1.9054,-1.8921,-1.8654,-1.8563,-1.8596,-1.8395,-3.3293,-3.3293,-3.3293,-3.3293,-3.3293,-3.3293,-3.2769,-3.1964,-3.1908,-3.1437,-3.0747,-3.0612,-3.0612,-3.0612,-3.0612,-3.0612,-3.0539,-3.0423,-2.9682,-2.8782,-2.8536,-2.7808,-2.7009,-2.6794,-2.6794,-2.6794,-2.6794,-2.6727,-2.6541,-2.6152,-2.5852,-2.5619,-2.4624,-2.4131,-2.4015,-2.3454,-2.3125,-2.3032,-2.2569,-2.2071,-2.1518,-2.1006,-2.0415,-1.9861,-1.9811,-1.9798,-1.9798,-1.9798,-1.9798,-1.9798,-1.9798,-1.9798,-1.9798,-1.9798,-1.9798,-1.9849,-1.9987,-2.0515,-2.1292,-2.1644,-2.2159,-2.297,-2.3095,-2.3095,-2.3095,-2.3095,-2.3095,-2.3095,-2.3095,-2.3095,-2.3095,-2.3095,-2.324,-2.3505,-2.3773,-2.4156,-2.4637,-2.5031,-2.533,-2.5566,-2.5863,-2.5875,-2.5793,-2.5793,-2.577,-2.5571,-2.5488,-2.5418,-2.5347,-2.5312,-2.5312,-2.5312,-2.5312,-2.5312,-2.5312,-2.5312,-2.5241,-2.5194,-2.4933,-2.4673,-2.3967,-2.3195,-2.1831,-2.0619,-2.0841,-2.0592,-2.0161,-1.9846,-1.9813,-1.9802,-1.9639,-1.9452,-1.9573,-1.9639,-1.9243,-3.3293,-3.3293,-3.3293,-3.3293,-3.3293,-3.3293,-3.2769,-3.202,-3.1879,-3.1393,-3.0747,-3.0612,-3.0612,-3.0612,-3.0612,-3.0612,-3.0612,-3.0612,-2.9886,-2.8752,-2.8113,-2.7459,-2.6895,-2.6794,-2.6794,-2.6794,-2.6794,-2.6794,-2.6727,-2.6447,-2.6313,-2.6056,-2.5077,-2.4509,-2.4436,-2.3531,-2.3095,-2.3045,-2.2757,-2.2355,-2.1845,-2.132,-2.0779,-2.0225,-1.9974,-1.9798,-1.9798,-1.9798,-1.9798,-1.9798,-1.9798,-1.9798,-1.9798,-1.9798,-1.9798,-1.9811,-2.0038,-2.0616,-2.1317,-2.171,-2.2234,-2.2895,-2.3095,-2.3095,-2.3095,-2.3095,-2.3095,-2.3095,-2.3095,-2.3095,-2.3095,-2.3095,-2.3292,-2.3648,-2.4066,-2.4412,-2.473,-2.5354,-2.5623,-2.5812,-2.598,-2.6131,-2.5945,-2.5957,-2.584,-2.5641,-2.55,-2.5418,-2.5312,-2.5312,-2.5312,-2.5312,-2.5312,-2.5312,-2.5312,-2.5312,-2.5312,-2.5276,-2.524,-2.5095,-2.4362,-2.364,-2.2651,-2.1541,-2.1559,-2.1368,-2.088,-2.0528,-2.0516,-2.0452,-2.0323,-2.0302,-2.0387,-2.042,-2.0063,-3.3293,-3.3293,-3.3293,-3.3293,-3.3293,-3.3266,-3.2769,-3.1992,-3.1908,-3.1393,-3.0747,-3.0612,-3.0612,-3.0612,-3.0612,-3.0612,-3.0598,-3.0467,-2.9624,-2.8534,-2.7576,-2.6837,-2.6837,-2.6794,-2.6794,-2.6794,-2.6794,-2.6794,-2.6779,-2.6753,-2.6753,-2.642,-2.5536,-2.5035,-2.4652,-2.3738,-2.3155,-2.3083,-2.292,-2.2619,-2.2133,-2.1568,-2.1006,-2.0603,-2.0037,-1.9823,-1.9798,-1.9798,-1.9798,-1.9798,-1.9798,-1.9798,-1.9811,-1.9823,-1.9849,-1.9911,-2.0327,-2.088,-2.1458,-2.1882,-2.2418,-2.2945,-2.3095,-2.3095,-2.3095,-2.3095,-2.3095,-2.3095,-2.3095,-2.3095,-2.3095,-2.3095,-2.3235,-2.358,-2.421,-2.4726,-2.5082,-2.5723,-2.6154,-2.5968,-2.6097,-2.6131,-2.598,-2.5816,-2.5711,-2.5875,-2.5723,-2.5641,-2.5535,-2.5453,-2.5418,-2.5382,-2.5347,-2.5312,-2.5312,-2.5312,-2.5312,-2.5312,-2.5276,-2.5071,-2.4275,-2.3613,-2.3099,-2.2583,-2.2048,-2.1694,-2.1431,-2.123,-2.1187,-2.1155,-2.1071,-2.104,-2.104,-2.0976,-2.0741,-3.3293,-3.3293,-3.3293,-3.3293,-3.3293,-3.3266,-3.2753,-3.1908,-3.1908,-3.1393,-3.0747,-3.0612,-3.0612,-3.0612,-3.0612,-3.0612,-3.051,-3.0045,-2.9145,-2.7955,-2.7186,-2.6823,-2.6794,-2.6794,-2.6794,-2.6794,-2.6794,-2.6794,-2.6794,-2.6794,-2.6794,-2.6621,-2.5674,-2.5007,-2.4809,-2.3783,-2.3095,-2.3032,-2.2732,-2.2506,-2.2246,-2.1496,-2.0943,-2.0704,-2.015,-1.9861,-1.9811,-1.9798,-1.9798,-1.9798,-1.9798,-1.9811,-1.9911,-2.0225,-2.0289,-2.0125,-2.0427,-2.0955,-2.1433,-2.1719,-2.2108,-2.2957,-2.3095,-2.3095,-2.3095,-2.3095,-2.3095,-2.3095,-2.3095,-2.3095,-2.3095,-2.3095,-2.3153,-2.3391,-2.3847,-2.4236,-2.4448,-2.5532,-2.6189,-2.6198,-2.628,-2.6418,-2.6349,-2.628,-2.6176,-2.6097,-2.598,-2.591,-2.5758,-2.5571,-2.5488,-2.5418,-2.5347,-2.5312,-2.5312,-2.5312,-2.5312,-2.5312,-2.5312,-2.4963,-2.4179,-2.3685,-2.3252,-2.2739,-2.2238,-2.1956,-2.1726,-2.1819,-2.1757,-2.1788,-2.1757,-2.1694,-2.16,-2.1569,-2.1431,-3.3293,-3.3293,-3.3293,-3.3293,-3.3293,-3.3266,-3.2753,-3.202,-3.1908,-3.1393,-3.0747,-3.0612,-3.0612,-3.0612,-3.0612,-3.0612,-3.0365,-2.9581,-2.8681,-2.7739,-2.7099,-2.6808,-2.6794,-2.6794,-2.6794,-2.6794,-2.6794,-2.6794,-2.6794,-2.6794,-2.6794,-2.67,-2.5605,-2.5063,-2.4809,-2.3783,-2.3155,-2.307,-2.2844,-2.2669,-2.2518,-2.1907,-2.1282,-2.1031,-2.0578,-2.03,-2.0616,-2.0338,-2.0264,-2.0137,-1.9974,-1.9962,-2.0214,-2.0528,-2.0616,-2.0729,-2.0867,-2.1317,-2.1719,-2.192,-2.2259,-2.302,-2.3095,-2.3095,-2.3095,-2.3095,-2.3095,-2.3095,-2.3095,-2.3095,-2.3095,-2.3095,-2.3095,-2.3208,-2.364,-2.3966,-2.4217,-2.5222,-2.6063,-2.6036,-2.6208,-2.6402,-2.6487,-2.6377,-2.6361,-2.6119,-2.584,-2.5758,-2.5676,-2.55,-2.5418,-2.5382,-2.5312,-2.5312,-2.5312,-2.5312,-2.5312,-2.5312,-2.5312,-2.4783,-2.4059,-2.371,-2.3433,-2.2811,-2.2197,-2.2197,-2.2061,-2.2197,-2.2197,-2.2061,-2.203,-2.2123,-2.2092,-2.1831,-2.1757,-3.3293,-3.3293,-3.3293,-3.3293,-3.3293,-3.3282,-3.2753,-3.1964,-3.1908,-3.1393,-3.0717,-3.0612,-3.0612,-3.0612,-3.0612,-3.0539,-3.0016,-2.9319,-2.8332,-2.7476,-2.7026,-2.6808,-2.6794,-2.6794,-2.6794,-2.6794,-2.6794,-2.6794,-2.6794,-2.6794,-2.6794,-2.6606,-2.5715,-2.5273,-2.4908,-2.4076,-2.3454,-2.3369,-2.3314,-2.314,-2.2975,-2.2498,-2.1945,-2.1418,-2.1094,-2.0981,-2.1182,-2.1031,-2.0805,-2.0792,-2.0326,-2.0426,-2.0767,-2.0867,-2.0993,-2.1443,-2.1518,-2.1807,-2.2108,-2.2255,-2.2481,-2.3032,-2.3095,-2.3095,-2.3095,-2.3095,-2.3095,-2.3095,-2.3095,-2.3095,-2.3095,-2.3095,-2.3095,-2.317,-2.359,-2.3828,-2.4042,-2.4757,-2.5234,-2.5536,-2.5724,-2.5875,-2.6101,-2.6108,-2.6155,-2.6164,-2.5838,-2.5652,-2.5592,-2.5499,-2.5405,-2.5406,-2.5382,-2.5312,-2.5312,-2.5276,-2.5288,-2.5252,-2.5264,-2.4638,-2.4011,-2.3794,-2.3445,-2.2654,-2.2197,-2.2197,-2.2197,-2.2197,-2.2197,-2.2197,-2.2135,-2.2092,-2.2061,-2.203,-2.1862,-3.3293,-3.3293,-3.3293,-3.3293,-3.3293,-3.3293,-3.2753,-3.1992,-3.1879,-3.1393,-3.0657,-3.0612,-3.0612,-3.0612,-3.0612,-3.006,-2.9305,-2.8752,-2.8099,-2.7186,-2.6823,-2.6794,-2.6794,-2.6794,-2.6794,-2.6794,-2.6794,-2.6794,-2.6794,-2.6794,-2.6794,-2.6647,-2.6056,-2.5688,-2.5508,-2.5007,-2.425,-2.3868,-2.3809,-2.3603,-2.3072,-2.2569,-2.2159,-2.1669,-2.1496,-2.1481,-2.1493,-2.1455,-2.1383,-2.1343,-2.1242,-2.1481,-2.1707,-2.1556,-2.1468,-2.1656,-2.1983,-2.2243,-2.2385,-2.2343,-2.2581,-2.2945,-2.3095,-2.3095,-2.3095,-2.3095,-2.3095,-2.3095,-2.3095,-2.3095,-2.3095,-2.3095,-2.3095,-2.3145,-2.3195,-2.3321,-2.3434,-2.3873,-2.4449,-2.4782,-2.5021,-2.531,-2.554,-2.5753,-2.5774,-2.5806,-2.5698,-2.5654,-2.5667,-2.5558,-2.5448,-2.5451,-2.55,-2.5382,-2.5312,-2.5264,-2.5228,-2.5143,-2.5023,-2.4554,-2.4083,-2.389,-2.3421,-2.257,-2.2197,-2.2197,-2.2197,-2.2197,-2.2197,-2.2197,-2.2092,-2.1968,-2.1726,-2.1463,-2.104,-3.3293,-3.3293,-3.3293,-3.3293,-3.324,-3.3038,-3.2547,-3.1936,-3.168,-3.1234,-3.0747,-3.0612,-3.0612,-3.0612,-3.0612,-2.99,-2.897,-2.868,-2.7968,-2.7012,-2.6794,-2.6794,-2.6794,-2.6794,-2.6794,-2.6794,-2.6794,-2.6794,-2.6794,-2.6794,-2.6794,-2.6647,-2.6206,-2.5893,-2.5784,-2.5245,-2.4709,-2.4263,-2.4073,-2.378,-2.3118,-2.2581,-2.2272,-2.2309,-2.2071,-2.2071,-2.223,-2.2008,-2.1933,-2.1857,-2.1659,-2.1832,-2.2058,-2.2133,-2.2033,-2.2284,-2.2531,-2.2694,-2.2694,-2.2719,-2.2857,-2.3032,-2.3095,-2.3095,-2.3095,-2.3095,-2.3095,-2.3095,-2.3095,-2.3095,-2.3095,-2.3095,-2.3095,-2.3095,-2.3095,-2.3095,-2.3158,-2.3396,-2.3697,-2.4073,-2.4525,-2.4883,-2.5084,-2.5227,-2.536,-2.5407,-2.5457,-2.5507,-2.5624,-2.5358,-2.5115,-2.517,-2.5149,-2.5153,-2.5035,-2.4939,-2.4915,-2.4879,-2.4723,-2.4254,-2.389,-2.3577,-2.3095,-2.239,-2.2221,-2.2197,-2.2197,-2.2197,-2.2197,-2.2123,-2.1831,-2.1537,-2.1198,-2.0837,-2.042,-3.3293,-3.3293,-3.3293,-3.3293,-3.3214,-3.2792,-3.2339,-3.1879,-3.1466,-3.1043,-3.0642,-3.0612,-3.0612,-3.0612,-3.0467,-2.9929,-2.8767,-2.8694,-2.7968,-2.6997,-2.6794,-2.6794,-2.6794,-2.6794,-2.6794,-2.6794,-2.6794,-2.6794,-2.6794,-2.6794,-2.6794,-2.67,-2.6272,-2.6098,-2.6002,-2.5591,-2.4879,-2.4423,-2.4131,-2.3763,-2.3161,-2.2719,-2.2644,-2.3045,-2.2698,-2.2644,-2.2882,-2.2656,-2.2498,-2.2372,-2.2184,-2.2058,-2.2385,-2.2472,-2.2644,-2.3007,-2.3095,-2.3095,-2.3083,-2.307,-2.3032,-2.3095,-2.3095,-2.3095,-2.3095,-2.3095,-2.3095,-2.3095,-2.3095,-2.3095,-2.3095,-2.3095,-2.3095,-2.3095,-2.3095,-2.3095,-2.3095,-2.317,-2.3195,-2.3609,-2.4111,-2.4387,-2.4582,-2.4695,-2.4795,-2.5018,-2.507,-2.5033,-2.5045,-2.4649,-2.4493,-2.4636,-2.4703,-2.4804,-2.4687,-2.4458,-2.441,-2.4362,-2.4194,-2.389,-2.3493,-2.3119,-2.2662,-2.2294,-2.2221,-2.2197,-2.2197,-2.2197,-2.2197,-2.1999,-2.1494,-2.1071,-2.0741,-2.0215,-1.9694,-3.3293,-3.3293,-3.3266,-3.3293,-3.3187,-3.2753,-3.2312,-3.1851,-3.1437,-3.1058,-3.0612,-3.0612,-3.0612,-3.0598,-3.0569,-2.9842,-2.9014,-2.8534,-2.7939,-2.691,-2.6794,-2.6794,-2.6794,-2.6794,-2.6794,-2.6794,-2.6794,-2.6794,-2.6794,-2.6794,-2.6794,-2.6727,-2.67,-2.6647,-2.65,-2.6056,-2.5481,-2.4908,-2.435,-2.375,-2.3203,-2.3007,-2.302,-2.3045,-2.3007,-2.297,-2.3083,-2.2957,-2.2932,-2.2932,-2.2907,-2.292,-2.3007,-2.3007,-2.302,-2.3083,-2.3095,-2.3095,-2.3095,-2.3095,-2.3095,-2.3095,-2.3095,-2.3095,-2.3095,-2.3095,-2.3095,-2.3095,-2.3095,-2.3095,-2.3095,-2.3095,-2.3095,-2.3095,-2.3095,-2.3095,-2.3095,-2.3095,-2.3095,-2.312,-2.3622,-2.381,-2.4004,-2.4117,-2.4255,-2.4473,-2.4678,-2.4603,-2.4469,-2.4111,-2.3875,-2.4032,-2.4256,-2.4348,-2.4278,-2.4061,-2.3893,-2.3845,-2.3592,-2.3421,-2.3107,-2.277,-2.2674,-2.2378,-2.227,-2.2197,-2.2197,-2.2197,-2.2197,-2.1925,-2.1526,-2.0912,-2.0302,-1.9737,-1.9309,-3.2672,-3.2904,-3.2617,-3.2508,-3.2453,-3.2048,-3.1752,-3.1495,-3.1102,-3.0777,-3.0642,-3.0612,-3.0612,-3.0539,-3.0248,-2.9537,-2.8753,-2.8332,-2.7679,-2.6968,-2.6794,-2.6794,-2.6794,-2.6794,-2.6794,-2.6794,-2.6794,-2.6794,-2.6794,-2.6794,-2.6794,-2.6794,-2.6794,-2.6753,-2.6779,-2.6541,-2.5852,-2.5021,-2.4076,-2.3424,-2.3155,-2.3095,-2.3095,-2.3095,-2.3095,-2.3095,-2.3095,-2.3095,-2.3095,-2.3095,-2.3095,-2.3095,-2.3095,-2.3095,-2.3095,-2.3095,-2.3095,-2.3095,-2.3095,-2.3095,-2.3095,-2.3095,-2.3095,-2.3095,-2.3095,-2.3095,-2.3095,-2.3095,-2.3095,-2.3095,-2.3095,-2.3095,-2.3095,-2.3095,-2.3095,-2.3095,-2.3095,-2.3095,-2.3095,-2.3095,-2.312,-2.3358,-2.3534,-2.3584,-2.369,-2.3797,-2.3873,-2.381,-2.3804,-2.3702,-2.3489,-2.3377,-2.3658,-2.3926,-2.3818,-2.3616,-2.3388,-2.3244,-2.2907,-2.2727,-2.265,-2.2457,-2.239,-2.2354,-2.2246,-2.2197,-2.2197,-2.2197,-2.2197,-2.1925,-2.16,-2.104,-2.0484,-2.0139,-1.9737,-3.1964,-3.2244,-3.1992,-3.1908,-3.1851,-3.1466,-3.1188,-3.0996,-3.0748,-3.051,-3.0438,-3.0496,-3.0539,-3.0277,-2.9813,-2.9189,-2.8405,-2.7913,-2.7374,-2.6968,-2.6794,-2.6794,-2.6794,-2.6794,-2.6794,-2.6794,-2.6794,-2.6794,-2.6794,-2.6794,-2.6794,-2.6794,-2.6794,-2.6794,-2.6753,-2.65,-2.5934,-2.5007,-2.4208,-2.3666,-2.3454,-2.3407,-2.3258,-2.3168,-2.3095,-2.3095,-2.3095,-2.3095,-2.3095,-2.3095,-2.3095,-2.3095,-2.3095,-2.3095,-2.3095,-2.3095,-2.3095,-2.3095,-2.3095,-2.3095,-2.3095,-2.3095,-2.3095,-2.3095,-2.3095,-2.3095,-2.3095,-2.3095,-2.3095,-2.3095,-2.3095,-2.3095,-2.3095,-2.3095,-2.3095,-2.3095,-2.3095,-2.3095,-2.3095,-2.3095,-2.3095,-2.3095,-2.3208,-2.3158,-2.3145,-2.3133,-2.3108,-2.3078,-2.3156,-2.3275,-2.31,-2.295,-2.2995,-2.3228,-2.3135,-2.3015,-2.2835,-2.2751,-2.2414,-2.227,-2.2306,-2.2294,-2.2258,-2.2221,-2.2197,-2.2197,-2.2197,-2.2197,-2.2166,-2.1925,-2.1694,-2.1293,-2.0869,-2.0484,-2.0172,-3.1365,-3.1423,-3.1722,-3.1836,-3.1807,-3.1481,-3.0935,-3.0522,-3.0543,-3.0234,-2.9987,-3.0248,-3.0263,-2.9798,-2.9508,-2.887,-2.7797,-2.7724,-2.7302,-2.6939,-2.6794,-2.6794,-2.6794,-2.6794,-2.6794,-2.6794,-2.6794,-2.6794,-2.6794,-2.6794,-2.6794,-2.6794,-2.6794,-2.6794,-2.6647,-2.6313,-2.5852,-2.5189,-2.4696,-2.441,-2.4147,-2.3985,-2.375,-2.3288,-2.3138,-2.3095,-2.3095,-2.3095,-2.3095,-2.3095,-2.3095,-2.3095,-2.3095,-2.3095,-2.3095,-2.3095,-2.3095,-2.3095,-2.3095,-2.3095,-2.3095,-2.3095,-2.3095,-2.3095,-2.3095,-2.3095,-2.3095,-2.3095,-2.3095,-2.3095,-2.3095,-2.3095,-2.3095,-2.3095,-2.3095,-2.3095,-2.3095,-2.3095,-2.3095,-2.3095,-2.3095,-2.3095,-2.3095,-2.3095,-2.3095,-2.3095,-2.3095,-2.3078,-2.2909,-2.2942,-2.272,-2.2559,-2.2392,-2.2433,-2.2378,-2.2342,-2.2462,-2.2486,-2.2294,-2.2221,-2.2221,-2.2197,-2.2197,-2.2197,-2.2197,-2.2197,-2.2197,-2.2197,-2.2154,-2.203,-2.18,-2.1526,-2.1293,-2.0976,-2.0656,-3.0631,-3.028,-3.0439,-3.0718,-3.1072,-3.0803,-3.0599,-3.0426,-3.0148,-3.0132,-3.0205,-3.0437,-3.0219,-2.9653,-2.9131,-2.8594,-2.7737,-2.7287,-2.7026,-2.6881,-2.6794,-2.6794,-2.6794,-2.6794,-2.6794,-2.6794,-2.6794,-2.6794,-2.6794,-2.6794,-2.6794,-2.6794,-2.6794,-2.6794,-2.6594,-2.626,-2.5839,-2.5578,-2.5217,-2.4838,-2.4753,-2.4624,-2.435,-2.378,-2.3721,-2.3454,-2.3198,-2.3095,-2.3095,-2.3095,-2.3095,-2.3095,-2.3095,-2.3095,-2.3095,-2.3095,-2.3095,-2.3095,-2.3095,-2.3095,-2.3095,-2.3095,-2.3095,-2.3095,-2.3095,-2.3095,-2.3095,-2.3095,-2.3095,-2.3095,-2.3095,-2.3095,-2.3095,-2.3095,-2.3095,-2.3095,-2.3095,-2.3095,-2.3095,-2.3095,-2.3095,-2.3095,-2.3095,-2.3095,-2.3095,-2.3095,-2.3065,-2.3047,-2.2878,-2.2769,-2.2616,-2.2494,-2.234,-2.2247,-2.2216,-2.2228,-2.2197,-2.2197,-2.2197,-2.2197,-2.2197,-2.2197,-2.2197,-2.2197,-2.2197,-2.2197,-2.2197,-2.2197,-2.2123,-2.2061,-2.203,-2.1925,-2.1663,-2.1368,-2.1083,-3.0117,-2.972,-2.9832,-2.9998,-3.0206,-3.0052,-3.005,-3.0042,-2.9837,-2.984,-3.0207,-3.0105,-2.9668,-2.9101,-2.8664,-2.8097,-2.7501,-2.7079,-2.6919,-2.682,-2.6794,-2.6794,-2.6794,-2.6794,-2.6794,-2.6794,-2.6794,-2.6794,-2.6794,-2.6794,-2.6794,-2.6794,-2.6794,-2.6794,-2.67,-2.642,-2.6152,-2.6029,-2.5811,-2.5384,-2.5328,-2.5035,-2.4681,-2.4089,-2.3826,-2.3501,-2.3185,-2.3095,-2.3095,-2.3095,-2.3095,-2.3095,-2.3095,-2.3095,-2.3095,-2.3095,-2.3095,-2.3095,-2.3095,-2.3095,-2.3095,-2.3095,-2.3095,-2.3095,-2.3095,-2.3095,-2.3095,-2.3095,-2.3095,-2.3095,-2.3095,-2.3095,-2.3095,-2.3095,-2.3095,-2.3095,-2.3095,-2.3095,-2.3095,-2.3095,-2.3095,-2.3095,-2.3095,-2.3095,-2.3095,-2.3095,-2.3095,-2.3047,-2.2909,-2.28,-2.2708,-2.2555,-2.2432,-2.234,-2.2278,-2.2278,-2.2278,-2.2197,-2.2197,-2.2197,-2.2197,-2.2197,-2.2197,-2.2197,-2.2197,-2.2197,-2.2197,-2.2197,-2.2197,-2.2166,-2.2123,-2.2061,-2.1588,-2.1262,-2.1242,-2.9909,-2.9955,-3.0236,-2.9989,-2.9404,-2.9334,-2.9268,-2.929,-2.9621,-2.9645,-2.9391,-2.9053,-2.8605,-2.8177,-2.8075,-2.7696,-2.7202,-2.701,-2.6899,-2.682,-2.6794,-2.6794,-2.6794,-2.6794,-2.6794,-2.6794,-2.6794,-2.6794,-2.6794,-2.6794,-2.6794,-2.6794,-2.6794,-2.6794,-2.6794,-2.6779,-2.6753,-2.6753,-2.6633,-2.6299,-2.5879,-2.5412,-2.4851,-2.4279,-2.3738,-2.3412,-2.3155,-2.3095,-2.3095,-2.3095,-2.3095,-2.3095,-2.3095,-2.3095,-2.3095,-2.3095,-2.3095,-2.3095,-2.3095,-2.3095,-2.3095,-2.3095,-2.3095,-2.3095,-2.3095,-2.3095,-2.3095,-2.3095,-2.3095,-2.3095,-2.3095,-2.3095,-2.3095,-2.3095,-2.3095,-2.3095,-2.3095,-2.3095,-2.3095,-2.3095,-2.3095,-2.3095,-2.3095,-2.3095,-2.3095,-2.3095,-2.3095,-2.3017,-2.2909,-2.2818,-2.2769,-2.2647,-2.2525,-2.2494,-2.2432,-2.2389,-2.2328,-2.2247,-2.2228,-2.2247,-2.2247,-2.2247,-2.2247,-2.2228,-2.2197,-2.2197,-2.2197,-2.2197,-2.2197,-2.2197,-2.2197,-2.203,-2.1526,-2.1293,-2.14,-2.9641,-2.9243,-2.9383,-2.92,-2.8869,-2.9307,-2.9505,-2.9539,-2.9499,-2.9277,-2.8961,-2.8821,-2.8416,-2.7992,-2.7783,-2.7491,-2.6986,-2.6873,-2.682,-2.682,-2.6794,-2.6794,-2.6794,-2.6794,-2.6794,-2.6794,-2.6794,-2.6794,-2.6794,-2.6794,-2.6794,-2.6794,-2.6794,-2.6794,-2.6794,-2.6794,-2.6794,-2.6794,-2.6753,-2.6674,-2.6447,-2.5893,-2.5286,-2.4694,-2.4089,-2.3619,-2.3275,-2.3275,-2.3275,-2.3245,-2.3245,-2.3185,-2.3168,-2.3138,-2.3095,-2.3095,-2.3095,-2.3095,-2.3095,-2.3095,-2.3095,-2.3095,-2.3095,-2.3095,-2.3095,-2.3095,-2.3095,-2.3095,-2.3095,-2.3095,-2.3095,-2.3095,-2.3095,-2.3095,-2.3095,-2.3095,-2.3095,-2.3095,-2.3095,-2.3095,-2.3095,-2.3095,-2.3095,-2.3095,-2.3095,-2.3095,-2.3095,-2.3047,-2.2939,-2.2878,-2.283,-2.2739,-2.2647,-2.2647,-2.2616,-2.2555,-2.2543,-2.2494,-2.2432,-2.2402,-2.2402,-2.2371,-2.2371,-2.2371,-2.2278,-2.2197,-2.2216,-2.2216,-2.2197,-2.2197,-2.2197,-2.2092,-2.1726,-2.1694,-2.1925,-2.962,-2.9226,-2.9128,-2.905,-2.8983,-2.9168,-2.9329,-2.9404,-2.9071,-2.8702,-2.8419,-2.8299,-2.7986,-2.7623,-2.7506,-2.743,-2.6873,-2.6873,-2.6806,-2.6806,-2.6794,-2.6794,-2.6794,-2.6806,-2.6794,-2.6794,-2.6794,-2.6794,-2.6794,-2.6794,-2.6794,-2.6794,-2.6794,-2.6794,-2.6794,-2.6794,-2.6794,-2.6794,-2.6779,-2.6779,-2.6568,-2.6206,-2.5729,-2.5258,-2.4738,-2.4221,-2.3901,-2.3754,-2.3725,-2.3679,-2.356,-2.3454,-2.3395,-2.3228,-2.3155,-2.3095,-2.3095,-2.3095,-2.3095,-2.3095,-2.3095,-2.3095,-2.3095,-2.3095,-2.3095,-2.3095,-2.3095,-2.3095,-2.3095,-2.3095,-2.3095,-2.3095,-2.3095,-2.3095,-2.3095,-2.3095,-2.3095,-2.3095,-2.3095,-2.3095,-2.3095,-2.3095,-2.3095,-2.3095,-2.3095,-2.3095,-2.3095,-2.3017,-2.2957,-2.2969,-2.2939,-2.2878,-2.283,-2.283,-2.2769,-2.2708,-2.2708,-2.2708,-2.2647,-2.2586,-2.2555,-2.2555,-2.2525,-2.2512,-2.2463,-2.2402,-2.2309,-2.2247,-2.2216,-2.2197,-2.2197,-2.2061,-2.1894,-2.1925,-2.203,-2.9788,-2.975,-2.9582,-2.9598,-2.9633,-2.8975,-2.8691,-2.87,-2.8354,-2.8056,-2.7765,-2.7321,-2.7217,-2.7192,-2.7085,-2.7006,-2.6951,-2.6951,-2.6899,-2.6832,-2.6846,-2.682,-2.6832,-2.6832,-2.6806,-2.682,-2.6794,-2.6794,-2.6794,-2.6794,-2.6794,-2.682,-2.682,-2.682,-2.6794,-2.6794,-2.6794,-2.6794,-2.6794,-2.6794,-2.6674,-2.6233,-2.5893,-2.555,-2.5161,-2.4838,-2.4667,-2.4696,-2.4753,-2.461,-2.4337,-2.4147,-2.3868,-2.3467,-2.3228,-2.3095,-2.3095,-2.3095,-2.3095,-2.3095,-2.3095,-2.3095,-2.3095,-2.3095,-2.3095,-2.3095,-2.3095,-2.3095,-2.3095,-2.3095,-2.3095,-2.3095,-2.3095,-2.3095,-2.3095,-2.3095,-2.3095,-2.3095,-2.3095,-2.3095,-2.3095,-2.3095,-2.3095,-2.3095,-2.3095,-2.3095,-2.3095,-2.3095,-2.3047,-2.3047,-2.3047,-2.3047,-2.2987,-2.3,-2.2939,-2.2848,-2.286,-2.286,-2.2769,-2.2708,-2.2708,-2.2708,-2.2678,-2.2665,-2.2678,-2.2616,-2.2402,-2.2278,-2.2216,-2.2197,-2.2197,-2.2092,-2.1925,-2.1694,-2.1632,-2.9793,-2.9772,-2.9744,-2.9766,-2.9705,-2.9166,-2.8795,-2.8527,-2.8097,-2.7665,-2.7222,-2.7196,-2.7067,-2.6937,-2.6977,-2.6925,-2.6899,-2.6873,-2.6925,-2.6899,-2.6925,-2.6951,-2.6925,-2.6925,-2.6873,-2.682,-2.6794,-2.6806,-2.682,-2.682,-2.6873,-2.6925,-2.6846,-2.682,-2.6794,-2.6794,-2.6794,-2.6794,-2.6794,-2.6794,-2.6674,-2.626,-2.6056,-2.5825,-2.5481,-2.5217,-2.5189,-2.5147,-2.5119,-2.4951,-2.4423,-2.4118,-2.4031,-2.3484,-2.3095,-2.3095,-2.3095,-2.3095,-2.3095,-2.3095,-2.3095,-2.3095,-2.3095,-2.3095,-2.3095,-2.3095,-2.3095,-2.3095,-2.3095,-2.3095,-2.3095,-2.3095,-2.3095,-2.3095,-2.3095,-2.3095,-2.3095,-2.3095,-2.3095,-2.3095,-2.3095,-2.3095,-2.3095,-2.3095,-2.3095,-2.3095,-2.3095,-2.3095,-2.3095,-2.3095,-2.3095,-2.3095,-2.3108,-2.3078,-2.3017,-2.2927,-2.2969,-2.2969,-2.2921,-2.286,-2.2909,-2.2909,-2.2848,-2.28,-2.2769,-2.2616,-2.242,-2.234,-2.2247,-2.2197,-2.2166,-2.2061,-2.1925,-2.1788,-2.1726,-3.0092,-3.007,-2.9984,-2.9962,-2.9875,-2.9544,-2.9234,-2.8873,-2.8171,-2.7529,-2.7093,-2.7119,-2.7041,-2.6925,-2.6951,-2.6951,-2.6925,-2.6989,-2.7015,-2.6977,-2.7003,-2.6951,-2.6951,-2.6925,-2.6873,-2.682,-2.6806,-2.6832,-2.6858,-2.6899,-2.6925,-2.6899,-2.682,-2.682,-2.6794,-2.6794,-2.6794,-2.6794,-2.6794,-2.6794,-2.6647,-2.6447,-2.634,-2.6165,-2.5783,-2.5701,-2.5674,-2.5646,-2.5591,-2.5328,-2.4766,-2.4308,-2.4089,-2.3484,-2.3125,-2.3095,-2.3095,-2.3095,-2.3095,-2.3095,-2.3095,-2.3095,-2.3083,-2.3095,-2.3095,-2.3095,-2.3095,-2.3095,-2.3095,-2.3095,-2.3095,-2.3095,-2.3095,-2.3095,-2.3095,-2.3095,-2.3095,-2.3095,-2.3095,-2.3095,-2.3095,-2.3095,-2.3095,-2.3095,-2.3095,-2.3095,-2.3095,-2.3095,-2.3095,-2.3095,-2.3095,-2.3095,-2.3095,-2.3108,-2.3047,-2.3047,-2.3047,-2.3047,-2.3017,-2.3017,-2.3078,-2.3047,-2.2987,-2.2909,-2.283,-2.2678,-2.2543,-2.2371,-2.2247,-2.2216,-2.2197,-2.2123,-2.2092,-2.2061,-2.203,-3.0468,-3.0468,-3.0295,-3.0189,-3.0124,-2.9853,-2.9683,-2.9534,-2.831,-2.764,-2.7335,-2.7119,-2.7055,-2.7029,-2.7055,-2.7055,-2.7055,-2.7119,-2.7119,-2.7029,-2.7041,-2.6989,-2.6937,-2.6846,-2.6873,-2.6832,-2.6832,-2.691,-2.6963,-2.6977,-2.6873,-2.682,-2.6794,-2.6794,-2.6794,-2.6794,-2.6794,-2.6794,-2.6794,-2.6794,-2.6794,-2.6753,-2.6794,-2.6753,-2.67,-2.6674,-2.67,-2.6647,-2.6541,-2.5961,-2.5384,-2.4823,-2.425,-2.3796,-2.3501,-2.3412,-2.3531,-2.3403,-2.3335,-2.3225,-2.3098,-2.3106,-2.3062,-2.3062,-2.302,-2.3083,-2.3095,-2.3095,-2.3095,-2.3095,-2.3095,-2.3095,-2.3095,-2.3095,-2.3095,-2.3095,-2.3095,-2.3095,-2.3095,-2.3095,-2.3095,-2.3095,-2.3095,-2.3095,-2.3095,-2.3095,-2.3095,-2.3095,-2.3095,-2.3095,-2.3095,-2.3095,-2.3095,-2.3095,-2.3095,-2.3078,-2.3065,-2.3108,-2.3078,-2.3078,-2.3095,-2.3095,-2.3095,-2.303,-2.2921,-2.283,-2.2678,-2.2555,-2.2402,-2.229,-2.2259,-2.2228,-2.2228,-2.2228,-2.2197,-3.0489,-3.0489,-3.0426,-3.0236,-2.9919,-2.9832,-2.9309,-2.8519,-2.8198,-2.7968,-2.782,-2.7473,-2.7207,-2.713,-2.713,-2.7155,-2.7155,-2.7222,-2.7248,-2.7222,-2.7181,-2.7104,-2.7067,-2.6977,-2.6951,-2.6951,-2.6977,-2.6989,-2.7041,-2.6963,-2.6899,-2.6925,-2.6873,-2.6794,-2.6794,-2.6794,-2.6794,-2.6794,-2.6794,-2.6794,-2.6794,-2.6794,-2.6794,-2.6794,-2.6794,-2.6794,-2.6794,-2.6779,-2.6727,-2.65,-2.5961,-2.5425,-2.4823,-2.4595,-2.4538,-2.4525,-2.4341,-2.4002,-2.3607,-2.3275,-2.3035,-2.2875,-2.2781,-2.2858,-2.2932,-2.3032,-2.3095,-2.3083,-2.3095,-2.3095,-2.3095,-2.3095,-2.3095,-2.3095,-2.3095,-2.3095,-2.3095,-2.3095,-2.3095,-2.3095,-2.3095,-2.3095,-2.3095,-2.3095,-2.3095,-2.3095,-2.3095,-2.3095,-2.3095,-2.3095,-2.3095,-2.3095,-2.3095,-2.3095,-2.3095,-2.3095,-2.3095,-2.3095,-2.3095,-2.3095,-2.3095,-2.3095,-2.3095,-2.3108,-2.303,-2.2909,-2.2818,-2.2818,-2.2665,-2.2463,-2.2383,-2.2371,-2.234,-2.2309,-2.2278,-3.0489,-3.0489,-3.0489,-3.0342,-3.0092,-2.9897,-2.9422,-2.885,-2.8384,-2.8183,-2.81,-2.761,-2.7284,-2.7218,-2.7244,-2.7218,-2.7244,-2.7361,-2.731,-2.731,-2.7284,-2.7192,-2.713,-2.7067,-2.7067,-2.7067,-2.7067,-2.7093,-2.7041,-2.6989,-2.6951,-2.6925,-2.6846,-2.682,-2.6806,-2.6779,-2.6794,-2.6794,-2.6794,-2.6794,-2.6794,-2.6794,-2.6794,-2.6794,-2.6794,-2.6794,-2.6794,-2.6753,-2.6621,-2.6326,-2.5729,-2.5384,-2.5021,-2.4894,-2.4951,-2.4828,-2.4581,-2.4283,-2.374,-2.3211,-2.2761,-2.2442,-2.2201,-2.2159,-2.2585,-2.2669,-2.2895,-2.292,-2.307,-2.3095,-2.3095,-2.3095,-2.3095,-2.3095,-2.3095,-2.3095,-2.3095,-2.3095,-2.3095,-2.3095,-2.3095,-2.3095,-2.3095,-2.3095,-2.3095,-2.3095,-2.3095,-2.3095,-2.3095,-2.3095,-2.3095,-2.3095,-2.3095,-2.3095,-2.3095,-2.3095,-2.3095,-2.3095,-2.3095,-2.3095,-2.3095,-2.3095,-2.3108,-2.3108,-2.3047,-2.2969,-2.2909,-2.2909,-2.2818,-2.2586,-2.2525,-2.2525,-2.2494,-2.2432,-2.2432,-3.0489,-3.0489,-3.0489,-3.0489,-3.0447,-3.007,-2.9837,-2.9639,-2.8904,-2.8408,-2.8255,-2.7645,-2.7346,-2.7295,-2.7361,-2.731,-2.7335,-2.7463,-2.7437,-2.7335,-2.7258,-2.7244,-2.7207,-2.7119,-2.7144,-2.7155,-2.7155,-2.7041,-2.6899,-2.6925,-2.6925,-2.6846,-2.6846,-2.682,-2.6806,-2.6806,-2.6794,-2.6794,-2.6794,-2.6794,-2.6794,-2.6794,-2.6794,-2.6794,-2.6794,-2.6794,-2.6794,-2.67,-2.6447,-2.6192,-2.5783,-2.5646,-2.5522,-2.5522,-2.5453,-2.5356,-2.4941,-2.434,-2.3527,-2.2844,-2.2226,-2.1727,-2.1519,-2.1659,-2.2141,-2.2539,-2.2753,-2.2912,-2.3075,-2.3095,-2.3095,-2.3095,-2.3095,-2.3095,-2.3095,-2.3095,-2.3095,-2.3095,-2.3095,-2.3095,-2.3095,-2.3095,-2.3095,-2.3095,-2.3095,-2.3095,-2.3095,-2.3095,-2.3095,-2.3095,-2.3095,-2.3095,-2.3095,-2.3095,-2.3095,-2.3095,-2.3095,-2.3095,-2.3095,-2.3095,-2.3095,-2.3095,-2.3095,-2.3078,-2.3017,-2.2987,-2.2927,-2.2909,-2.2787,-2.2739,-2.2708,-2.2678,-2.2647,-2.2616,-2.2616,-3.0489,-3.0489,-3.0489,-3.0489,-3.0468,-3.0401,-3.014,-2.9815,-2.9579,-2.9088,-2.8448,-2.8207,-2.7904,-2.7549,-2.7549,-2.7499,-2.7463,-2.759,-2.76,-2.7524,-2.7361,-2.7361,-2.731,-2.7233,-2.7207,-2.7207,-2.7167,-2.7119,-2.6951,-2.6977,-2.7003,-2.6963,-2.6963,-2.6951,-2.6925,-2.6899,-2.682,-2.682,-2.6806,-2.6806,-2.682,-2.682,-2.6794,-2.6794,-2.6794,-2.6794,-2.6794,-2.6794,-2.6727,-2.6621,-2.6433,-2.6326,-2.6229,-2.616,-2.6076,-2.5755,-2.5355,-2.4533,-2.3713,-2.2766,-2.2112,-2.1498,-2.1429,-2.1515,-2.2084,-2.284,-2.3004,-2.3119,-2.3215,-2.3155,-2.3125,-2.3095,-2.3095,-2.3095,-2.3095,-2.3095,-2.3095,-2.3095,-2.3095,-2.3095,-2.3095,-2.3095,-2.3095,-2.3095,-2.3095,-2.3095,-2.3095,-2.3095,-2.3095,-2.3095,-2.3095,-2.3095,-2.3095,-2.3095,-2.3095,-2.3095,-2.3095,-2.3095,-2.3095,-2.3095,-2.3095,-2.3095,-2.3095,-2.3078,-2.3095,-2.3078,-2.3017,-2.2957,-2.2927,-2.2878,-2.2848,-2.2818,-2.28,-2.2769,-2.28]},{"header":{"parameterUnit":"m.s-1","parameterCategory":1,"la1":31.0,"la2":29.5877,"lo1":-88.7671,"lo2":-86.6584,"dy":0.0162,"dx":0.0185,"nx":115,"ny":88,"refTime":"2024-07-11T12:00:00:Z","depth":0,"parameterNumber":3,"parameterNumberName":"V-component_of_WINDS"},"data":[0.0,0.0,0.0,0.0,0.0,0.0,0.0,0.0,0.0,0.0,0.0,0.0,0.0,0.0,0.0,0.0,0.0,0.0,0.0,0.0,0.0,0.0,0.0,0.0,0.0,0.0,0.0,0.0,0.0,0.0,0.0,0.0,0.0,0.0,0.0,0.0,0.0,0.0,0.0,0.0,0.0,0.0,0.0,0.0,0.0,0.0,0.0,0.0,0.0,0.0,0.0,0.0,0.0,0.0,0.0,0.0,0.0,0.0,0.0,0.0,0.0,0.0,0.0,0.0,0.0,0.0,0.0,0.0,0.0,0.0,0.0,0.0,0.0,0.0,0.0,0.0,0.0,0.0,0.0,0.0,0.0,0.0,0.0,0.0,0.0,0.0,0.0,0.0,0.0,0.0,0.0,0.0,0.0,0.0,0.0,0.0,0.0,0.0,0.0,0.0,0.0,0.0,0.0,0.0,0.0,0.0,0.0,0.0,0.0,0.0,0.0,0.0,0.0,0.0,0.0,0.0,0.0,0.0,0.0,0.0,0.0,0.0,0.0,0.0,0.0,0.0,0.0,0.0,0.0,0.0,0.0,0.0,0.0,0.0,0.0,0.0,0.0,0.0,0.0,0.0,0.0,0.0,0.0,0.0,0.0,0.0,0.0,0.0,0.0,0.0,0.0,0.0,0.0,0.0,0.0,0.0,0.0,0.0,0.0,0.0,0.0,0.0,0.0,0.0,0.0,0.0,0.0,0.0,0.0,0.0,0.0,0.0,0.0,0.0,0.0,0.0,0.0,0.0,0.0,0.0,0.0,0.0,0.0,0.0,0.0,0.0,0.0,0.0,0.0,0.0,0.0,0.0,0.0,0.0,0.0,0.0,0.0,0.0,0.0,0.0,0.0,0.0,0.0,0.0,0.0,0.0,0.0,0.0,0.0,0.0,0.0,0.0,0.0,0.0,0.0,0.0,0.0,0.0,0.0,0.0,0.0,0.0,0.0,0.0,0.0,0.0,0.0,0.0,0.0,0.0,0.0,0.0,0.0,0.0,0.0,0.0,0.0,0.0,0.0,0.0,0.0,0.0,0.0,0.0,0.0,0.0,0.0,0.0,0.0,0.0,0.0,0.0,0.0,0.0,0.0,0.0,0.0,0.0,0.0,0.0,0.0,0.0,0.0,0.0,0.0,0.0,0.0,0.0,0.0,0.0,0.0,0.0,0.0,0.0,0.0,0.0,0.0,0.0,0.0,0.0,0.0,0.0,0.0,0.0,0.0,0.0,0.0,0.0,0.0,0.0,0.0,0.0,0.0,0.0,0.0,0.0,0.0,0.0,0.0,0.0,0.0,0.0,0.0,0.0,0.0,0.0,0.0,0.0,0.0,0.0,0.0,0.0,0.0,0.0,0.0,0.0,0.0,0.0,0.0,0.0,0.0,0.0,0.0,0.0,0.0,0.0,0.0,0.0,0.0,0.0,0.0,0.0,0.0,0.0,0.0,0.0,0.0,0.0,0.0,0.0,0.0,0.0,0.0,0.0,0.0,0.0,0.0,0.0,0.0,0.0,0.0,0.0,0.0,0.0,0.0,0.0,0.0,0.0,0.0,0.0,0.0,0.0,0.0,0.0,0.0,0.0,0.0,0.0,0.0,0.0,0.0,0.0,0.0,0.0,0.0,0.0,0.0,0.0,0.0,0.0,0.0,0.0,0.0,0.0,0.0,0.0,0.0,0.0,0.0,0.0,0.0,0.0,0.0,0.0,0.0,0.0,0.0,0.0,0.0,0.0,0.0,0.0,0.0,0.0,0.0,0.0,0.0,0.0,0.0,0.0,0.0,0.0,0.0,0.0,0.0,0.0,0.0,0.0,0.0,0.0,0.0,0.0,0.0,0.0,0.0,0.0,0.0,0.0,0.0,0.0,0.0,0.0,0.0,0.0,0.0,0.0,0.0,0.0,0.0,0.0,0.0,0.0,0.0,0.0,0.0,0.0,0.0,0.0,0.0,0.0,0.0,0.0,0.0,0.0,0.0,0.0,0.0,0.0,0.0,0.0,0.0,0.0,0.0,0.0,0.0,0.0,0.0,0.0,0.0,0.0,0.0,0.0,0.0,0.0,0.0,0.0,0.0,0.0,0.0,0.0,0.0,0.0,0.0,0.0,0.0,0.0,0.0,0.0,0.0,0.0,0.0,0.0,0.0,0.0,0.0,0.0,0.0,0.0,0.0,0.0,0.0,0.0,0.0,0.0,0.0,0.0,0.0,0.0,0.0,0.0,0.0,0.0,0.0,0.0,0.0,0.0,0.0,0.0,0.0,0.0,0.0,0.0,0.0,0.0,0.0,0.0,0.0,0.0,0.0,0.0,0.0,0.0,0.0,0.0,0.0,0.0,0.0,0.0,0.0,0.0,0.0,0.0,0.0,0.0,0.0,0.0,0.0,0.0,0.0,0.0,0.0,0.0,0.0,0.0,0.0,0.0,0.0,0.0,0.0,0.0,0.0,0.0,0.0,0.0,0.0,0.0,0.0,0.0,0.0,0.0,0.0,0.0,0.0,0.0,0.0,0.0,0.0,0.0,0.0,0.0,0.0,0.0,0.0,0.0,0.0,0.0,0.0,0.0,0.0,0.0,0.0,0.0,0.0,0.0,0.0,0.0,0.0,0.0,0.0,0.0,0.0,0.0,0.0,0.0,0.0,0.0,0.0,0.0,0.0,0.0,0.0,0.0,0.0,0.0,0.0,0.0,0.0,0.0,0.0,0.0,0.0,0.0,0.0,0.0,0.0,0.0,0.0,0.0,0.0,0.0,0.0,0.0,0.0,0.0,0.0,0.0,0.0,0.0,0.0,0.0,0.0,0.0,0.0,0.0,0.0,0.0,0.0,0.0,0.0,0.0,0.0,0.0,0.0,0.0,0.0,0.0,0.0,0.0,0.0,0.0,0.0,0.0,0.0,0.0,0.0,0.0,0.0,0.0,0.0,0.0,0.0,0.0,0.0,0.0,0.0,0.0,0.0,0.0,0.0,0.0,0.0,0.0,0.0,0.0,0.0,0.0,0.0,0.0,0.0,0.0,0.0,0.0,0.0,0.0,0.0,0.0,0.0,0.0,0.0,0.0,0.0,0.0,0.0,0.0,0.0,0.0,0.0,0.0,0.0,0.0,0.0,0.0,0.0,0.0,0.0,0.0,0.0,0.0,0.0,0.0,0.0,0.0,0.0,0.0,0.0,0.0,0.0,0.0,0.0,0.0,0.0,0.0,0.0,0.0,0.0,0.0,0.0,0.0,0.0,0.0,0.0,0.0,0.0,0.0,0.0,0.0,0.0,0.0,0.0,0.0,0.0,0.0,0.0,0.0,0.0,0.0,0.0,0.0,0.0,0.0,0.0,0.0,0.0,0.0,0.0,0.0,0.0,0.0,0.0,0.0,0.0,0.0,0.0,0.0,0.0,0.0,0.0,0.0,0.0,0.0,0.0,0.0,0.0,0.0,0.0,0.0,0.0,0.0,0.0,0.0,0.0,0.0,0.0,0.0,0.0,0.0,0.0,0.0,0.0,0.0,0.0,0.0,0.0,0.0,0.0,0.0,0.0,0.0,0.0,0.0,0.0,0.0,0.0,0.0,0.0,0.0,0.0,0.0,0.0,0.0,0.0,0.0,0.0,0.0,0.0,0.0,0.0,0.0,0.0,0.0,0.0,0.0,0.0,0.0,0.0,0.0,0.0,0.0,0.0,0.0,0.0,0.0,0.0,0.0,0.0,0.0,0.0,0.0,0.0,0.0,0.0,0.0,0.0,0.0,0.0,0.0,0.0,0.0,0.0,0.0,0.0,0.0,0.0,0.0,0.0,0.0,0.0,0.0,0.0,0.0,0.0,0.0,0.0,0.0,0.0,0.0,0.0,0.0,0.0,0.0,0.0,0.0,0.0,0.0,0.0,0.0,0.0,0.0,0.0,0.0,0.0,0.0,0.0,0.0,0.0,0.0,0.0,0.0,0.0,0.0,0.0,0.0,0.0,0.0,0.0,0.0,0.0,0.0,0.0,0.0,0.0,0.0,0.0,0.0,0.0,0.0,0.0,0.0,0.0,0.0,0.0,0.0,0.0,0.0,0.0,0.0,0.0,0.0,0.0,0.0,0.0,0.0,0.0,0.0,0.0,0.0,0.0,0.0,0.0,0.0,0.0,0.0,0.0,0.0,0.0,0.0,0.0,0.0,0.0,0.0,0.0,0.0,0.0,0.0,0.0,0.0,0.0,0.0,0.0,0.0,0.0,0.0,0.0,0.0,0.0,0.0,-0.8238,0.0,0.0,0.0,0.0,0.0,0.0,0.0,0.0,0.0,0.0,0.0,0.0,0.0,0.0,0.0,0.0,0.0,0.0,0.0,0.0,0.0,0.0,0.0,0.0,0.0,0.0,0.0,0.0,0.0,0.0,0.0,0.0,0.0,0.0,0.0,0.0,0.0,0.0,0.0,0.0,0.0,0.0,0.0,0.0,0.0,0.0,0.0,0.0,0.0,0.0,0.0,0.0,0.0,0.0,0.0,0.0,0.0,0.0,0.0,0.0,0.0,0.0,0.0,0.0,0.0,0.0,0.0,0.0,0.0,0.0,0.0,0.0,0.0,0.0,0.0,0.0,0.0,0.0,0.0,0.0,0.0,0.0,0.0,0.0,0.0,0.0,0.0,0.0,0.0,0.0,0.0,0.0,0.0,0.0,0.0,0.0,0.0,0.0,0.0,0.0,0.0,0.0,0.0,0.0,0.0,0.0,0.0,0.0,0.0,0.0,-1.0021,-1.0034,-0.9741,-0.9207,-0.8421,0.0,0.0,0.0,0.0,0.0,0.0,0.0,0.0,0.0,0.0,0.0,0.0,0.0,0.0,0.0,0.0,0.0,0.0,0.0,0.0,0.0,0.0,0.0,0.0,0.0,0.0,0.0,0.0,0.0,0.0,0.0,0.0,0.0,0.0,0.0,0.0,0.0,0.0,0.0,0.0,0.0,0.0,0.0,0.0,0.0,0.0,0.0,0.0,0.0,0.0,0.0,0.0,0.0,0.0,0.0,0.0,0.0,0.0,0.0,0.0,0.0,0.0,0.0,0.0,0.0,0.0,0.0,0.0,0.0,0.0,0.0,0.0,0.0,0.0,0.0,0.0,0.0,0.0,0.0,0.0,0.0,0.0,0.0,0.0,0.0,0.0,0.0,0.0,0.0,0.0,0.0,0.0,0.0,0.0,0.0,0.0,0.0,0.0,0.0,0.0,0.0,0.0,0.0,0.0,0.0,0.0,0.0,0.0,0.0,0.0,0.0,0.0,-1.0285,-0.98,-0.9229,0.0,0.0,0.0,0.0,0.0,0.0,0.0,0.0,0.0,0.0,0.0,0.0,0.0,0.0,0.0,0.0,0.0,0.0,0.0,0.0,0.0,0.0,0.0,0.0,0.0,0.0,0.0,0.0,0.0,0.0,0.0,0.0,0.0,0.0,0.0,0.0,0.0,0.0,0.0,0.0,0.0,0.0,0.0,0.0,0.0,0.0,0.0,0.0,0.0,0.0,0.0,0.0,0.0,0.0,0.0,0.0,0.0,0.0,0.0,0.0,0.0,0.0,0.0,0.0,0.0,0.0,0.0,0.0,0.0,0.0,0.0,0.0,0.0,0.0,0.0,0.0,0.0,0.0,0.0,0.0,0.0,0.0,0.0,0.0,0.0,0.0,0.0,0.0,0.0,0.0,0.0,0.0,0.0,0.0,0.0,0.0,0.0,0.0,0.0,0.0,0.0,0.0,0.0,0.0,0.0,0.0,0.0,0.0,0.0,0.0,-1.0795,-1.181,-1.1786,0.0,-1.0991,0.0,0.0,0.0,0.0,0.0,0.0,0.0,0.0,0.0,0.0,0.0,0.0,0.0,0.0,0.0,0.0,0.0,0.0,0.0,0.0,0.0,0.0,0.0,0.0,0.0,0.0,0.0,0.0,0.0,0.0,0.0,0.0,0.0,0.0,0.0,0.0,0.0,0.0,0.0,0.0,0.0,0.0,0.0,0.0,0.0,0.0,0.0,0.0,0.0,0.0,0.0,0.0,0.0,0.0,0.0,0.0,0.0,0.0,0.0,0.0,0.0,0.0,0.0,0.0,0.0,0.0,0.0,0.0,0.0,0.0,0.0,0.0,0.0,0.0,0.0,0.0,0.0,0.0,0.0,0.0,0.0,0.0,0.0,0.0,0.0,0.0,0.0,0.0,0.0,0.0,0.0,0.0,0.0,0.0,0.0,0.0,0.0,0.0,0.0,0.0,0.0,0.0,0.0,0.0,0.0,0.0,0.0,0.0,0.0,0.0,0.0,-1.198,-1.1342,-1.0743,0.0,0.0,0.0,0.0,0.0,0.0,0.0,0.0,0.0,0.0,0.0,0.0,0.0,0.0,0.0,0.0,0.0,0.0,0.0,0.0,0.0,0.0,0.0,0.0,0.0,0.0,0.0,0.0,0.0,0.0,0.0,0.0,0.0,0.0,0.0,0.0,0.0,0.0,0.0,0.0,0.0,0.0,0.0,0.0,0.0,0.0,0.0,0.0,0.0,0.0,0.0,0.0,0.0,0.0,0.0,0.0,0.0,0.0,0.0,0.0,0.0,0.0,0.0,0.0,0.0,0.0,0.0,0.0,0.0,0.0,0.0,0.0,0.0,0.0,0.0,0.0,0.0,0.0,0.0,0.0,0.0,0.0,0.0,0.0,0.0,0.0,0.0,0.0,0.0,0.0,0.0,0.0,0.0,0.0,0.0,0.0,0.0,0.0,0.0,0.0,0.0,0.0,0.0,0.0,0.0,0.0,0.0,0.0,0.0,0.0,-1.0952,0.0,-1.2165,-1.1448,-1.0547,-0.9537,0.0,0.0,0.0,0.0,0.0,0.0,0.0,0.0,0.0,0.0,0.0,0.0,0.0,0.0,0.0,0.0,0.0,0.0,0.0,0.0,0.0,0.0,0.0,0.0,0.0,0.0,0.0,0.0,0.0,0.0,0.0,0.0,0.0,0.0,0.0,0.0,0.0,0.0,0.0,0.0,0.0,0.0,0.0,0.0,0.0,0.0,0.0,0.0,0.0,0.0,0.0,0.0,0.0,0.0,0.0,0.0,0.0,0.0,0.0,0.0,0.0,0.0,0.0,0.0,0.0,0.0,0.0,0.0,0.0,0.0,0.0,0.0,0.0,0.0,0.0,0.0,0.0,0.0,0.0,0.0,0.0,0.0,0.0,0.0,0.0,0.0,0.0,0.0,0.0,0.0,0.0,0.0,0.0,0.0,0.0,0.0,0.0,0.0,0.0,0.0,0.0,0.0,0.0,0.0,0.0,0.0,0.0,0.0,0.0,-1.1711,-1.175,-1.2849,-1.2794,-1.175,0.0,0.0,0.0,0.0,0.0,0.0,0.0,0.0,0.0,0.0,0.0,0.0,0.0,0.0,0.0,0.0,0.0,0.0,0.0,0.0,0.0,0.0,0.0,0.0,0.0,0.0,0.0,0.0,0.0,0.0,0.0,0.0,0.0,0.0,0.0,0.0,0.0,0.0,0.0,0.0,0.0,0.0,0.0,0.0,0.0,0.0,0.0,0.0,0.0,0.0,0.0,0.0,0.0,0.0,0.0,0.0,0.0,0.0,0.0,0.0,0.0,0.0,0.0,0.0,0.0,0.0,0.0,0.0,0.0,0.0,0.0,0.0,0.0,0.0,0.0,0.0,0.0,0.0,0.0,0.0,0.0,0.0,0.0,0.0,0.0,0.0,0.0,0.0,0.0,0.0,0.0,0.0,0.0,0.0,0.0,0.0,0.0,0.0,0.0,0.0,0.0,0.0,0.0,0.0,0.0,0.0,0.0,0.0,0.0,-1.0064,-1.116,-1.2699,0.0,-1.2491,-1.1254,0.0,0.0,0.0,0.0,0.0,0.0,0.0,0.0,0.0,0.0,0.0,0.0,0.0,0.0,0.0,0.0,0.0,0.0,0.0,0.0,0.0,0.0,0.0,0.0,0.0,0.0,0.0,0.0,0.0,0.0,0.0,0.0,0.0,0.0,0.0,0.0,0.0,0.0,0.0,0.0,0.0,0.0,0.0,0.0,0.0,0.0,0.0,0.0,0.0,0.0,0.0,0.0,0.0,0.0,0.0,0.0,0.0,0.0,0.0,0.0,0.0,0.0,0.0,0.0,0.0,0.0,0.0,0.0,0.0,0.0,0.0,0.0,0.0,0.0,0.0,0.0,0.0,0.0,0.0,0.0,0.0,0.0,0.0,0.0,0.0,0.0,0.0,0.0,0.0,0.0,0.0,0.0,0.0,0.0,0.0,0.0,0.0,0.0,0.0,0.0,0.0,0.0,0.0,0.0,0.0,0.0,0.0,0.0,0.0,-0.9972,0.0,-1.3658,0.0,-1.2412,-1.1016,0.0,0.0,0.0,0.0,0.0,0.0,0.0,0.0,0.0,0.0,0.0,0.0,0.0,0.0,0.0,0.0,0.0,0.0,0.0,0.0,0.0,0.0,0.0,0.0,0.0,0.0,0.0,0.0,0.0,0.0,0.0,0.0,0.0,0.0,0.0,0.0,0.0,0.0,0.0,0.0,0.0,0.0,0.0,0.0,0.0,0.0,0.0,0.0,0.0,0.0,0.0,0.0,0.0,0.0,0.0,0.0,0.0,0.0,0.0,0.0,0.0,0.0,0.0,0.0,0.0,0.0,0.0,0.0,0.0,0.0,0.0,0.0,0.0,0.0,0.0,0.0,0.0,0.0,0.0,0.0,0.0,0.0,0.0,0.0,0.0,0.0,0.0,0.0,0.0,0.0,0.0,0.0,0.0,0.0,0.0,0.0,0.0,0.0,0.0,0.0,0.0,0.0,0.0,0.0,0.0,0.0,0.0,0.0,-0.9447,-1.2708,-1.4351,-1.4502,-1.3069,-1.2765,-1.1135,0.0,0.0,0.0,0.0,0.0,0.0,0.0,0.0,0.0,0.0,0.0,0.0,0.0,0.0,0.0,0.0,0.0,0.0,0.0,0.0,0.0,0.0,0.0,0.0,0.0,0.0,0.0,0.0,0.0,0.0,0.0,0.0,0.0,0.0,0.0,0.0,0.0,0.0,0.0,0.0,0.0,0.0,0.0,0.0,0.0,0.0,0.0,0.0,0.0,0.0,0.0,0.0,0.0,0.0,0.0,0.0,0.0,0.0,0.0,0.0,0.0,0.0,0.0,0.0,0.0,0.0,0.0,0.0,0.0,0.0,0.0,0.0,0.0,0.0,0.0,0.0,0.0,0.0,0.0,0.0,0.0,0.0,0.0,0.0,0.0,0.0,0.0,0.0,0.0,0.0,0.0,0.0,0.0,0.0,0.0,0.0,0.0,0.0,0.0,0.0,0.0,0.0,0.0,0.0,0.0,0.0,0.0,0.0,0.0,-1.2143,-1.3541,-1.4965,-1.6227,-1.3331,-1.1791,0.0,0.0,0.0,0.0,0.0,0.0,0.0,0.0,0.0,0.0,0.0,0.0,0.0,0.0,0.0,0.0,0.0,0.0,0.0,0.0,0.0,0.0,0.0,0.0,0.0,0.0,0.0,0.0,0.0,0.0,0.0,0.0,0.0,0.0,0.0,0.0,0.0,0.0,0.0,0.0,0.0,0.0,0.0,0.0,0.0,0.0,0.0,0.0,0.0,0.0,0.0,0.0,0.0,0.0,0.0,0.0,0.0,0.0,0.0,0.0,0.0,0.0,0.0,0.0,0.0,0.0,0.0,0.0,0.0,0.0,0.0,0.0,0.0,0.0,0.0,0.0,0.0,0.0,0.0,0.0,0.0,0.0,0.0,0.0,0.0,0.0,0.0,0.0,0.0,0.0,0.0,0.0,0.0,0.0,0.0,0.0,0.0,0.0,0.0,0.0,0.0,0.0,0.0,0.0,0.0,0.0,0.0,0.0,0.0,-1.4282,-1.5469,-1.6693,-1.7856,-1.4822,-1.3164,-1.3108,0.0,0.0,0.0,0.0,0.0,0.0,0.0,0.0,0.0,0.0,0.0,0.0,0.0,0.0,0.0,0.0,0.0,0.0,0.0,0.0,0.0,0.0,0.0,0.0,0.0,0.0,0.0,0.0,0.0,0.0,0.0,0.0,0.0,0.0,0.0,0.0,0.0,0.0,0.0,0.0,0.0,0.0,0.0,0.0,0.0,0.0,0.0,0.0,0.0,0.0,0.0,0.0,0.0,0.0,0.0,0.0,0.0,0.0,0.0,0.0,0.0,0.0,0.0,0.0,0.0,0.0,0.0,0.0,0.0,0.0,0.0,0.0,0.0,0.0,0.0,0.0,0.0,0.0,0.0,0.0,0.0,0.0,0.0,0.0,0.0,0.0,0.0,0.0,0.0,0.0,0.0,0.0,0.0,0.0,0.0,0.0,0.0,0.0,0.0,0.0,0.0,0.0,0.0,0.0,0.0,0.0,0.0,0.0,-1.832,-1.9593,-1.9498,-1.8012,-1.6986,-1.508,0.0,0.0,0.0,0.0,0.0,0.0,0.0,0.0,0.0,0.0,0.0,0.0,0.0,0.0,0.0,0.0,0.0,0.0,0.0,0.0,0.0,0.0,0.0,0.0,0.0,0.0,0.0,0.0,0.0,0.0,0.0,0.0,0.0,0.0,0.0,0.0,0.0,0.0,0.0,0.0,0.0,0.0,0.0,0.0,0.0,0.0,0.0,0.0,0.0,0.0,0.0,0.0,0.0,0.0,0.0,0.0,0.0,0.0,0.0,0.0,0.0,0.0,0.0,0.0,0.0,0.0,0.0,0.0,0.0,0.0,0.0,0.0,0.0,0.0,0.0,0.0,0.0,0.0,0.0,0.0,0.0,0.0,0.0,0.0,0.0,0.0,0.0,0.0,0.0,0.0,0.0,0.0,0.0,0.0,0.0,0.0,0.0,0.0,0.0,0.0,0.0,0.0,0.0,0.0,0.0,0.0,0.0,0.0,0.0,-1.9016,-2.0971,-2.1594,-2.0621,-1.8067,-1.5898,0.0,0.0,0.0,0.0,0.0,0.0,0.0,0.0,0.0,0.0,0.0,0.0,0.0,0.0,0.0,0.0,0.0,0.0,0.0,0.0,0.0,0.0,0.0,0.0,0.0,0.0,0.0,0.0,0.0,0.0,0.0,0.0,0.0,0.0,0.0,0.0,0.0,0.0,0.0,0.0,0.0,0.0,0.0,0.0,0.0,0.0,0.0,0.0,0.0,0.0,0.0,0.0,0.0,0.0,0.0,0.0,0.0,0.0,0.0,0.0,0.0,0.0,0.0,0.0,0.0,0.0,0.0,0.0,0.0,0.0,0.0,0.0,0.0,0.0,0.0,0.0,0.0,0.0,0.0,0.0,0.0,0.0,0.0,0.0,0.0,0.0,0.0,0.0,0.0,0.0,0.0,0.0,0.0,0.0,0.0,0.0,0.0,0.0,0.0,0.0,0.0,0.0,0.0,0.0,0.0,0.0,0.0,0.0,-1.8455,-2.0336,-2.2249,-2.2876,-2.2134,-1.9975,-1.7667,0.0,0.0,0.0,0.0,0.0,0.0,0.0,0.0,0.0,0.0,0.0,0.0,0.0,0.0,0.0,0.0,0.0,0.0,0.0,0.0,0.0,0.0,0.0,0.0,0.0,0.0,0.0,0.0,0.0,0.0,0.0,0.0,0.0,0.0,0.0,0.0,0.0,0.0,0.0,0.0,0.0,0.0,0.0,0.0,0.0,0.0,0.0,0.0,0.0,0.0,0.0,0.0,0.0,0.0,0.0,0.0,0.0,0.0,0.0,0.0,0.0,0.0,0.0,0.0,0.0,0.0,0.0,0.0,0.0,0.0,0.0,0.0,0.0,0.0,0.0,0.0,0.0,0.0,0.0,0.0,0.0,0.0,0.0,0.0,0.0,0.0,0.0,0.0,0.0,0.0,0.0,0.0,0.0,0.0,0.0,0.0,0.0,0.0,0.0,0.0,0.0,0.0,0.0,0.0,0.0,0.0,0.0,0.0,-2.0003,-2.1652,-2.3156,-2.3559,-2.2739,-2.1979,-1.9715,0.0,0.0,0.0,0.0,0.0,0.0,0.0,0.0,0.0,0.0,0.0,0.0,0.0,0.0,0.0,0.0,0.0,0.0,0.0,0.0,0.0,0.0,0.0,0.0,0.0,0.0,0.0,0.0,0.0,0.0,0.0,0.0,0.0,0.0,0.0,0.0,0.0,0.0,0.0,0.0,0.0,0.0,0.0,0.0,0.0,0.0,0.0,0.0,0.0,0.0,0.0,0.0,0.0,0.0,0.0,0.0,0.0,0.0,0.0,0.0,0.0,0.0,0.0,0.0,0.0,0.0,0.0,0.0,0.0,0.0,0.0,0.0,0.0,0.0,0.0,0.0,0.0,0.0,0.0,0.0,0.0,0.0,0.0,0.0,0.0,0.0,0.0,0.0,0.0,0.0,0.0,0.0,0.0,0.0,0.0,0.0,0.0,0.0,0.0,0.0,0.0,0.0,0.0,0.0,0.0,0.0,0.0,0.0,-2.0089,-2.102,-2.277,-2.3374,-2.2718,-2.1565,-1.9667,0.0,0.0,0.0,0.0,0.0,0.0,0.0,0.0,0.0,0.0,0.0,0.0,0.0,0.0,0.0,0.0,0.0,0.0,0.0,0.0,0.0,0.0,0.0,0.0,0.0,0.0,0.0,0.0,0.0,0.0,0.0,0.0,0.0,0.0,0.0,0.0,0.0,0.0,0.0,0.0,0.0,0.0,0.0,0.0,0.0,0.0,0.0,0.0,-1.3652,0.0,0.0,0.0,0.0,0.0,0.0,0.0,0.0,0.0,0.0,0.0,0.0,0.0,0.0,0.0,0.0,0.0,0.0,0.0,0.0,0.0,0.0,0.0,0.0,0.0,0.0,0.0,0.0,0.0,0.0,0.0,0.0,0.0,0.0,0.0,0.0,0.0,0.0,0.0,0.0,0.0,0.0,0.0,0.0,0.0,0.0,0.0,0.0,0.0,0.0,0.0,0.0,0.0,0.0,0.0,0.0,0.0,0.0,0.0,-2.0779,-2.1728,-2.3011,-2.3509,-2.3107,-2.1859,-2.002,0.0,0.0,0.0,0.0,0.0,0.0,0.0,0.0,0.0,0.0,0.0,0.0,0.0,0.0,0.0,0.0,0.0,0.0,0.0,0.0,0.0,0.0,0.0,0.0,0.0,0.0,0.0,0.0,0.0,0.0,0.0,0.0,0.0,0.0,0.0,0.0,0.0,0.0,0.0,0.0,0.0,0.0,0.0,0.0,0.0,0.0,0.0,0.0,0.0,0.0,0.0,0.0,0.0,0.0,0.0,0.0,0.0,0.0,0.0,0.0,0.0,0.0,0.0,0.0,0.0,0.0,0.0,0.0,0.0,0.0,0.0,0.0,0.0,0.0,0.0,0.0,0.0,0.0,0.0,0.0,0.0,0.0,0.0,0.0,0.0,0.0,0.0,0.0,0.0,0.0,0.0,0.0,0.0,0.0,0.0,0.0,0.0,0.0,0.0,0.0,0.0,0.0,0.0,0.0,0.0,0.0,0.0,-1.9135,-2.1374,-2.2601,-2.3405,-2.3754,-2.358,-2.2353,-2.0513,-1.7953,0.0,0.0,0.0,0.0,0.0,0.0,0.0,0.0,0.0,0.0,0.0,0.0,0.0,0.0,0.0,0.0,0.0,0.0,0.0,0.0,0.0,0.0,0.0,0.0,0.0,0.0,0.0,0.0,0.0,0.0,0.0,0.0,0.0,0.0,0.0,0.0,0.0,0.0,-1.16,-1.3917,0.0,0.0,0.0,0.0,0.0,0.0,0.0,0.0,-1.5332,0.0,0.0,0.0,0.0,0.0,0.0,0.0,0.0,0.0,0.0,0.0,0.0,0.0,0.0,0.0,0.0,0.0,0.0,0.0,0.0,0.0,0.0,0.0,0.0,0.0,0.0,0.0,0.0,0.0,0.0,0.0,0.0,0.0,0.0,0.0,0.0,0.0,0.0,0.0,0.0,0.0,0.0,0.0,0.0,0.0,0.0,0.0,0.0,0.0,0.0,0.0,0.0,0.0,0.0,0.0,0.0,-1.7497,-1.9258,-2.0687,-2.1869,-2.3137,-2.3739,-2.3586,-2.2353,-2.0707,-1.8597,0.0,0.0,0.0,0.0,0.0,0.0,0.0,0.0,0.0,0.0,0.0,0.0,0.0,0.0,0.0,0.0,0.0,0.0,0.0,0.0,0.0,0.0,0.0,0.0,0.0,0.0,0.0,0.0,0.0,0.0,0.0,0.0,0.0,0.0,0.0,0.0,0.0,0.0,0.0,-1.5872,-1.7116,0.0,0.0,0.0,0.0,0.0,0.0,0.0,0.0,-1.5593,0.0,0.0,0.0,0.0,0.0,0.0,0.0,0.0,0.0,0.0,0.0,0.0,0.0,0.0,0.0,0.0,0.0,0.0,0.0,0.0,0.0,0.0,0.0,0.0,0.0,0.0,0.0,0.0,0.0,0.0,0.0,0.0,0.0,0.0,0.0,0.0,0.0,0.0,0.0,0.0,0.0,0.0,0.0,0.0,0.0,0.0,0.0,0.0,0.0,0.0,0.0,0.0,0.0,0.0,0.0,-1.7239,-1.965,-2.1332,-2.2209,-2.3194,-2.3524,-2.3122,-2.1535,-1.9884,0.0,0.0,0.0,0.0,0.0,0.0,0.0,0.0,0.0,0.0,0.0,0.0,0.0,0.0,0.0,0.0,0.0,0.0,0.0,0.0,0.0,0.0,0.0,0.0,0.0,0.0,0.0,0.0,0.0,0.0,0.0,0.0,0.0,0.0,0.0,0.0,0.0,0.0,0.0,0.0,-1.6688,-1.7696,-1.9104,0.0,0.0,0.0,0.0,0.0,0.0,-1.7145,-1.6578,0.0,0.0,0.0,0.0,0.0,0.0,0.0,0.0,0.0,0.0,0.0,0.0,0.0,0.0,0.0,0.0,0.0,0.0,0.0,0.0,0.0,0.0,0.0,0.0,0.0,0.0,0.0,0.0,0.0,0.0,0.0,0.0,0.0,0.0,0.0,0.0,0.0,0.0,0.0,0.0,0.0,0.0,0.0,0.0,0.0,0.0,0.0,0.0,0.0,0.0,0.0,0.0,0.0,0.0,0.0,-1.6532,-1.9693,-2.1719,-2.2478,-2.3248,-2.3353,-2.2688,-2.1011,-1.9286,0.0,0.0,0.0,0.0,0.0,0.0,0.0,0.0,0.0,0.0,0.0,0.0,0.0,0.0,0.0,0.0,0.0,0.0,0.0,0.0,0.0,0.0,0.0,0.0,0.0,0.0,0.0,0.0,0.0,0.0,0.0,0.0,0.0,0.0,0.0,0.0,0.0,0.0,0.0,0.0,0.0,-1.8618,-2.0259,-1.9909,0.0,0.0,0.0,0.0,-1.9322,-1.8687,0.0,0.0,0.0,0.0,0.0,0.0,0.0,0.0,0.0,0.0,0.0,0.0,0.0,0.0,0.0,0.0,0.0,0.0,0.0,0.0,0.0,0.0,0.0,0.0,0.0,0.0,0.0,0.0,0.0,0.0,0.0,0.0,0.0,0.0,0.0,0.0,0.0,0.0,0.0,0.0,0.0,0.0,0.0,0.0,0.0,0.0,0.0,0.0,0.0,0.0,0.0,0.0,0.0,0.0,0.0,0.0,-1.5874,-1.8671,-2.0655,-2.1804,-2.3101,-2.3417,-2.2718,-2.1894,-1.9986,0.0,0.0,0.0,0.0,0.0,0.0,0.0,0.0,0.0,0.0,0.0,0.0,0.0,0.0,0.0,0.0,0.0,0.0,0.0,0.0,0.0,0.0,0.0,0.0,0.0,0.0,0.0,0.0,0.0,0.0,0.0,0.0,0.0,0.0,0.0,0.0,0.0,0.0,0.0,0.0,0.0,-2.0906,-2.1146,-2.0615,-2.0179,0.0,0.0,-2.0319,-1.983,-2.0653,0.0,0.0,0.0,0.0,0.0,0.0,0.0,0.0,0.0,0.0,0.0,0.0,0.0,0.0,0.0,0.0,0.0,0.0,0.0,0.0,0.0,0.0,0.0,0.0,0.0,0.0,0.0,0.0,0.0,0.0,0.0,0.0,0.0,0.0,0.0,0.0,0.0,0.0,0.0,0.0,0.0,0.0,0.0,0.0,0.0,0.0,0.0,0.0,0.0,0.0,0.0,0.0,0.0,0.0,0.0,-1.3897,-1.5844,-1.9176,-2.1184,-2.1695,-2.2654,-2.2834,-2.2128,-2.0737,-1.8807,0.0,0.0,0.0,0.0,0.0,0.0,0.0,0.0,0.0,0.0,0.0,0.0,0.0,0.0,0.0,0.0,0.0,0.0,0.0,0.0,0.0,0.0,0.0,0.0,0.0,0.0,0.0,0.0,0.0,0.0,0.0,0.0,0.0,0.0,0.0,0.0,0.0,0.0,0.0,0.0,0.0,0.0,-2.2323,-2.1915,0.0,0.0,0.0,-2.1596,-2.128,0.0,0.0,0.0,0.0,0.0,0.0,0.0,0.0,0.0,0.0,0.0,0.0,0.0,0.0,0.0,0.0,0.0,0.0,0.0,0.0,0.0,0.0,0.0,0.0,0.0,0.0,0.0,0.0,0.0,0.0,0.0,0.0,0.0,0.0,0.0,0.0,0.0,0.0,0.0,0.0,0.0,0.0,0.0,0.0,0.0,0.0,0.0,0.0,0.0,0.0,0.0,0.0,0.0,0.0,0.0,0.0,0.0,-1.5829,-1.9543,-2.144,-2.1485,-2.2104,-2.2134,-2.1455,-1.9989,0.0,0.0,0.0,0.0,0.0,0.0,0.0,0.0,0.0,0.0,0.0,0.0,0.0,0.0,0.0,0.0,0.0,0.0,0.0,0.0,0.0,0.0,0.0,0.0,0.0,0.0,0.0,-0.8332,0.0,0.0,0.0,0.0,0.0,0.0,0.0,0.0,0.0,0.0,0.0,0.0,0.0,0.0,-2.1634,-2.3197,-2.3133,-2.3112,0.0,0.0,-2.2911,-2.2528,-2.2579,-2.209,0.0,0.0,0.0,0.0,0.0,0.0,0.0,0.0,0.0,0.0,0.0,0.0,0.0,0.0,0.0,0.0,0.0,0.0,0.0,0.0,0.0,0.0,0.0,0.0,0.0,0.0,0.0,0.0,0.0,0.0,0.0,0.0,0.0,0.0,0.0,0.0,0.0,0.0,0.0,0.0,0.0,0.0,0.0,0.0,0.0,0.0,0.0,0.0,0.0,0.0,0.0,0.0,0.0,0.0,0.0,-1.5858,-1.9076,-2.0763,-2.0778,-2.1425,-2.1455,-2.0778,-2.0628,-1.9044,0.0,0.0,0.0,0.0,0.0,0.0,0.0,0.0,0.0,0.0,0.0,0.0,0.0,0.0,0.0,0.0,0.0,0.0,0.0,0.0,0.0,0.0,0.0,0.0,0.0,0.0,0.0,0.0,0.0,0.0,0.0,0.0,0.0,0.0,0.0,0.0,0.0,0.0,0.0,0.0,0.0,-2.3247,-2.3393,-2.3938,-2.4378,0.0,0.0,-2.4364,-2.3076,-2.3935,-2.3653,-2.0385,0.0,0.0,0.0,0.0,0.0,0.0,0.0,0.0,0.0,0.0,0.0,0.0,0.0,0.0,0.0,0.0,0.0,0.0,0.0,0.0,0.0,0.0,0.0,0.0,0.0,0.0,0.0,0.0,0.0,0.0,0.0,0.0,0.0,0.0,0.0,0.0,0.0,0.0,0.0,0.0,0.0,0.0,0.0,0.0,0.0,0.0,0.0,0.0,0.0,0.0,0.0,0.0,0.0,-1.4453,-1.5814,-1.9031,-2.0688,-2.0722,-2.0961,-2.0961,-2.0703,-2.0303,-1.8912,0.0,0.0,0.0,0.0,0.0,0.0,0.0,0.0,0.0,0.0,0.0,0.0,0.0,0.0,0.0,0.0,0.0,0.0,0.0,0.0,0.0,0.0,0.0,0.0,0.0,0.0,0.0,0.0,-0.946,-0.9986,-1.0201,0.0,0.0,0.0,0.0,0.0,0.0,0.0,0.0,0.0,0.0,-2.3714,-2.4628,-2.5,0.0,0.0,-2.5414,-2.518,-2.4587,-2.4445,-2.3852,-2.2262,-2.1067,0.0,0.0,0.0,0.0,0.0,0.0,0.0,0.0,0.0,0.0,0.0,0.0,0.0,0.0,0.0,0.0,0.0,0.0,0.0,0.0,0.0,0.0,0.0,0.0,0.0,0.0,0.0,0.0,0.0,0.0,0.0,0.0,0.0,0.0,0.0,0.0,0.0,0.0,0.0,0.0,0.0,0.0,0.0,0.0,0.0,0.0,0.0,0.0,0.0,0.0,0.0,0.0,-1.4558,-1.6054,-1.8942,-2.0393,-2.0408,-2.0408,-2.0408,-2.0393,-1.9944,-1.8852,0.0,0.0,0.0,0.0,0.0,0.0,0.0,0.0,0.0,0.0,0.0,0.0,0.0,0.0,0.0,0.0,0.0,0.0,0.0,0.0,0.0,0.0,0.0,0.0,0.0,0.0,0.0,0.0,-0.9684,-1.0245,-1.0405,0.0,0.0,0.0,0.0,0.0,0.0,0.0,0.0,0.0,0.0,-2.4441,-2.544,-2.5778,-2.6084,-2.6549,-2.6219,-2.5916,-2.5878,-2.5276,-2.4514,-2.3718,0.0,0.0,0.0,0.0,0.0,0.0,0.0,0.0,0.0,0.0,0.0,0.0,0.0,0.0,0.0,0.0,0.0,0.0,0.0,0.0,0.0,0.0,0.0,0.0,0.0,0.0,0.0,0.0,0.0,0.0,-0.6935,0.0,0.0,0.0,0.0,0.0,0.0,0.0,0.0,0.0,0.0,0.0,0.0,0.0,0.0,0.0,0.0,0.0,0.0,0.0,0.0,0.0,0.0,-1.4754,-1.6651,-1.8702,-1.9738,-1.9753,-1.9738,-1.9753,-1.9753,-1.9723,-1.9046,-1.7667,0.0,0.0,0.0,0.0,0.0,0.0,0.0,0.0,0.0,0.0,0.0,0.0,0.0,0.0,0.0,0.0,0.0,0.0,0.0,0.0,0.0,0.0,0.0,0.0,0.0,0.0,-0.8724,-0.931,-0.9716,0.0,0.0,0.0,0.0,0.0,0.0,0.0,0.0,0.0,0.0,-2.4173,-2.5559,-2.5626,-2.6234,-2.6945,-2.7654,-2.7148,-2.6691,-2.6691,-2.6657,-2.605,0.0,0.0,0.0,0.0,0.0,0.0,0.0,0.0,0.0,0.0,0.0,0.0,0.0,0.0,0.0,0.0,0.0,0.0,0.0,0.0,0.0,0.0,0.0,0.0,0.0,0.0,0.0,-0.9538,-0.8815,0.0,0.0,0.0,0.0,0.0,0.0,0.0,0.0,0.0,0.0,0.0,-1.5265,-1.6205,0.0,0.0,0.0,0.0,0.0,0.0,0.0,0.0,0.0,0.0,0.0,0.0,-1.5202,-1.6726,-1.867,-1.9723,-1.9723,-1.9723,-1.9723,-1.9723,-1.9723,-1.8867,-1.71,0.0,0.0,0.0,0.0,0.0,0.0,0.0,0.0,0.0,0.0,0.0,0.0,0.0,0.0,0.0,0.0,0.0,0.0,0.0,0.0,0.0,0.0,0.0,0.0,0.0,-0.9331,0.0,0.0,0.0,0.0,0.0,0.0,0.0,0.0,0.0,0.0,0.0,-2.2478,-2.4257,-2.5119,-2.5947,-2.6928,-2.7266,-2.7723,0.0,0.0,0.0,0.0,0.0,0.0,0.0,0.0,0.0,0.0,0.0,0.0,0.0,0.0,-2.4587,-2.1518,-2.062,-2.0381,-2.0414,0.0,0.0,0.0,0.0,0.0,0.0,0.0,0.0,0.0,0.0,0.0,0.0,0.0,0.0,-1.156,0.0,-1.126,0.0,0.0,0.0,0.0,0.0,0.0,0.0,0.0,-1.6297,-1.7264,-1.729,-1.8022,-1.807,0.0,-1.7491,-1.6352,0.0,0.0,0.0,0.0,0.0,0.0,0.0,0.0,-1.5889,-1.74,-1.8912,-1.9723,-1.9723,-1.9723,-1.9723,-1.9723,-1.9723,-1.8986,-1.7428,-1.6368,-1.5096,0.0,0.0,0.0,0.0,0.0,0.0,0.0,0.0,0.0,0.0,0.0,0.0,0.0,0.0,0.0,0.0,0.0,0.0,0.0,0.0,0.0,0.0,0.0,-1.0272,0.0,0.0,0.0,0.0,0.0,0.0,0.0,0.0,0.0,-2.0842,-2.2564,-2.4475,-2.6133,-2.6623,-2.7131,-2.8095,0.0,0.0,0.0,0.0,0.0,0.0,0.0,-2.796,-2.8197,-2.7638,-2.7131,-2.7097,-2.7723,-2.804,-2.7519,0.0,0.0,-2.4462,-2.3737,-2.362,-2.3669,-2.3786,-2.3753,-2.3483,-2.3798,-2.4045,0.0,0.0,0.0,0.0,0.0,0.0,0.0,0.0,-1.3495,-1.3724,0.0,-1.3892,0.0,0.0,0.0,0.0,0.0,-1.4781,0.0,0.0,-1.814,-1.8924,-1.8911,-1.895,-1.8963,-1.9012,-1.9946,-1.9768,-1.8475,-1.5786,0.0,0.0,0.0,0.0,0.0,0.0,-1.6832,-1.8672,-1.9405,-1.9753,-1.9738,-1.9723,-1.9723,-1.9723,-1.9723,-1.939,-1.8747,-1.8057,-1.6832,-1.4962,-1.3583,0.0,0.0,0.0,0.0,0.0,0.0,0.0,0.0,0.0,0.0,0.0,0.0,0.0,0.0,0.0,0.0,0.0,0.0,0.0,0.0,-1.0562,0.0,0.0,0.0,0.0,0.0,0.0,0.0,0.0,0.0,0.0,-2.2702,-2.4949,-2.6996,-2.7739,0.0,0.0,0.0,0.0,-2.933,-3.0074,-2.9583,-2.9433,-3.0125,-3.0192,-2.9922,-2.9247,0.0,0.0,-2.8162,-2.8552,-2.8857,-2.8077,-2.8672,-2.9025,-2.8493,-2.7653,-2.7279,-2.7601,-2.6888,-2.6433,-2.664,-2.6402,-2.6349,-1.6153,0.0,0.0,0.0,0.0,-1.4909,-1.5363,-1.6053,-1.6409,-1.6308,-1.5889,-1.612,0.0,0.0,0.0,0.0,0.0,0.0,-1.7447,-1.7669,-1.895,-1.9538,-1.954,-1.998,-2.0177,-2.0188,-2.0048,-1.9957,-1.9854,-1.8988,-1.7729,-1.611,0.0,0.0,0.0,0.0,-1.8373,-1.9393,-2.0079,-2.0423,-2.0423,-1.9947,-1.9723,-1.9723,-1.9723,-1.9618,-1.9423,-1.8777,-1.7938,-1.6891,-1.5186,0.0,0.0,0.0,0.0,0.0,0.0,0.0,0.0,0.0,0.0,0.0,0.0,0.0,0.0,0.0,0.0,0.0,0.0,0.0,-1.212,-1.2098,-1.2779,0.0,0.0,0.0,0.0,0.0,0.0,0.0,0.0,0.0,-2.6911,-2.73,-2.7773,0.0,0.0,-2.9196,-2.9702,-3.0226,-3.0838,-3.1546,-3.1918,0.0,0.0,-3.2002,-3.1579,-3.1379,-3.1108,-3.0734,-3.0294,-3.0412,-3.048,-3.0243,-3.0431,-3.0548,-3.0367,-2.9428,-2.8688,-2.862,-2.8432,-2.8279,-2.8315,-2.8243,-2.8242,-1.8311,-1.6887,-1.6449,-1.6472,-1.677,-1.6935,-1.7436,-1.815,-1.8487,-1.8604,-1.8634,-1.8806,-1.827,-1.7186,-1.695,0.0,0.0,0.0,-1.946,-1.9486,-2.0388,-2.0832,-2.0845,-2.0975,-2.1027,-2.0988,-2.0622,-2.0548,-2.0806,-2.091,-2.0255,-1.8974,0.0,0.0,-1.867,-1.9223,-1.9824,-2.0468,-2.0632,-2.0688,-2.0688,-2.0049,-1.9723,-1.9723,-1.9723,-1.9723,-1.9708,-1.9301,-1.8792,-1.8102,-1.6473,-1.4842,0.0,0.0,0.0,0.0,0.0,0.0,0.0,0.0,0.0,0.0,0.0,-1.0912,0.0,0.0,0.0,0.0,-1.0833,-1.218,-1.4413,-1.4675,0.0,0.0,0.0,0.0,0.0,0.0,0.0,-2.5541,-2.6742,-2.801,-2.9653,-2.9685,-2.977,-3.0245,-3.0567,-3.092,-3.136,0.0,-3.2222,-3.2662,-3.3119,-3.3389,-3.3389,-3.3034,-3.2649,-3.2344,-3.1938,-3.1495,-3.1224,-3.119,-3.119,-3.119,-3.119,-3.119,-3.119,-3.0525,-2.9986,-2.9892,-2.9892,-2.9929,-2.9873,-2.9873,-2.989,-1.9803,-1.9753,-1.8753,-1.8306,-1.8265,-1.8635,-1.908,-1.9543,-1.9859,-2.0578,-2.1577,-2.1577,-2.1002,-1.9982,-1.942,0.0,-2.0048,-2.1106,-2.1551,-2.1603,-2.2139,-2.2414,-2.236,-2.1812,-2.1577,-2.1564,-2.1454,-2.1394,-2.1415,-2.1744,-2.1917,-2.191,-2.1257,-2.1181,-2.1635,-2.1141,-2.1171,-2.1754,-2.1186,-2.0793,-2.0673,-2.0034,-1.9723,-1.9723,-1.9723,-1.9723,-1.9708,-1.9648,-1.9331,-1.8702,-1.7429,-1.5875,-1.4049,0.0,0.0,0.0,0.0,0.0,0.0,0.0,0.0,0.0,0.0,0.0,0.0,0.0,0.0,0.0,-1.3257,0.0,-1.6536,-1.7809,0.0,0.0,0.0,-2.2087,-2.3663,-2.5,-2.6336,-2.7824,0.0,0.0,-3.121,-3.1972,-3.2479,-3.2479,-3.3,-3.3389,-3.3389,-3.3406,-3.3491,-3.3491,-3.3537,-3.3592,-3.3711,-3.3592,-3.3288,-3.2733,-3.2378,-3.2039,-3.1444,-3.1207,-3.1207,-3.119,-3.119,-3.119,-3.119,-3.1142,-3.119,-3.1123,-3.114,-3.114,-3.1089,-3.1072,-3.1038,-2.0845,-2.0822,-2.0549,-2.0021,-1.9333,-1.9437,-1.9901,-2.0622,-2.0705,-2.1291,-2.2192,-2.2178,-2.2034,-2.1773,-2.1616,-2.1655,-2.1799,-2.2047,-2.2178,-2.2192,-2.2323,-2.2401,-2.2401,-2.2257,-2.2178,-2.2165,-2.1681,-2.1482,-2.1494,-2.1872,-2.2055,-2.2073,-2.2635,-2.2517,-2.1754,-2.2039,-2.2298,-2.2463,-2.2313,-2.1724,-2.0703,-2.0034,-1.9723,-1.9723,-1.9723,-1.9723,-1.9708,-1.9211,-1.8867,-1.8672,-1.7413,-1.6293,-1.535,-1.3467,0.0,0.0,0.0,0.0,0.0,0.0,0.0,0.0,0.0,-1.4674,-1.1606,0.0,-1.4996,0.0,-1.4987,-1.6441,-1.8571,-1.9298,0.0,0.0,-2.3934,-2.4762,-2.7368,-2.7452,-2.7858,-2.9381,-3.0378,-3.1207,-3.1955,-3.3152,-3.3981,-3.3986,-3.3643,-3.3389,-3.3406,-3.3897,-3.4235,-3.4286,-3.4709,-3.5059,-3.4991,-3.459,-3.415,-3.3998,-3.3055,-3.2242,-3.2073,-3.1565,-3.119,-3.119,-3.119,-3.119,-3.119,-3.119,-3.119,-3.119,-3.119,-3.119,-3.119,-3.119,-3.119,-2.1868,-2.1857,-2.1638,-2.1181,-2.0664,-2.0446,-2.0865,-2.1702,-2.1702,-2.2254,-2.3119,-2.2884,-2.2753,-2.274,-2.274,-2.2753,-2.2765,-2.3041,-2.3158,-2.3173,-2.3145,-2.3145,-2.3132,-2.2898,-2.2753,-2.2725,-2.2178,-2.2141,-2.2581,-2.2529,-2.2739,-2.3204,-2.3467,-2.3251,-2.2592,-2.2906,-2.3107,-2.3107,-2.2838,-2.2074,-2.0763,-2.0348,-2.0004,-1.9723,-1.9723,-1.9723,-1.969,-1.9331,-1.9001,-1.8702,-1.7697,-1.6846,-1.6219,-1.4643,-1.3422,0.0,0.0,0.0,0.0,0.0,0.0,0.0,0.0,0.0,0.0,0.0,-1.6604,-1.631,-1.7971,-1.9924,-2.2024,-2.2835,-2.4286,-2.6826,-2.6759,-2.73,-2.9279,-2.9093,-2.9396,-3.0903,-3.1447,-3.2107,-3.3156,-3.4003,-3.4624,-3.4945,-3.4636,-3.4366,-3.4421,-3.4759,-3.4996,-3.503,-3.5329,-3.5616,-3.5616,-3.5267,-3.4878,-3.4506,-3.3833,-3.319,-3.2852,-3.2192,-3.1701,-3.1647,-3.141,-3.119,-3.119,-3.119,-3.119,-3.119,-3.119,-3.119,-3.119,-3.119,-3.119,-2.2707,-2.2673,-2.2203,-2.1997,-2.1996,-2.1581,-2.1851,-2.2634,-2.2665,-2.3233,-2.4086,-2.3563,-2.33,-2.33,-2.3328,-2.3313,-2.3339,-2.3848,-2.4125,-2.4125,-2.4125,-2.4125,-2.407,-2.3576,-2.33,-2.3302,-2.2767,-2.3018,-2.3968,-2.3343,-2.3512,-2.4447,-2.3895,-2.3595,-2.3595,-2.3595,-2.3595,-2.3595,-2.3017,-2.2113,-2.1006,-2.0793,-2.0438,-1.9854,-1.9753,-1.9723,-1.9708,-1.9618,-1.9318,-1.8732,-1.8057,-1.7444,-1.683,-1.5695,-1.5005,0.0,-1.4303,0.0,0.0,0.0,0.0,0.0,0.0,0.0,0.0,-1.7861,-1.8429,-1.9009,-2.1502,-2.3802,-2.5646,-2.6854,-2.7942,-2.899,-2.9127,-2.9433,-3.0142,-3.0243,-3.0768,-3.2141,-3.2378,-3.2987,-3.4235,-3.4573,-3.4912,-3.543,-3.5515,-3.5464,-3.5566,-3.5532,-3.5549,-3.5616,-3.5616,-3.5616,-3.5616,-3.56,-3.5346,-3.4793,-3.4489,-3.4269,-3.3643,-3.2953,-3.2412,-3.2259,-3.1785,-3.1343,-3.1224,-3.119,-3.119,-3.119,-3.119,-3.119,-3.119,-3.119,-3.119,-2.2707,-2.2662,-2.2581,-2.2536,-2.2524,-2.2432,-2.2468,-2.2622,-2.3065,-2.3569,-2.4083,-2.3979,-2.3926,-2.3942,-2.3913,-2.3913,-2.3955,-2.406,-2.4125,-2.4125,-2.4125,-2.4125,-2.4083,-2.3979,-2.3913,-2.3887,-2.3341,-2.3401,-2.4067,-2.3339,-2.3369,-2.4019,-2.3748,-2.3595,-2.3595,0.0,0.0,0.0,-2.3017,-2.2568,-2.2278,-2.1241,-2.0628,-2.0513,-1.9989,0.0,-1.9693,-1.9199,-1.882,-1.8702,-1.8074,0.0,0.0,0.0,0.0,0.0,0.0,0.0,0.0,0.0,0.0,0.0,-1.9115,-1.923,-1.8646,-2.0862,-2.241,-2.2638,-2.4397,-2.5926,-2.6881,-2.7982,-2.9004,-2.9768,-2.9888,-3.0176,-3.0869,-3.0987,-3.1326,-3.2175,-3.2797,-3.3508,-3.4387,-3.5013,-3.5414,-3.5566,-3.5616,-3.5616,-3.5616,-3.5616,-3.5616,-3.5616,-3.5616,-3.5616,-3.5616,-3.5616,-3.5549,-3.5346,-3.4861,-3.4489,-3.4286,-3.3677,-3.2949,-3.2496,-3.2192,-3.187,-3.1343,-3.119,-3.119,-3.119,-3.119,-3.119,-3.119,-3.119,-3.119,-2.3431,0.0,-2.3155,-2.3052,0.0,-2.333,-2.3421,-2.3434,-2.3667,-2.4081,-2.4517,-2.4243,-2.4125,-2.4125,-2.4125,-2.4125,-2.4125,-2.4125,-2.4125,-2.4125,-2.4125,-2.4125,-2.4125,-2.4125,-2.4125,-2.4099,-2.4085,-2.4391,-2.4901,-2.4521,-2.464,-2.521,-2.4469,-2.4081,-2.4066,-2.3774,-2.3595,-2.3595,-2.3295,-2.3002,-2.2688,-2.2039,-2.138,-2.0737,0.0,0.0,0.0,0.0,0.0,0.0,0.0,0.0,0.0,0.0,0.0,-1.7716,-1.7433,-1.73,-1.7377,-1.768,-1.8517,-2.0026,-2.1357,-2.1657,-2.0609,-2.2484,-2.3847,-2.425,-2.5877,-2.723,-2.7938,-2.9051,-2.9903,-3.0272,-3.0516,-3.0818,-3.1157,-3.1512,-3.2022,-3.2763,-3.3474,-3.4218,-3.4945,-3.5312,-3.5583,-3.5616,-3.5616,-3.5616,-3.5616,-3.5616,-3.5616,-3.5616,-3.5616,-3.5616,-3.5616,-3.5616,-3.5616,-3.5549,-3.5301,-3.5081,-3.5047,-3.4438,-3.3812,-3.341,-3.2818,-3.2158,-3.1819,-3.1481,-3.119,-3.119,-3.119,-3.119,-3.119,-3.119,-3.119,-2.4189,-2.4166,-2.3705,-2.3545,-2.3581,-2.4,-2.4298,-2.4497,0.0,0.0,0.0,-2.4465,-2.4187,-2.4125,-2.4125,-2.4125,-2.4125,-2.4125,-2.4125,-2.4125,-2.4125,-2.4125,-2.4125,-2.4125,-2.4125,-2.4112,-2.462,-2.5188,-2.5782,-2.5626,-2.5925,-2.6404,-2.5247,-2.453,-2.4395,-2.3879,-2.3595,-2.3595,-2.3595,-2.3377,-2.2882,-2.2763,-2.2179,-2.1081,-2.0823,-2.0453,-1.9884,-1.9753,-1.9453,-1.8912,-1.8882,-1.8882,-1.8882,-1.8882,-1.9121,-1.9648,-1.9723,-1.9753,-1.9891,-1.9927,-2.0379,-2.1299,-2.2959,-2.3552,-2.265,-2.3686,-2.4697,-2.544,-2.7026,-2.8302,-2.9086,-3.003,-3.0638,-3.0621,-3.0975,-3.1173,-3.1241,-3.187,-3.2547,-3.3322,-3.4015,-3.4776,-3.5464,-3.5583,-3.5616,-3.5616,-3.5616,-3.5616,-3.5616,-3.5616,-3.5616,-3.5616,-3.5616,-3.5616,-3.5616,-3.5616,-3.5616,-3.56,-3.5583,-3.5616,-3.5515,-3.5115,-3.4675,-3.4409,-3.3376,-3.2598,-3.2276,-3.1701,-3.1224,-3.119,-3.119,-3.119,-3.119,-3.119,-3.119,-2.4189,-2.4189,-2.412,-2.4085,-2.4085,-2.4185,-2.4779,-2.5645,-2.562,-2.5343,-2.4992,-2.4913,-2.4612,-2.4125,-2.4125,-2.4125,-2.4125,-2.4125,-2.4125,0.0,-2.4125,-2.4125,-2.4125,-2.4125,-2.4125,-2.4112,-2.42,-2.4765,-2.5645,-2.5272,-2.556,-2.6316,-2.5247,-2.4321,-2.3774,-2.364,-2.3595,-2.3595,-2.3595,-2.3565,-2.3475,-2.2972,-2.2613,-2.2388,-2.1291,-2.0643,-2.0554,-1.9989,-1.9663,-1.9555,-1.9573,-1.9558,-1.9558,-1.9558,-1.9585,-1.9693,-1.9723,-1.9981,-2.0595,-2.0674,-2.1277,-2.267,-2.3534,-2.3876,-2.3749,-2.5179,-2.663,-2.777,-2.8543,-2.9629,-3.0687,-3.0928,-3.1015,-3.1072,-3.1151,-3.119,-3.1241,-3.1904,-3.2649,-3.3372,-3.4049,-3.4793,-3.5447,-3.5616,-3.5616,-3.5616,-3.5616,-3.56,-3.5554,-3.5616,-3.5616,-3.5616,-3.5616,-3.5616,-3.5616,-3.5616,-3.5616,-3.5616,-3.5616,-3.5616,-3.5616,-3.5481,-3.5182,-3.4624,-3.3829,-3.3085,-3.2496,-3.1701,-3.1309,-3.1224,-3.119,-3.119,-3.119,-3.119,-3.119,-2.4189,-2.4189,-2.4189,-2.4189,-2.4225,-2.485,-2.5594,-2.6355,-2.6613,-2.6425,-2.5921,-2.5576,-2.5118,-2.4626,-2.4583,-2.44,-2.4125,-2.4125,-2.4125,-2.4125,-2.4125,-2.4125,-2.4125,-2.4125,-2.4125,-2.4112,-2.4447,-2.4863,-2.5315,-2.5367,-2.5828,-2.6545,-2.5628,-2.4799,-2.4156,-2.3789,-2.3595,-2.3595,-2.3595,-2.3595,-2.3595,-2.3325,-2.3026,-2.2688,-2.1739,-2.1047,-2.0703,-2.0049,-1.9723,-1.9723,-1.9723,-1.9723,-1.9723,-1.9723,-1.9723,-1.9723,-2.0034,-2.0397,-2.0715,-2.1467,-2.2258,-2.3136,-2.3769,-2.428,-2.4631,-2.5352,-2.622,-2.7227,-2.7897,-2.8702,-2.9619,-3.0135,-3.0447,-3.0431,-3.0878,-3.136,-3.1799,-3.2442,-3.3207,-3.3914,-3.4658,-3.5211,-3.5566,-3.5616,-3.5616,-3.5616,-3.56,-3.5492,-3.5247,-3.5441,-3.5616,-3.5616,-3.5616,-3.5616,-3.5616,-3.5616,-3.5616,-3.5616,-3.5616,-3.5616,-3.5616,-3.5616,-3.5447,-3.5148,-3.4472,-3.3761,-3.3017,-3.231,-3.1732,-3.1241,-3.119,-3.119,-3.119,-3.119,-3.119,-2.4189,-2.4189,-2.4189,-2.4189,-2.4298,-2.5264,-2.6013,-2.6577,-2.7074,-2.7142,-2.6817,-2.6269,-2.5628,-2.5031,-2.5005,-2.4678,-2.4164,-2.4125,-2.4125,-2.4125,-2.4125,-2.4125,-2.4125,-2.4125,-2.4125,-2.4141,-2.4591,-2.4863,-2.5033,-2.5425,-2.5916,-2.635,-2.5878,-2.5262,-2.4619,-2.3939,-2.3595,-2.3595,-2.3595,-2.3595,-2.3595,-2.3595,-2.337,-2.2912,-2.2263,-2.168,-2.1156,-2.0382,-1.9989,-2.0142,-2.0022,-2.0007,-2.0142,-2.0139,-2.0157,-2.0183,-2.0632,-2.1006,-2.1201,-2.2284,-2.3111,-2.3391,-2.3977,-2.4609,-2.5192,-2.5516,-2.5966,-2.6715,-2.7518,-2.8155,-2.8949,-2.9589,-2.9989,-3.0118,-3.072,-3.1374,-3.1985,-3.2696,-3.344,-3.4167,-3.4895,-3.5363,-3.5549,-3.5616,-3.5554,-3.5424,-3.5515,-3.5362,-3.4975,-3.5247,-3.5577,-3.5616,-3.5616,-3.5616,-3.5616,-3.5616,-3.5616,-3.5616,-3.5616,-3.5616,-3.5616,-3.5616,-3.56,-3.5447,-3.4776,-3.4032,-3.344,-3.2598,-3.187,-3.1292,-3.119,-3.119,-3.119,-3.119,-3.119,-2.4189,-2.4189,-2.4189,-2.4189,-2.4261,-2.485,-2.5441,-2.6,-2.6543,-2.704,-2.73,-2.6844,-2.6026,-2.5097,-2.5044,-2.473,-2.4164,-2.4125,-2.4125,-2.4125,-2.4125,-2.4125,-2.4125,-2.4125,-2.4125,-2.4125,-2.42,-2.4505,-2.492,-2.509,-2.534,-2.5745,-2.5666,-2.5315,-2.4634,-2.3947,-2.361,-2.3595,-2.3595,-2.3595,-2.3595,-2.3595,-2.358,-2.352,-2.2927,-2.2583,-2.2418,-2.1291,-2.0868,-2.1395,-2.0897,-2.0868,-2.1395,-2.1485,-2.1485,-2.1505,-2.156,-2.1844,-2.2478,-2.3152,-2.3576,-2.3794,-2.4344,-2.4871,-2.5258,-2.6313,-2.7257,-2.7839,-2.8516,-2.9175,-3.0166,-3.0309,-3.0435,-3.0699,-3.0995,-3.1224,-3.1424,-3.1972,-3.2699,-3.3423,-3.4269,-3.4861,-3.5447,-3.5577,-3.5379,-3.4927,-3.5247,-3.5293,-3.488,-3.5224,-3.5554,-3.5577,-3.56,-3.5616,-3.5616,-3.5616,-3.5616,-3.5616,-3.5616,-3.5616,-3.5616,-3.5616,-3.5616,-3.5481,-3.4658,-3.3829,-3.3203,-3.2341,-3.1461,-3.1275,-3.119,-3.119,-3.119,-3.119,-3.119,-2.4189,-2.4189,-2.4189,-2.4189,-2.4261,-2.4778,-2.5158,-2.5429,-2.6324,-2.6829,-2.7027,-2.7109,-2.6726,-2.6012,-2.5999,-2.5515,-2.4678,-2.4652,-2.4426,-2.4138,-2.4125,-2.4125,-2.4125,-2.4125,-2.4125,-2.4125,-2.4125,-2.4229,-2.4549,-2.5132,-2.5589,-2.5761,-2.6041,-2.6048,-2.5696,-2.4747,-2.4186,-2.4193,-2.3804,-2.3595,-2.3595,-2.3595,-2.3595,-2.3535,-2.3017,-2.2703,-2.2613,-2.1784,-2.1425,-2.1665,-2.144,-2.141,-2.168,-2.1695,-2.1695,-2.1724,-2.2089,-2.2604,-2.3282,-2.3518,-2.3696,-2.3882,-2.4458,-2.5084,-2.5771,-2.6665,-2.7495,-2.8155,-2.8521,-2.8873,-2.925,-2.9506,-2.9755,-2.9951,-3.0182,-3.0621,-3.1375,-3.17,-3.2387,-3.3803,-3.4303,-3.4776,-3.5352,-3.5316,-3.4927,-3.4529,-3.4785,-3.4887,-3.448,-3.5045,-3.5402,-3.5247,-3.5379,-3.56,-3.5616,-3.5616,-3.5616,-3.5616,-3.5616,-3.5616,-3.5616,-3.5616,-3.5616,-3.5616,-3.4974,-3.4201,-3.3525,-3.3034,-3.2341,-3.1732,-3.119,-3.119,-3.119,-3.119,-3.119,-2.4315,-2.42,-2.4189,-2.4189,-2.4225,-2.4599,-2.4981,-2.5323,-2.6151,-2.6645,-2.6952,-2.7323,-2.7268,-2.6922,-2.6752,-2.6078,-2.5097,-2.5005,-2.4661,-2.4164,-2.4125,-2.4125,-2.4125,-2.4125,-2.4125,-2.4125,-2.4125,-2.4125,-2.4229,-2.5245,-2.5783,-2.5874,-2.6323,-2.6602,-2.6467,-2.5285,-2.4605,-2.4545,-2.3954,-2.3595,-2.3595,-2.3595,-2.3595,-2.355,-2.3197,-2.2942,-2.2927,-2.2308,-2.2054,-2.2203,-2.2069,-2.2074,-2.2203,-2.2218,-2.2218,-2.2248,-2.2652,-2.3194,-2.3709,-2.3638,-2.3764,-2.4163,-2.4701,-2.5447,-2.6275,-2.7,-2.7651,-2.8167,-2.8275,-2.8348,-2.8621,-2.8881,-2.912,-2.928,-2.9617,-3.0212,-3.0958,-3.11,-3.1742,-3.345,-3.359,-3.4164,-3.4858,-3.4793,-3.4382,-3.3944,-3.4219,-3.439,-3.402,-3.4512,-3.5021,-3.4833,-3.5155,-3.5402,-3.5554,-3.5616,-3.5616,-3.5616,-3.5616,-3.5616,-3.5616,-3.5616,-3.5616,-3.56,-3.5464,-3.489,-3.3694,-3.3237,-3.273,-3.1681,-3.119,-3.119,-3.119,-3.119,-3.119,-2.4613,-2.4223,-2.4189,-2.4189,-2.4189,-2.4261,-2.485,-2.5756,-2.5931,-2.6483,-2.7323,-2.7469,-2.7477,-2.7385,-2.6948,-2.6091,-2.5123,-2.5044,-2.4717,-2.4151,-2.4125,-2.4125,-2.4125,-2.4125,-2.4125,-2.4125,-2.4125,-2.4125,-2.4157,-2.5245,-2.5783,-2.5822,-2.6381,-2.6632,-2.6467,-2.536,-2.4634,-2.4605,-2.3984,-2.3595,-2.3595,-2.3595,-2.3595,-2.358,-2.3565,-2.352,-2.346,-2.2972,-2.2912,-2.3475,-2.2942,-2.2897,-2.3385,-2.346,-2.343,-2.346,-2.3505,-2.355,-2.358,-2.3661,-2.3916,-2.4545,-2.5265,-2.6036,-2.6663,-2.7425,-2.7898,-2.8005,-2.8044,-2.8268,-2.8811,-2.8904,-2.9182,-2.9528,-2.9705,-2.9798,-2.988,-2.9999,-3.0535,-3.1795,-3.2385,-3.2988,-3.3973,-3.4061,-3.3793,-3.3511,-3.3691,-3.3869,-3.3547,-3.3818,-3.4284,-3.4625,-3.4816,-3.4998,-3.5447,-3.56,-3.56,-3.5616,-3.5616,-3.5616,-3.5616,-3.5616,-3.56,-3.543,-3.503,-3.4438,-3.3592,-3.2831,-3.2158,-3.1498,-3.1241,-3.119,-3.119,-3.119,-3.119,-2.4349,-2.4189,-2.4189,-2.4189,-2.4189,-2.4189,-2.4647,-2.5323,-2.5756,-2.6311,-2.6985,-2.7356,-2.7503,-2.7477,-2.7314,-2.6595,-2.5576,-2.5511,-2.5014,-2.4204,-2.4125,-2.4125,-2.4125,-2.4125,-2.4125,-2.4125,-2.4125,-2.4125,-2.4216,-2.5245,-2.5783,-2.5986,-2.6773,-2.7255,-2.7016,-2.5929,-2.5247,-2.5113,-2.4178,-2.3595,-2.361,-2.3595,-2.3595,-2.3595,-2.3595,-2.3595,-2.3595,-2.3385,-2.337,-2.3595,-2.3392,-2.3355,-2.3565,-2.3595,-2.3595,-2.3595,-2.3595,-2.3595,-2.364,-2.4014,-2.4335,-2.4634,-2.5691,-2.6408,-2.6817,-2.7448,-2.7905,-2.7955,-2.798,-2.8162,-2.8293,-2.8389,-2.851,-2.8732,-2.8787,-2.8958,-2.9234,-2.938,-3.0005,-3.1586,-3.2611,-3.3394,-3.3339,-3.3485,-3.3277,-3.2857,-3.3161,-3.3355,-3.3339,-3.364,-3.4036,-3.4235,-3.4309,-3.4358,-3.4504,-3.5224,-3.56,-3.56,-3.5616,-3.5616,-3.5616,-3.5532,-3.5498,-3.5047,-3.459,-3.3964,-3.3152,-3.2256,-3.1582,-3.141,-3.119,-3.119,-3.119,-3.119,-3.119,-2.4189,-2.4189,-2.4189,-2.4189,-2.4189,-2.4189,-2.4611,-2.5288,-2.5721,-2.6277,-2.6952,-2.7356,-2.7503,-2.7503,-2.7503,-2.7027,-2.6125,-2.5903,-2.521,-2.4148,-2.4125,-2.4125,-2.4125,-2.4125,-2.4125,-2.4125,-2.4125,-2.4171,-2.4476,-2.5328,-2.5864,-2.6149,-2.7111,-2.7585,-2.7405,-2.6467,-2.5929,-2.5689,-2.4597,-2.3939,-2.3909,-2.3699,-2.3595,-2.3595,-2.3595,-2.3595,-2.3595,-2.3595,-2.3595,-2.3595,-2.3595,-2.3595,-2.3595,-2.3595,-2.3595,-2.3595,-2.3595,-2.3699,-2.3954,-2.4335,-2.4784,-2.5217,-2.6048,-2.6696,-2.7024,-2.7485,-2.7745,-2.784,-2.788,-2.788,-2.7865,-2.7865,-2.794,-2.8088,-2.8152,-2.8293,-2.87,-2.8943,-2.9878,-3.1351,-3.2619,-3.314,-3.3055,-3.2975,-3.2761,-3.2437,-3.2749,-3.2906,-3.2986,-3.3214,-3.3563,-3.3691,-3.3742,-3.3869,-3.407,-3.4625,-3.5068,-3.5155,-3.5447,-3.5509,-3.5374,-3.5313,-3.5031,-3.4602,-3.4049,-3.344,-3.2679,-3.1749,-3.136,-3.1224,-3.119,-3.119,-3.119,-3.119,-3.119,-2.4189,-2.4189,-2.4189,-2.4189,-2.4189,-2.4189,-2.4838,-2.5756,-2.5896,-2.6449,-2.7323,-2.7503,-2.7503,-2.7503,-2.7503,-2.7163,-2.6595,-2.6125,-2.5301,-2.4282,-2.4138,-2.4125,-2.4125,-2.4125,-2.4125,-2.4125,-2.4125,-2.439,-2.4863,-2.5467,-2.6068,-2.6642,-2.7229,-2.7585,-2.7585,-2.6896,-2.6542,-2.6258,-2.5241,-2.4605,-2.4515,-2.3999,-2.367,-2.361,-2.3595,-2.3595,-2.3595,-2.3595,-2.3595,-2.3595,-2.3595,-2.3595,-2.3595,-2.3595,-2.3595,-2.3595,-2.3595,-2.3939,-2.4455,-2.4634,-2.5262,-2.6153,-2.6587,-2.6941,-2.7415,-2.758,-2.7625,-2.765,-2.7625,-2.7625,-2.7625,-2.7625,-2.7725,-2.797,-2.802,-2.8054,-2.816,-2.8637,-2.9585,-3.1025,-3.2075,-3.2407,-3.2425,-3.2465,-3.2437,-3.2437,-3.2465,-3.252,-3.252,-3.2629,-3.2707,-3.3039,-3.3198,-3.3303,-3.364,-3.402,-3.4317,-3.4633,-3.5028,-3.5237,-3.4895,-3.4728,-3.4175,-3.3678,-3.3026,-3.2442,-3.229,-3.1478,-3.1309,-3.119,-3.119,-3.119,-3.119,-3.119,-3.119,-2.4189,-2.4189,-2.4189,-2.4189,-2.4189,-2.4189,-2.4862,-2.5861,-2.5896,-2.6483,-2.7356,-2.7503,-2.7503,-2.7503,-2.749,-2.7223,-2.6706,-2.6438,-2.5816,-2.4792,-2.4321,-2.4125,-2.4125,-2.4125,-2.4125,-2.4125,-2.4125,-2.42,-2.452,-2.5328,-2.5933,-2.6229,-2.7111,-2.756,-2.753,-2.6971,-2.6602,-2.6482,-2.5749,-2.5098,-2.4664,-2.4395,-2.4088,-2.3655,-2.3595,-2.3595,-2.3595,-2.3595,-2.3595,-2.3595,-2.3595,-2.3595,-2.3595,-2.3595,-2.3595,-2.3595,-2.3595,-2.3887,-2.4545,-2.5053,-2.5674,-2.6467,-2.7016,-2.733,-2.7555,-2.7585,-2.7585,-2.7585,-2.7585,-2.7585,-2.7585,-2.7585,-2.7675,-2.784,-2.7955,-2.804,-2.8293,-2.9129,-3.0188,-3.1137,-3.1873,-3.2241,-3.2342,-3.2327,-3.2315,-3.2398,-3.2398,-3.2398,-3.2398,-3.2398,-3.2425,-3.2629,-3.2668,-3.2761,-3.3055,-3.3345,-3.3614,-3.3953,-3.439,-3.475,-3.4459,-3.3891,-3.3344,-3.2619,-3.1957,-3.1654,-3.1527,-3.1388,-3.1162,-3.1171,-3.1171,-3.1171,-3.119,-3.119,-3.119,-2.4189,-2.4189,-2.4189,-2.4189,-2.4189,-2.4189,-2.485,-2.5826,-2.5896,-2.6505,-2.7356,-2.7503,-2.7503,-2.7503,-2.7503,-2.7294,-2.6987,-2.6824,-2.6177,-2.5332,-2.47,-2.4347,-2.4164,-2.4125,-2.4125,-2.4125,-2.4125,-2.4229,-2.4476,-2.5118,-2.5605,-2.5946,-2.6785,-2.7255,-2.7276,-2.7086,-2.6986,-2.6896,-2.6303,-2.5644,-2.5053,-2.4724,-2.4291,-2.3714,-2.3595,-2.3595,-2.3595,-2.3595,-2.3595,-2.3595,-2.3595,-2.3595,-2.3595,-2.3595,-2.3595,-2.364,-2.3894,-2.4276,-2.4933,-2.563,-2.6258,-2.6886,-2.736,-2.7585,-2.7585,-2.7585,-2.7585,-2.7585,-2.7585,-2.7585,-2.7585,-2.7585,-2.7665,-2.77,-2.8097,-2.8531,-2.9067,-2.992,-3.0815,-3.1554,-3.2002,-3.2228,-3.2342,-3.2342,-3.2287,-3.2398,-3.2398,-3.2398,-3.2398,-3.2398,-3.2398,-3.2398,-3.248,-3.2492,-3.248,-3.2656,-3.2868,-3.3251,-3.3665,-3.3972,-3.3982,-3.3219,-3.2544,-3.1472,-3.0658,-3.0882,-3.0808,-3.0918,-3.0858,-3.0975,-3.1015,-3.1055,-3.1035,-3.1134,-3.1171,-2.4189,-2.4189,-2.4189,-2.4189,-2.4189,-2.4189,-2.485,-2.5791,-2.5896,-2.6496,-2.7323,-2.7503,-2.7503,-2.7503,-2.7503,-2.7451,-2.7398,-2.7013,-2.6425,-2.5785,-2.5223,-2.4726,-2.4161,-2.4125,-2.4125,-2.4125,-2.4125,-2.4374,-2.4734,-2.4977,-2.5272,-2.5728,-2.6363,-2.6736,-2.6878,-2.7276,-2.751,-2.7405,-2.6881,-2.6213,-2.5531,-2.4933,-2.4276,-2.364,-2.3595,-2.3595,-2.3595,-2.3595,-2.3595,-2.3595,-2.3595,-2.3595,-2.3595,-2.3595,-2.3595,-2.3625,-2.4186,-2.4769,-2.551,-2.5974,-2.6716,-2.739,-2.7525,-2.7585,-2.7585,-2.7585,-2.7585,-2.7585,-2.7585,-2.7585,-2.7585,-2.7585,-2.763,-2.7775,-2.8312,-2.924,-3.0691,-3.0946,-3.1244,-3.1888,-3.2219,-3.2219,-3.2315,-3.2315,-3.2315,-3.2355,-3.237,-3.237,-3.2398,-3.2398,-3.2398,-3.2398,-3.2398,-3.2425,-3.2425,-3.2453,-3.2668,-3.2788,-3.3061,-3.3181,-3.3054,-3.2264,-3.1621,-3.0545,-2.9847,-3.0044,-3.0246,-3.041,-3.0472,-3.0493,-3.0576,-3.074,-3.0818,-3.0797,-3.0918,-2.4189,-2.4189,-2.4189,-2.4189,-2.4189,-2.4189,-2.4862,-2.5826,-2.5896,-2.6496,-2.7323,-2.7503,-2.7503,-2.7503,-2.7503,-2.7503,-2.7438,-2.7333,-2.6726,-2.5916,-2.5694,-2.4984,-2.4266,-2.4125,-2.4125,-2.4125,-2.4125,-2.4171,-2.4374,-2.4763,-2.502,-2.5231,-2.6176,-2.6683,-2.6788,-2.728,-2.756,-2.751,-2.6956,-2.6303,-2.5644,-2.4978,-2.4276,-2.367,-2.361,-2.3595,-2.3595,-2.3595,-2.3595,-2.3595,-2.3595,-2.3595,-2.3595,-2.3595,-2.3595,-2.3655,-2.3819,-2.4395,-2.5375,-2.5794,-2.6408,-2.7435,-2.7585,-2.7585,-2.7585,-2.7585,-2.7585,-2.7585,-2.7585,-2.7585,-2.7585,-2.7585,-2.782,-2.8387,-2.8647,-2.9369,-3.0765,-3.1049,-3.121,-3.1998,-3.201,-3.2025,-3.2066,-3.2066,-3.2109,-3.2219,-3.2259,-3.2315,-3.237,-3.2398,-3.2398,-3.2398,-3.2398,-3.2398,-3.2398,-3.2398,-3.2453,-3.2465,-3.2493,-3.2373,-3.1878,-3.0992,-3.0466,-2.9791,-2.9421,-2.9477,-2.975,-2.9984,-3.0006,-2.9989,-3.0097,-3.0241,-3.014,-3.0097,-3.0351,-2.4189,-2.4189,-2.4189,-2.4189,-2.4189,-2.4189,-2.4862,-2.5756,-2.5931,-2.6517,-2.7323,-2.7503,-2.7503,-2.7503,-2.7503,-2.7503,-2.7503,-2.7503,-2.685,-2.5832,-2.5258,-2.467,-2.4217,-2.4125,-2.4125,-2.4125,-2.4125,-2.4125,-2.4171,-2.4447,-2.4591,-2.4835,-2.5742,-2.6283,-2.6377,-2.7188,-2.7585,-2.7525,-2.718,-2.6701,-2.6033,-2.5352,-2.4709,-2.4103,-2.3804,-2.3595,-2.3595,-2.3595,-2.3595,-2.3595,-2.3595,-2.3595,-2.3595,-2.3595,-2.3595,-2.361,-2.3827,-2.4515,-2.5405,-2.5815,-2.6497,-2.7345,-2.7585,-2.7585,-2.7585,-2.7585,-2.7585,-2.7585,-2.7585,-2.7585,-2.7585,-2.7585,-2.8006,-2.8624,-2.8937,-2.9614,-3.109,-3.124,-3.15,-3.1875,-3.194,-3.1841,-3.1968,-3.1983,-3.2053,-3.2163,-3.2274,-3.2315,-3.2398,-3.2398,-3.2398,-3.2398,-3.2398,-3.2398,-3.2398,-3.2398,-3.2398,-3.2425,-3.2379,-3.2121,-3.1182,-3.0258,-2.9788,-2.9446,-2.9069,-2.8943,-2.9273,-2.9522,-2.9506,-2.955,-2.9639,-2.9677,-2.9595,-2.9572,-2.9815,-2.4189,-2.4189,-2.4189,-2.4189,-2.4189,-2.4225,-2.4862,-2.5791,-2.5896,-2.6517,-2.7323,-2.7503,-2.7503,-2.7503,-2.7503,-2.7503,-2.749,-2.7372,-2.6674,-2.5636,-2.4775,-2.4164,-2.4164,-2.4125,-2.4125,-2.4125,-2.4125,-2.4125,-2.4112,-2.4141,-2.4141,-2.4476,-2.5314,-2.5755,-2.6149,-2.7008,-2.7534,-2.757,-2.7375,-2.7016,-2.6378,-2.5704,-2.4978,-2.45,-2.3879,-2.3625,-2.3595,-2.3595,-2.3595,-2.3595,-2.3595,-2.3595,-2.361,-2.3625,-2.3655,-2.3729,-2.4171,-2.4829,-2.5516,-2.6078,-2.6776,-2.7405,-2.7585,-2.7585,-2.7585,-2.7585,-2.7585,-2.7585,-2.7585,-2.7585,-2.7585,-2.7585,-2.7875,-2.8478,-2.9045,-2.9862,-3.0631,-3.1343,-3.1798,-3.1925,-3.187,-3.1841,-3.194,-3.2023,-3.2107,-3.2025,-3.2122,-3.2163,-3.2247,-3.2287,-3.2315,-3.2342,-3.237,-3.2398,-3.2398,-3.2398,-3.2398,-3.2398,-3.2425,-3.209,-3.1001,-3.0156,-2.9566,-2.9101,-2.8799,-2.8724,-2.8897,-2.902,-2.9028,-2.9051,-2.9136,-2.9159,-2.9159,-2.9205,-2.9348,-2.4189,-2.4189,-2.4189,-2.4189,-2.4189,-2.4225,-2.485,-2.5896,-2.5896,-2.6517,-2.7323,-2.7503,-2.7503,-2.7503,-2.7503,-2.7503,-2.7411,-2.7053,-2.6242,-2.5171,-2.4478,-2.4151,-2.4125,-2.4125,-2.4125,-2.4125,-2.4125,-2.4125,-2.4125,-2.4125,-2.4125,-2.4287,-2.5175,-2.5783,-2.5973,-2.6941,-2.7585,-2.751,-2.7151,-2.6881,-2.6512,-2.5561,-2.4903,-2.4619,-2.4014,-2.367,-2.361,-2.3595,-2.3595,-2.3595,-2.3595,-2.361,-2.3729,-2.4103,-2.4126,-2.3984,-2.4291,-2.4918,-2.5486,-2.5884,-2.6348,-2.742,-2.7585,-2.7585,-2.7585,-2.7585,-2.7585,-2.7585,-2.7585,-2.7585,-2.7585,-2.7585,-2.7715,-2.8,-2.8483,-2.8948,-2.933,-3.0563,-3.1489,-3.171,-3.1668,-3.1553,-3.1611,-3.1668,-3.1754,-3.187,-3.194,-3.1996,-3.2094,-3.2219,-3.2259,-3.2315,-3.237,-3.2398,-3.2398,-3.2398,-3.2398,-3.2398,-3.2398,-3.1951,-3.0878,-3.0248,-2.9694,-2.9104,-2.8528,-2.8549,-2.87,-2.8629,-2.8677,-2.8653,-2.8677,-2.8724,-2.8795,-2.8818,-2.8897,-2.4189,-2.4189,-2.4189,-2.4189,-2.4189,-2.4225,-2.485,-2.5756,-2.5896,-2.6517,-2.7323,-2.7503,-2.7503,-2.7503,-2.7503,-2.7503,-2.7281,-2.6634,-2.5824,-2.5031,-2.44,-2.4138,-2.4125,-2.4125,-2.4125,-2.4125,-2.4125,-2.4125,-2.4125,-2.4125,-2.4125,-2.42,-2.5217,-2.5728,-2.5973,-2.6941,-2.7534,-2.7555,-2.7285,-2.7076,-2.6896,-2.6108,-2.5307,-2.5008,-2.447,-2.4193,-2.4515,-2.4238,-2.4096,-2.3999,-2.3804,-2.3789,-2.4036,-2.441,-2.4515,-2.4649,-2.4814,-2.5405,-2.5884,-2.6123,-2.6527,-2.7495,-2.7585,-2.7585,-2.7585,-2.7585,-2.7585,-2.7585,-2.7585,-2.7585,-2.7585,-2.7585,-2.7585,-2.772,-2.8173,-2.8562,-2.8861,-3.0058,-3.1061,-3.1236,-3.1372,-3.1465,-3.1496,-3.1435,-3.1626,-3.1826,-3.2053,-3.2094,-3.2135,-3.2274,-3.2315,-3.2342,-3.2398,-3.2398,-3.2398,-3.2398,-3.2398,-3.2398,-3.2398,-3.172,-3.0725,-3.0279,-2.9925,-2.9196,-2.8411,-2.8411,-2.8493,-2.8411,-2.8411,-2.8493,-2.8517,-2.8444,-2.8468,-2.8645,-2.8677,-2.4189,-2.4189,-2.4189,-2.4189,-2.4189,-2.4236,-2.485,-2.5826,-2.5896,-2.6517,-2.7356,-2.7503,-2.7503,-2.7503,-2.7503,-2.7438,-2.6968,-2.6341,-2.5511,-2.4739,-2.4334,-2.4138,-2.4125,-2.4125,-2.4125,-2.4125,-2.4125,-2.4125,-2.4125,-2.4125,-2.4125,-2.4274,-2.5105,-2.555,-2.5906,-2.668,-2.728,-2.7302,-2.7297,-2.7394,-2.738,-2.6811,-2.6153,-2.5525,-2.5083,-2.4948,-2.5187,-2.5008,-2.4739,-2.4724,-2.4223,-2.4343,-2.4694,-2.4814,-2.4963,-2.5555,-2.5644,-2.5989,-2.6348,-2.6581,-2.6851,-2.751,-2.7585,-2.7585,-2.7585,-2.7585,-2.7585,-2.7585,-2.7585,-2.7585,-2.7585,-2.7585,-2.7585,-2.7675,-2.8113,-2.8397,-2.8652,-2.9505,-3.0073,-3.0432,-3.0657,-3.0836,-3.1106,-3.1252,-3.1518,-3.1739,-3.1979,-3.2104,-3.2102,-3.2201,-3.2226,-3.2299,-3.2342,-3.2398,-3.2398,-3.2351,-3.2367,-3.2321,-3.2336,-3.1536,-3.0663,-3.0386,-2.994,-2.8996,-2.8411,-2.8411,-2.8411,-2.8411,-2.8411,-2.8411,-2.846,-2.8468,-2.8493,-2.8517,-2.8621,-2.4189,-2.4189,-2.4189,-2.4189,-2.4189,-2.4189,-2.485,-2.5791,-2.5931,-2.6517,-2.7423,-2.7503,-2.7503,-2.7503,-2.7503,-2.7007,-2.6328,-2.5832,-2.5245,-2.4478,-2.4151,-2.4125,-2.4125,-2.4125,-2.4125,-2.4125,-2.4125,-2.4125,-2.4125,-2.4125,-2.4125,-2.4258,-2.4835,-2.5188,-2.5342,-2.5783,-2.6522,-2.6919,-2.6971,-2.7152,-2.7375,-2.6956,-2.6408,-2.5824,-2.5561,-2.56,-2.5615,-2.557,-2.5427,-2.5435,-2.5315,-2.56,-2.5869,-2.5689,-2.5585,-2.5809,-2.6198,-2.6566,-2.6677,-2.6686,-2.6971,-2.7405,-2.7585,-2.7585,-2.7585,-2.7585,-2.7585,-2.7585,-2.7585,-2.7585,-2.7585,-2.7585,-2.7585,-2.7645,-2.7705,-2.7854,-2.7989,-2.8513,-2.9202,-2.9535,-2.9819,-3.0163,-3.0505,-3.076,-3.0921,-3.1097,-3.1313,-3.1399,-3.1414,-3.1703,-3.1992,-3.2139,-3.2274,-3.2342,-3.2398,-3.2336,-3.229,-3.2182,-3.2028,-3.1428,-3.0755,-3.0509,-2.991,-2.8889,-2.8411,-2.8411,-2.8411,-2.8411,-2.8411,-2.8411,-2.8468,-2.8565,-2.87,-2.8873,-2.9159,-2.4189,-2.4189,-2.4189,-2.4189,-2.4261,-2.4503,-2.5087,-2.5861,-2.6173,-2.6735,-2.7323,-2.7503,-2.7503,-2.7503,-2.7503,-2.6863,-2.6028,-2.5767,-2.5127,-2.4321,-2.4125,-2.4125,-2.4125,-2.4125,-2.4125,-2.4125,-2.4125,-2.4125,-2.4125,-2.4125,-2.4125,-2.4258,-2.4706,-2.5005,-2.5118,-2.5577,-2.6095,-2.6537,-2.6736,-2.6997,-2.7489,-2.6971,-2.6542,-2.6587,-2.6303,-2.6303,-2.6551,-2.6228,-2.6138,-2.6048,-2.5756,-2.6019,-2.6288,-2.6378,-2.6258,-2.6557,-2.6911,-2.7106,-2.7106,-2.7136,-2.73,-2.751,-2.7585,-2.7585,-2.7585,-2.7585,-2.7585,-2.7585,-2.7585,-2.7585,-2.7585,-2.7585,-2.7585,-2.7585,-2.7585,-2.7585,-2.766,-2.7944,-2.8304,-2.8753,-2.9292,-2.9654,-2.9894,-3.0131,-3.0223,-3.0413,-3.0676,-3.0736,-3.0741,-3.1036,-3.1433,-3.1714,-3.183,-3.205,-3.2044,-3.1921,-3.189,-3.1844,-3.1643,-3.1043,-3.0509,-3.0109,-2.9494,-2.8658,-2.8442,-2.8411,-2.8411,-2.8411,-2.8411,-2.8444,-2.8645,-2.8842,-2.9044,-2.928,-2.9572,-2.4189,-2.4189,-2.4189,-2.4189,-2.4298,-2.4767,-2.5323,-2.5931,-2.6461,-2.6985,-2.7469,-2.7503,-2.7503,-2.7503,-2.7372,-2.6889,-2.5845,-2.578,-2.5127,-2.4308,-2.4125,-2.4125,-2.4125,-2.4125,-2.4125,-2.4125,-2.4125,-2.4125,-2.4125,-2.4125,-2.4125,-2.42,-2.4607,-2.482,-2.4892,-2.5258,-2.5933,-2.6363,-2.6683,-2.7037,-2.7299,-2.7136,-2.7046,-2.7525,-2.7051,-2.7046,-2.733,-2.7061,-2.6811,-2.6662,-2.6437,-2.6288,-2.6677,-2.6782,-2.7046,-2.748,-2.7585,-2.7585,-2.757,-2.7555,-2.751,-2.7585,-2.7585,-2.7585,-2.7585,-2.7585,-2.7585,-2.7585,-2.7585,-2.7585,-2.7585,-2.7585,-2.7585,-2.7585,-2.7585,-2.7585,-2.7585,-2.7675,-2.7705,-2.8199,-2.8798,-2.9127,-2.9295,-2.943,-2.9549,-2.9948,-3.021,-3.0165,-3.018,-3.0303,-3.0655,-3.1041,-3.1336,-3.1605,-3.1597,-3.1305,-3.1243,-3.1182,-3.0966,-3.0509,-3.0002,-2.9525,-2.8941,-2.8535,-2.8442,-2.8411,-2.8411,-2.8411,-2.8411,-2.8541,-2.885,-2.9136,-2.9348,-2.9689,-3.0038,-2.4189,-2.4189,-2.4225,-2.4189,-2.4334,-2.485,-2.5358,-2.5965,-2.6496,-2.6998,-2.7503,-2.7503,-2.7503,-2.749,-2.7464,-2.6811,-2.6067,-2.5636,-2.5101,-2.423,-2.4125,-2.4125,-2.4125,-2.4125,-2.4125,-2.4125,-2.4125,-2.4125,-2.4125,-2.4125,-2.4125,-2.4171,-2.42,-2.4258,-2.439,-2.4835,-2.537,-2.5906,-2.6457,-2.7023,-2.7469,-2.748,-2.7495,-2.7525,-2.748,-2.7435,-2.757,-2.742,-2.739,-2.739,-2.736,-2.7375,-2.748,-2.748,-2.7495,-2.757,-2.7585,-2.7585,-2.7585,-2.7585,-2.7585,-2.7585,-2.7585,-2.7585,-2.7585,-2.7585,-2.7585,-2.7585,-2.7585,-2.7585,-2.7585,-2.7585,-2.7585,-2.7585,-2.7585,-2.7585,-2.7585,-2.7585,-2.7585,-2.7615,-2.8214,-2.8438,-2.8607,-2.8742,-2.8906,-2.936,-2.9672,-2.9582,-2.9618,-2.9709,-2.9948,-3.0348,-3.0768,-3.1094,-3.1074,-3.0797,-3.0582,-3.052,-3.0197,-2.991,-2.951,-2.9079,-2.8956,-2.8642,-2.8504,-2.8411,-2.8411,-2.8411,-2.8411,-2.8573,-2.8826,-2.925,-2.9677,-3.0032,-3.0309,-2.4957,-2.4683,-2.5028,-2.517,-2.5241,-2.5721,-2.6117,-2.6427,-2.6918,-2.7289,-2.7469,-2.7503,-2.7503,-2.7438,-2.7236,-2.6595,-2.589,-2.5511,-2.4922,-2.4282,-2.4125,-2.4125,-2.4125,-2.4125,-2.4125,-2.4125,-2.4125,-2.4125,-2.4125,-2.4125,-2.4125,-2.4125,-2.4125,-2.4141,-2.4112,-2.4374,-2.502,-2.5797,-2.668,-2.7306,-2.7534,-2.7585,-2.7585,-2.7585,-2.7585,-2.7585,-2.7585,-2.7585,-2.7585,-2.7585,-2.7585,-2.7585,-2.7585,-2.7585,-2.7585,-2.7585,-2.7585,-2.7585,-2.7585,-2.7585,-2.7585,-2.7585,-2.7585,-2.7585,-2.7585,-2.7585,-2.7585,-2.7585,-2.7585,-2.7585,-2.7585,-2.7585,-2.7585,-2.7585,-2.7585,-2.7585,-2.7585,-2.7585,-2.7585,-2.7585,-2.7615,-2.7899,-2.8109,-2.8169,-2.8233,-2.8423,-2.864,-2.8565,-2.8748,-2.9009,-2.9332,-2.972,-3.0145,-3.0555,-3.0417,-3.0228,-2.9935,-2.975,-2.9319,-2.9089,-2.8925,-2.8679,-2.8658,-2.8611,-2.8473,-2.8411,-2.8411,-2.8411,-2.8411,-2.8573,-2.8795,-2.9159,-2.9528,-2.9788,-3.0032,-2.5826,-2.5476,-2.5791,-2.5896,-2.5965,-2.6461,-2.6578,-2.6532,-2.7204,-2.7411,-2.7346,-2.7398,-2.7438,-2.7262,-2.6844,-2.634,-2.5576,-2.5188,-2.4648,-2.4282,-2.4125,-2.4125,-2.4125,-2.4125,-2.4125,-2.4125,-2.4125,-2.4125,-2.4125,-2.4125,-2.4125,-2.4125,-2.4125,-2.4125,-2.4141,-2.439,-2.4935,-2.5783,-2.6534,-2.7045,-2.728,-2.7346,-2.7473,-2.7549,-2.7585,-2.7585,-2.7585,-2.7585,-2.7585,-2.7585,-2.7585,-2.7585,-2.7585,-2.7585,-2.7585,-2.7585,-2.7585,-2.7585,-2.7585,-2.7585,-2.7585,-2.7585,-2.7585,-2.7585,-2.7585,-2.7585,-2.7585,-2.7585,-2.7585,-2.7585,-2.7585,-2.7585,-2.7585,-2.7585,-2.7585,-2.7585,-2.7585,-2.7585,-2.7585,-2.7585,-2.7585,-2.7585,-2.772,-2.766,-2.7645,-2.763,-2.76,-2.7625,-2.7966,-2.8424,-2.8718,-2.9112,-2.93,-2.9664,-2.9612,-2.9458,-2.9227,-2.9119,-2.8688,-2.8504,-2.855,-2.8535,-2.8488,-2.8442,-2.8411,-2.8411,-2.8411,-2.8411,-2.8436,-2.8573,-2.8724,-2.8974,-2.9257,-2.9528,-2.9766,-2.6611,-2.6543,-2.6092,-2.5953,-2.5988,-2.6474,-2.6363,-2.6184,-2.7082,-2.7223,-2.7,-2.7236,-2.7249,-2.6831,-2.6627,-2.6052,-2.5083,-2.5018,-2.4583,-2.4256,-2.4125,-2.4125,-2.4125,-2.4125,-2.4125,-2.4125,-2.4125,-2.4125,-2.4125,-2.4125,-2.4125,-2.4125,-2.4125,-2.4125,-2.4258,-2.4591,-2.502,-2.5632,-2.6081,-2.6349,-2.6642,-2.6814,-2.7023,-2.7448,-2.7575,-2.7585,-2.7585,-2.7585,-2.7585,-2.7585,-2.7585,-2.7585,-2.7585,-2.7585,-2.7585,-2.7585,-2.7585,-2.7585,-2.7585,-2.7585,-2.7585,-2.7585,-2.7585,-2.7585,-2.7585,-2.7585,-2.7585,-2.7585,-2.7585,-2.7585,-2.7585,-2.7585,-2.7585,-2.7585,-2.7585,-2.7585,-2.7585,-2.7585,-2.7585,-2.7585,-2.7585,-2.7585,-2.7585,-2.7585,-2.7585,-2.7585,-2.7585,-2.7625,-2.779,-2.8142,-2.8246,-2.8425,-2.8532,-2.8649,-2.8642,-2.8596,-2.875,-2.8781,-2.8535,-2.8442,-2.8442,-2.8411,-2.8411,-2.8411,-2.8411,-2.8411,-2.8411,-2.8411,-2.842,-2.8517,-2.8668,-2.8826,-2.8974,-2.9205,-2.9432,-2.6982,-2.6672,-2.646,-2.6585,-2.6833,-2.6367,-2.6424,-2.6801,-2.6967,-2.7131,-2.7137,-2.7406,-2.721,-2.67,-2.6229,-2.5746,-2.4975,-2.457,-2.4334,-2.4204,-2.4125,-2.4125,-2.4125,-2.4125,-2.4125,-2.4125,-2.4125,-2.4125,-2.4125,-2.4125,-2.4125,-2.4125,-2.4125,-2.4125,-2.4316,-2.4649,-2.5061,-2.53,-2.5605,-2.5946,-2.6027,-2.6176,-2.6457,-2.6997,-2.7049,-2.728,-2.7524,-2.7585,-2.7585,-2.7585,-2.7585,-2.7585,-2.7585,-2.7585,-2.7585,-2.7585,-2.7585,-2.7585,-2.7585,-2.7585,-2.7585,-2.7585,-2.7585,-2.7585,-2.7585,-2.7585,-2.7585,-2.7585,-2.7585,-2.7585,-2.7585,-2.7585,-2.7585,-2.7585,-2.7585,-2.7585,-2.7585,-2.7585,-2.7585,-2.7585,-2.7585,-2.7585,-2.7585,-2.7585,-2.7585,-2.7585,-2.761,-2.765,-2.7815,-2.793,-2.8054,-2.8152,-2.8275,-2.8348,-2.8372,-2.8387,-2.8411,-2.8411,-2.8411,-2.8411,-2.8411,-2.8411,-2.8411,-2.8411,-2.8411,-2.8411,-2.8411,-2.8411,-2.8444,-2.8493,-2.8517,-2.8573,-2.8748,-2.8943,-2.9152,-2.6354,-2.6007,-2.5818,-2.6134,-2.6607,-2.5952,-2.5835,-2.6173,-2.6051,-2.6284,-2.6784,-2.6869,-2.6654,-2.6087,-2.5696,-2.5188,-2.4653,-2.4275,-2.4132,-2.4096,-2.4125,-2.4125,-2.4125,-2.4125,-2.4125,-2.4125,-2.4125,-2.4125,-2.4125,-2.4125,-2.4125,-2.4125,-2.4125,-2.4125,-2.42,-2.4476,-2.4763,-2.4863,-2.5034,-2.5439,-2.5495,-2.5755,-2.6122,-2.6695,-2.693,-2.7214,-2.7509,-2.7585,-2.7585,-2.7585,-2.7585,-2.7585,-2.7585,-2.7585,-2.7585,-2.7585,-2.7585,-2.7585,-2.7585,-2.7585,-2.7585,-2.7585,-2.7585,-2.7585,-2.7585,-2.7585,-2.7585,-2.7585,-2.7585,-2.7585,-2.7585,-2.7585,-2.7585,-2.7585,-2.7585,-2.7585,-2.7585,-2.7585,-2.7585,-2.7585,-2.7585,-2.7585,-2.7585,-2.7585,-2.7585,-2.7585,-2.7585,-2.765,-2.779,-2.7905,-2.798,-2.8103,-2.8201,-2.8275,-2.8323,-2.8323,-2.8323,-2.8411,-2.8411,-2.8411,-2.8411,-2.8411,-2.8411,-2.8411,-2.8411,-2.8411,-2.8411,-2.8411,-2.8411,-2.8436,-2.8444,-2.8493,-2.8779,-2.8997,-2.9036,-2.4546,-2.4365,-2.389,-2.423,-2.5058,-2.5109,-2.4613,-2.4252,-2.4526,-2.4985,-2.5493,-2.5818,-2.5587,-2.5039,-2.4948,-2.4611,-2.4226,-2.4001,-2.4008,-2.4096,-2.4125,-2.4125,-2.4125,-2.4125,-2.4125,-2.4125,-2.4125,-2.4125,-2.4125,-2.4125,-2.4125,-2.4125,-2.4125,-2.4125,-2.4125,-2.4112,-2.4141,-2.4141,-2.4245,-2.4578,-2.4991,-2.5412,-2.596,-2.6496,-2.7008,-2.7291,-2.7534,-2.7585,-2.7585,-2.7585,-2.7585,-2.7585,-2.7585,-2.7585,-2.7585,-2.7585,-2.7585,-2.7585,-2.7585,-2.7585,-2.7585,-2.7585,-2.7585,-2.7585,-2.7585,-2.7585,-2.7585,-2.7585,-2.7585,-2.7585,-2.7585,-2.7585,-2.7585,-2.7585,-2.7585,-2.7585,-2.7585,-2.7585,-2.7585,-2.7585,-2.7585,-2.7585,-2.7585,-2.7585,-2.7585,-2.7585,-2.7585,-2.7675,-2.779,-2.7865,-2.793,-2.8029,-2.8128,-2.8152,-2.8201,-2.821,-2.8259,-2.8348,-2.8387,-2.8348,-2.8348,-2.8348,-2.8348,-2.8387,-2.8411,-2.8411,-2.8411,-2.8411,-2.8411,-2.8411,-2.8411,-2.8517,-2.8826,-2.8974,-2.892,-2.4164,-2.3786,-2.3582,-2.3279,-2.3067,-2.3364,-2.368,-2.4134,-2.4643,-2.5116,-2.551,-2.5667,-2.5418,-2.4984,-2.4689,-2.4429,-2.4086,-2.4037,-2.4096,-2.4096,-2.4125,-2.4125,-2.4125,-2.4125,-2.4125,-2.4125,-2.4125,-2.4125,-2.4125,-2.4125,-2.4125,-2.4125,-2.4125,-2.4125,-2.4125,-2.4125,-2.4125,-2.4125,-2.4141,-2.4229,-2.4447,-2.5005,-2.5564,-2.6136,-2.6695,-2.7111,-2.7433,-2.7433,-2.7433,-2.7458,-2.7458,-2.7509,-2.7549,-2.7575,-2.7585,-2.7585,-2.7585,-2.7585,-2.7585,-2.7585,-2.7585,-2.7585,-2.7585,-2.7585,-2.7585,-2.7585,-2.7585,-2.7585,-2.7585,-2.7585,-2.7585,-2.7585,-2.7585,-2.7585,-2.7585,-2.7585,-2.7585,-2.7585,-2.7585,-2.7585,-2.7585,-2.7585,-2.7585,-2.7585,-2.7585,-2.7585,-2.7585,-2.765,-2.7765,-2.7815,-2.788,-2.7955,-2.8029,-2.8029,-2.8054,-2.8103,-2.8088,-2.8152,-2.8201,-2.8226,-2.8226,-2.825,-2.825,-2.825,-2.8323,-2.8411,-2.8372,-2.8372,-2.8411,-2.8411,-2.8411,-2.8468,-2.87,-2.8724,-2.8573,-2.2677,-2.2325,-2.2452,-2.204,-2.1446,-2.2079,-2.2863,-2.3494,-2.3965,-2.4406,-2.4705,-2.4872,-2.4814,-2.4546,-2.4442,-2.4322,-2.4037,-2.4037,-2.4083,-2.4083,-2.4125,-2.4125,-2.4125,-2.4083,-2.4125,-2.4125,-2.4125,-2.4125,-2.4125,-2.4125,-2.4125,-2.4125,-2.4125,-2.4125,-2.4125,-2.4125,-2.4125,-2.4125,-2.4112,-2.4112,-2.4345,-2.4706,-2.5174,-2.5591,-2.6068,-2.6549,-2.6837,-2.6967,-2.6993,-2.706,-2.7163,-2.728,-2.7331,-2.7499,-2.7534,-2.7585,-2.7585,-2.7585,-2.7585,-2.7585,-2.7585,-2.7585,-2.7585,-2.7585,-2.7585,-2.7585,-2.7585,-2.7585,-2.7585,-2.7585,-2.7585,-2.7585,-2.7585,-2.7585,-2.7585,-2.7585,-2.7585,-2.7585,-2.7585,-2.7585,-2.7585,-2.7585,-2.7585,-2.7585,-2.7585,-2.7585,-2.7585,-2.7675,-2.7725,-2.774,-2.7765,-2.7815,-2.788,-2.788,-2.793,-2.798,-2.798,-2.798,-2.8029,-2.8079,-2.8103,-2.8103,-2.8128,-2.8113,-2.8177,-2.8226,-2.8299,-2.8348,-2.8372,-2.8411,-2.8411,-2.8493,-2.8597,-2.8573,-2.8517,-2.0139,-2.0161,-2.0474,-2.0485,-2.0366,-2.1391,-2.1867,-2.1824,-2.2302,-2.277,-2.3092,-2.3855,-2.3974,-2.3794,-2.3857,-2.3946,-2.3949,-2.3949,-2.4008,-2.4054,-2.4067,-2.4096,-2.4054,-2.4054,-2.4083,-2.4096,-2.4125,-2.4125,-2.4125,-2.4125,-2.4125,-2.4096,-2.4096,-2.4096,-2.4125,-2.4125,-2.4125,-2.4125,-2.4125,-2.4125,-2.4229,-2.4677,-2.5005,-2.5328,-2.566,-2.5946,-2.6108,-2.6081,-2.6027,-2.6162,-2.6443,-2.6642,-2.6919,-2.7295,-2.7499,-2.7585,-2.7585,-2.7585,-2.7585,-2.7585,-2.7585,-2.7585,-2.7585,-2.7585,-2.7585,-2.7585,-2.7585,-2.7585,-2.7585,-2.7585,-2.7585,-2.7585,-2.7585,-2.7585,-2.7585,-2.7585,-2.7585,-2.7585,-2.7585,-2.7585,-2.7585,-2.7585,-2.7585,-2.7585,-2.7585,-2.7585,-2.7585,-2.7585,-2.765,-2.765,-2.765,-2.765,-2.77,-2.7715,-2.7765,-2.784,-2.7855,-2.7855,-2.793,-2.798,-2.798,-2.798,-2.8005,-2.7989,-2.8005,-2.8054,-2.8226,-2.8323,-2.8372,-2.8411,-2.8411,-2.8468,-2.8573,-2.8724,-2.8771,-2.0096,-2.0128,-2.0204,-2.0172,-2.0226,-2.0996,-2.1502,-2.1889,-2.25,-2.306,-2.3611,-2.3641,-2.3789,-2.3936,-2.392,-2.3979,-2.4008,-2.4037,-2.3979,-2.4008,-2.3979,-2.3949,-2.3979,-2.3979,-2.4037,-2.4096,-2.4125,-2.4083,-2.4096,-2.4096,-2.4037,-2.3979,-2.4067,-2.4096,-2.4125,-2.4125,-2.4125,-2.4125,-2.4125,-2.4125,-2.4229,-2.4649,-2.4835,-2.5048,-2.537,-2.5605,-2.5632,-2.5646,-2.5673,-2.5837,-2.6363,-2.6669,-2.6747,-2.7255,-2.7585,-2.7585,-2.7585,-2.7585,-2.7585,-2.7585,-2.7585,-2.7585,-2.7585,-2.7585,-2.7585,-2.7585,-2.7585,-2.7585,-2.7585,-2.7585,-2.7585,-2.7585,-2.7585,-2.7585,-2.7585,-2.7585,-2.7585,-2.7585,-2.7585,-2.7585,-2.7585,-2.7585,-2.7585,-2.7585,-2.7585,-2.7585,-2.7585,-2.7585,-2.7585,-2.7585,-2.7585,-2.7585,-2.76,-2.7625,-2.7675,-2.775,-2.774,-2.774,-2.7806,-2.7855,-2.779,-2.779,-2.784,-2.7905,-2.793,-2.8054,-2.8186,-2.8275,-2.8348,-2.8411,-2.8436,-2.8493,-2.8573,-2.8653,-2.87,-1.9682,-1.9715,-1.9846,-1.9879,-2.0009,-2.0495,-2.0901,-2.1365,-2.2408,-2.3253,-2.376,-2.373,-2.3819,-2.3979,-2.3949,-2.3949,-2.3979,-2.3878,-2.3848,-2.392,-2.3891,-2.3949,-2.3949,-2.3979,-2.4037,-2.4096,-2.4083,-2.4054,-2.4024,-2.4008,-2.3979,-2.4008,-2.4096,-2.4096,-2.4125,-2.4125,-2.4125,-2.4125,-2.4125,-2.4125,-2.4258,-2.4447,-2.4563,-2.4721,-2.5062,-2.5147,-2.5175,-2.5203,-2.5258,-2.5495,-2.6041,-2.6469,-2.6695,-2.7255,-2.756,-2.7585,-2.7585,-2.7585,-2.7585,-2.7585,-2.7585,-2.7585,-2.757,-2.7585,-2.7585,-2.7585,-2.7585,-2.7585,-2.7585,-2.7585,-2.7585,-2.7585,-2.7585,-2.7585,-2.7585,-2.7585,-2.7585,-2.7585,-2.7585,-2.7585,-2.7585,-2.7585,-2.7585,-2.7585,-2.7585,-2.7585,-2.7585,-2.7585,-2.7585,-2.7585,-2.7585,-2.7585,-2.7585,-2.76,-2.765,-2.765,-2.765,-2.765,-2.7675,-2.7675,-2.7625,-2.765,-2.77,-2.779,-2.788,-2.8005,-2.8088,-2.825,-2.8348,-2.8372,-2.8411,-2.8444,-2.8468,-2.8493,-2.8517,-1.9131,-1.9131,-1.944,-1.9605,-1.9704,-2.0042,-2.0258,-2.0441,-2.2168,-2.309,-2.345,-2.373,-2.3832,-2.3861,-2.3832,-2.3832,-2.3832,-2.373,-2.373,-2.3861,-2.3819,-2.3878,-2.3936,-2.4067,-2.4037,-2.4054,-2.4054,-2.3966,-2.3907,-2.392,-2.4037,-2.4096,-2.4125,-2.4125,-2.4125,-2.4125,-2.4125,-2.4125,-2.4125,-2.4125,-2.4125,-2.4141,-2.4125,-2.4141,-2.42,-2.4229,-2.42,-2.4258,-2.4374,-2.4907,-2.5439,-2.5987,-2.6522,-2.6956,-2.7214,-2.7291,-2.7188,-2.7041,-2.7022,-2.7014,-2.7225,-2.7294,-2.7485,-2.7485,-2.7495,-2.757,-2.7585,-2.7585,-2.7585,-2.7585,-2.7585,-2.7585,-2.7585,-2.7585,-2.7585,-2.7585,-2.7585,-2.7585,-2.7585,-2.7585,-2.7585,-2.7585,-2.7585,-2.7585,-2.7585,-2.7585,-2.7585,-2.7585,-2.7585,-2.7585,-2.7585,-2.7585,-2.7585,-2.7585,-2.7585,-2.7625,-2.761,-2.76,-2.7625,-2.7625,-2.7585,-2.7585,-2.7585,-2.769,-2.7806,-2.788,-2.8005,-2.8103,-2.8226,-2.8339,-2.8363,-2.8387,-2.8387,-2.8387,-2.8411,-1.9098,-1.9098,-1.9198,-1.9495,-1.9944,-2.0074,-2.0762,-2.1834,-2.2279,-2.2598,-2.2781,-2.3258,-2.3599,-2.3688,-2.3688,-2.3658,-2.3658,-2.3611,-2.3582,-2.3611,-2.3628,-2.3717,-2.3789,-2.392,-2.3949,-2.3949,-2.392,-2.3878,-2.3819,-2.3907,-2.4008,-2.3979,-2.4037,-2.4125,-2.4125,-2.4125,-2.4125,-2.4125,-2.4125,-2.4125,-2.4125,-2.4125,-2.4125,-2.4125,-2.4125,-2.4125,-2.4125,-2.4112,-2.4171,-2.439,-2.4907,-2.5425,-2.5987,-2.6203,-2.6256,-2.6242,-2.6332,-2.6193,-2.6104,-2.6192,-2.6325,-2.649,-2.6674,-2.7121,-2.739,-2.751,-2.7585,-2.757,-2.7585,-2.7585,-2.7585,-2.7585,-2.7585,-2.7585,-2.7585,-2.7585,-2.7585,-2.7585,-2.7585,-2.7585,-2.7585,-2.7585,-2.7585,-2.7585,-2.7585,-2.7585,-2.7585,-2.7585,-2.7585,-2.7585,-2.7585,-2.7585,-2.7585,-2.7585,-2.7585,-2.7585,-2.7585,-2.7585,-2.7585,-2.7585,-2.7585,-2.7585,-2.7585,-2.76,-2.769,-2.779,-2.7865,-2.7865,-2.7989,-2.8177,-2.8266,-2.825,-2.8275,-2.8299,-2.8323,-1.9098,-1.9098,-1.9098,-1.933,-1.9682,-1.9977,-2.0602,-2.1396,-2.1978,-2.2267,-2.2402,-2.3065,-2.3509,-2.3556,-2.3526,-2.3556,-2.3526,-2.342,-2.348,-2.348,-2.3509,-2.3586,-2.3688,-2.3789,-2.3789,-2.3789,-2.3789,-2.376,-2.3819,-2.3878,-2.3949,-2.3979,-2.4067,-2.4096,-2.4083,-2.4112,-2.4125,-2.4125,-2.4125,-2.4125,-2.4125,-2.4125,-2.4125,-2.4125,-2.4125,-2.4125,-2.4125,-2.4141,-2.4287,-2.4549,-2.5118,-2.5439,-2.5797,-2.5892,-2.5837,-2.5766,-2.5678,-2.5422,-2.5291,-2.5275,-2.5446,-2.5703,-2.5936,-2.6408,-2.6916,-2.7076,-2.7345,-2.7375,-2.7555,-2.7585,-2.7585,-2.7585,-2.7585,-2.7585,-2.7585,-2.7585,-2.7585,-2.7585,-2.7585,-2.7585,-2.7585,-2.7585,-2.7585,-2.7585,-2.7585,-2.7585,-2.7585,-2.7585,-2.7585,-2.7585,-2.7585,-2.7585,-2.7585,-2.7585,-2.7585,-2.7585,-2.7585,-2.7585,-2.7585,-2.7585,-2.7585,-2.7585,-2.76,-2.76,-2.765,-2.774,-2.779,-2.779,-2.7865,-2.8079,-2.8128,-2.8128,-2.8152,-2.8201,-2.8201,-1.9098,-1.9098,-1.9098,-1.9098,-1.9164,-1.9715,-2.0031,-2.0323,-2.129,-2.1947,-2.2175,-2.2992,-2.3407,-2.3467,-2.342,-2.348,-2.345,-2.33,-2.333,-2.345,-2.3539,-2.3526,-2.3599,-2.373,-2.37,-2.3658,-2.3658,-2.3819,-2.4008,-2.3979,-2.3979,-2.4067,-2.4067,-2.4096,-2.4083,-2.4083,-2.4125,-2.4125,-2.4125,-2.4125,-2.4125,-2.4125,-2.4125,-2.4125,-2.4125,-2.4125,-2.4125,-2.42,-2.4447,-2.4692,-2.5062,-2.5203,-2.53,-2.53,-2.5342,-2.5246,-2.4832,-2.4823,-2.4901,-2.4658,-2.4903,-2.5159,-2.5363,-2.5756,-2.627,-2.6624,-2.6877,-2.7305,-2.75,-2.7585,-2.7585,-2.7585,-2.7585,-2.7585,-2.7585,-2.7585,-2.7585,-2.7585,-2.7585,-2.7585,-2.7585,-2.7585,-2.7585,-2.7585,-2.7585,-2.7585,-2.7585,-2.7585,-2.7585,-2.7585,-2.7585,-2.7585,-2.7585,-2.7585,-2.7585,-2.7585,-2.7585,-2.7585,-2.7585,-2.7585,-2.7585,-2.7585,-2.7585,-2.7625,-2.7675,-2.77,-2.775,-2.779,-2.789,-2.7955,-2.798,-2.8005,-2.8029,-2.8054,-2.8054,-1.9098,-1.9098,-1.9098,-1.9098,-1.9131,-1.9274,-1.9573,-2.0063,-2.0376,-2.1037,-2.1928,-2.2237,-2.2647,-2.3168,-2.3168,-2.3228,-2.33,-2.315,-2.3108,-2.3198,-2.342,-2.342,-2.348,-2.3569,-2.3599,-2.3599,-2.3616,-2.373,-2.3949,-2.392,-2.3891,-2.3907,-2.3907,-2.3949,-2.3979,-2.4008,-2.4096,-2.4096,-2.4083,-2.4083,-2.4096,-2.4096,-2.4125,-2.4125,-2.4125,-2.4125,-2.4125,-2.4125,-2.4171,-2.4287,-2.4434,-2.4549,-2.4567,-2.4555,-2.453,-2.4387,-2.3956,-2.3743,-2.3713,-2.3575,-2.3712,-2.4139,-2.4435,-2.5135,-2.5573,-2.5873,-2.6404,-2.7309,-2.7484,-2.7534,-2.756,-2.7585,-2.7585,-2.7585,-2.7585,-2.7585,-2.7585,-2.7585,-2.7585,-2.7585,-2.7585,-2.7585,-2.7585,-2.7585,-2.7585,-2.7585,-2.7585,-2.7585,-2.7585,-2.7585,-2.7585,-2.7585,-2.7585,-2.7585,-2.7585,-2.7585,-2.7585,-2.7585,-2.7585,-2.7585,-2.7585,-2.7585,-2.7585,-2.7625,-2.7585,-2.7625,-2.7675,-2.7725,-2.775,-2.7815,-2.784,-2.7865,-2.7905,-2.793,-2.7905]}]]